[[{"header":{"parameterUnit":"m.s-1","parameterCategory":1,"la1":30.6,"la2":28.766,"lo1":-90.7593,"lo2":-88.6598,"dy":0.0162,"dx":0.0183,"nx":116,"ny":114,"refTime":"2024-04-21T00:00:00:Z","depth":0,"parameterNumber":2,"parameterNumberName":"U-component_of_WINDS"},"data":[0.0,0.0,0.0,0.0,0.0,0.0,0.0,0.0,0.0,0.0,0.0,0.0,0.0,0.0,0.0,0.0,0.0,0.0,0.0,0.0,0.0,0.0,0.0,0.0,0.0,0.0,0.0,0.0,0.0,0.0,0.0,0.0,0.0,0.0,0.0,0.0,0.0,0.0,0.0,0.0,0.0,0.0,0.0,0.0,0.0,0.0,0.0,0.0,0.0,0.0,0.0,0.0,0.0,0.0,0.0,0.0,0.0,0.0,0.0,0.0,0.0,0.0,0.0,0.0,0.0,0.0,0.0,0.0,0.0,0.0,0.0,0.0,0.0,0.0,0.0,0.0,0.0,0.0,0.0,0.0,0.0,0.0,0.0,0.0,0.0,0.0,0.0,0.0,0.0,0.0,0.0,0.0,0.0,0.0,0.0,0.0,0.0,0.0,0.0,0.0,0.0,0.0,0.0,0.0,0.0,0.0,0.0,0.0,0.0,0.0,0.0,0.0,0.0,0.0,0.0,0.0,0.0,0.0,0.0,0.0,0.0,0.0,0.0,0.0,0.0,0.0,0.0,0.0,0.0,0.0,0.0,0.0,0.0,0.0,0.0,0.0,0.0,0.0,0.0,0.0,0.0,0.0,0.0,0.0,0.0,0.0,0.0,0.0,0.0,0.0,0.0,0.0,0.0,0.0,0.0,0.0,0.0,0.0,0.0,0.0,0.0,0.0,0.0,0.0,0.0,0.0,0.0,0.0,0.0,0.0,0.0,0.0,0.0,0.0,0.0,0.0,0.0,0.0,0.0,0.0,0.0,0.0,0.0,0.0,0.0,0.0,0.0,0.0,0.0,0.0,0.0,0.0,0.0,0.0,0.0,0.0,0.0,0.0,0.0,0.0,0.0,0.0,0.0,0.0,0.0,0.0,0.0,0.0,0.0,0.0,0.0,0.0,0.0,0.0,0.0,0.0,0.0,0.0,0.0,0.0,0.0,0.0,0.0,0.0,0.0,0.0,0.0,0.0,0.0,0.0,0.0,0.0,0.0,0.0,0.0,0.0,0.0,0.0,0.0,0.0,0.0,0.0,0.0,0.0,0.0,0.0,0.0,0.0,0.0,0.0,0.0,0.0,0.0,0.0,0.0,0.0,0.0,0.0,0.0,0.0,0.0,0.0,0.0,0.0,0.0,0.0,0.0,0.0,0.0,0.0,0.0,0.0,0.0,0.0,0.0,0.0,0.0,0.0,0.0,0.0,0.0,0.0,0.0,0.0,0.0,0.0,0.0,0.0,0.0,0.0,0.0,0.0,0.0,0.0,0.0,0.0,0.0,0.0,0.0,0.0,0.0,0.0,0.0,0.0,0.0,0.0,0.0,0.0,0.0,0.0,0.0,0.0,0.0,0.0,0.0,0.0,0.0,0.0,0.0,0.0,0.0,0.0,0.0,0.0,0.0,0.0,0.0,0.0,0.0,0.0,0.0,0.0,0.0,0.0,0.0,0.0,0.0,0.0,0.0,0.0,0.0,0.0,0.0,0.0,0.0,0.0,0.0,0.0,0.0,0.0,0.0,0.0,0.0,0.0,0.0,0.0,0.0,0.0,0.0,0.0,0.0,0.0,0.0,0.0,0.0,0.0,0.0,0.0,0.0,0.0,0.0,0.0,0.0,0.0,0.0,0.0,0.0,0.0,0.0,0.0,0.0,0.0,0.0,0.0,0.0,0.0,0.0,0.0,0.0,0.0,0.0,0.0,0.0,0.0,0.0,0.0,0.0,0.0,0.0,0.0,0.0,0.0,0.0,0.0,0.0,0.0,0.0,0.0,0.0,0.0,0.0,0.0,0.0,0.0,0.0,0.0,0.0,0.0,0.0,0.0,0.0,0.0,0.0,0.0,0.0,0.0,0.0,0.0,0.0,0.0,0.0,0.0,0.0,0.0,0.0,0.0,0.0,0.0,0.0,0.0,0.0,0.0,0.0,0.0,0.0,0.0,0.0,0.0,0.0,0.0,0.0,0.0,0.0,0.0,0.0,0.0,0.0,0.0,0.0,0.0,0.0,0.0,0.0,0.0,0.0,0.0,0.0,0.0,0.0,0.0,0.0,0.0,0.0,0.0,0.0,0.0,0.0,0.0,0.0,0.0,0.0,0.0,0.0,0.0,0.0,0.0,0.0,0.0,0.0,0.0,0.0,0.0,0.0,0.0,0.0,0.0,0.0,0.0,0.0,0.0,0.0,0.0,0.0,0.0,0.0,0.0,0.0,0.0,0.0,0.0,0.0,0.0,0.0,0.0,0.0,0.0,0.0,0.0,0.0,0.0,0.0,0.0,0.0,0.0,0.0,0.0,0.0,0.0,0.0,0.0,0.0,0.0,0.0,0.0,0.0,0.0,0.0,0.0,0.0,0.0,0.0,0.0,0.0,0.0,0.0,0.0,0.0,0.0,0.0,0.0,0.0,0.0,0.0,0.0,0.0,0.0,0.0,0.0,0.0,0.0,0.0,0.0,0.0,0.0,0.0,0.0,0.0,0.0,0.0,0.0,0.0,0.0,0.0,0.0,0.0,0.0,0.0,0.0,0.0,0.0,0.0,0.0,0.0,0.0,0.0,0.0,0.0,0.0,0.0,0.0,0.0,0.0,0.0,0.0,0.0,0.0,0.0,0.0,0.0,0.0,0.0,0.0,0.0,0.0,0.0,0.0,0.0,0.0,0.0,0.0,0.0,0.0,0.0,0.0,0.0,0.0,0.0,0.0,0.0,0.0,0.0,0.0,0.0,0.0,0.0,0.0,0.0,0.0,0.0,0.0,0.0,0.0,0.0,0.0,0.0,0.0,0.0,0.0,0.0,0.0,0.0,0.0,0.0,0.0,0.0,0.0,0.0,0.0,0.0,0.0,0.0,0.0,0.0,0.0,0.0,0.0,0.0,0.0,0.0,0.0,0.0,0.0,0.0,0.0,0.0,0.0,0.0,0.0,0.0,0.0,0.0,0.0,0.0,0.0,0.0,0.0,0.0,0.0,0.0,0.0,0.0,0.0,0.0,0.0,0.0,0.0,0.0,0.0,0.0,0.0,0.0,0.0,0.0,0.0,0.0,0.0,0.0,0.0,0.0,0.0,0.0,0.0,0.0,0.0,0.0,0.0,0.0,0.0,0.0,0.0,0.0,0.0,0.0,0.0,0.0,0.0,0.0,0.0,0.0,0.0,0.0,0.0,0.0,0.0,0.0,0.0,0.0,0.0,0.0,0.0,0.0,0.0,0.0,0.0,0.0,0.0,0.0,0.0,0.0,0.0,0.0,0.0,0.0,0.0,0.0,0.0,0.0,0.0,0.0,0.0,0.0,0.0,0.0,0.0,0.0,0.0,0.0,0.0,0.0,0.0,0.0,0.0,0.0,0.0,0.0,0.0,0.0,0.0,0.0,0.0,0.0,0.0,0.0,0.0,0.0,0.0,0.0,0.0,0.0,0.0,0.0,0.0,0.0,0.0,0.0,0.0,0.0,0.0,0.0,0.0,0.0,0.0,0.0,0.0,0.0,0.0,0.0,0.0,0.0,0.0,0.0,0.0,0.0,0.0,0.0,0.0,0.0,0.0,0.0,0.0,0.0,0.0,0.0,0.0,0.0,0.0,0.0,0.0,0.0,0.0,0.0,0.0,0.0,0.0,0.0,0.0,0.0,0.0,0.0,0.0,0.0,0.0,0.0,0.0,0.0,0.0,0.0,0.0,0.0,0.0,0.0,0.0,0.0,0.0,0.0,0.0,0.0,0.0,0.0,0.0,0.0,0.0,0.0,0.0,0.0,0.0,0.0,0.0,0.0,0.0,0.0,0.0,0.0,0.0,0.0,0.0,0.0,0.0,0.0,0.0,0.0,0.0,0.0,0.0,0.0,0.0,0.0,0.0,0.0,0.0,0.0,0.0,0.0,0.0,0.0,0.0,0.0,0.0,0.0,0.0,0.0,0.0,0.0,0.0,0.0,0.0,0.0,0.0,0.0,0.0,0.0,0.0,0.0,0.0,0.0,0.0,0.0,0.0,0.0,0.0,0.0,0.0,0.0,0.0,0.0,0.0,0.0,0.0,0.0,0.0,0.0,0.0,0.0,0.0,0.0,0.0,0.0,0.0,0.0,0.0,0.0,0.0,0.0,0.0,0.0,0.0,0.0,0.0,0.0,0.0,0.0,0.0,0.0,0.0,0.0,0.0,0.0,0.0,0.0,0.0,0.0,0.0,0.0,0.0,0.0,0.0,0.0,0.0,0.0,0.0,0.0,0.0,0.0,0.0,0.0,0.0,0.0,0.0,0.0,0.0,0.0,0.0,0.0,0.0,0.0,0.0,0.0,0.0,0.0,0.0,0.0,0.0,0.0,0.0,0.0,0.0,0.0,0.0,0.0,0.0,0.0,0.0,0.0,0.0,0.0,0.0,0.0,0.0,0.0,0.0,0.0,0.0,0.0,0.0,0.0,0.0,0.0,0.0,0.0,0.0,0.0,0.0,0.0,0.0,0.0,0.0,0.0,0.0,0.0,0.0,0.0,0.0,0.0,0.0,0.0,0.0,0.0,0.0,0.0,0.0,0.0,0.0,0.0,0.0,0.0,0.0,0.0,0.0,0.0,0.0,0.0,0.0,0.0,0.0,0.0,0.0,0.0,0.0,0.0,0.0,0.0,0.0,0.0,0.0,0.0,0.0,0.0,0.0,0.0,0.0,0.0,0.0,0.0,0.0,0.0,0.0,0.0,0.0,0.0,0.0,0.0,0.0,0.0,0.0,0.0,0.0,0.0,0.0,0.0,0.0,0.0,0.0,0.0,0.0,0.0,0.0,0.0,0.0,0.0,0.0,0.0,0.0,0.0,0.0,0.0,0.0,0.0,0.0,0.0,0.0,0.0,0.0,0.0,0.0,0.0,0.0,0.0,0.0,0.0,0.0,0.0,0.0,0.0,0.0,0.0,0.0,0.0,0.0,0.0,0.0,0.0,0.0,0.0,0.0,0.0,0.0,0.0,0.0,0.0,0.0,0.0,0.0,0.0,0.0,0.0,0.0,0.0,0.0,0.0,0.0,0.0,0.0,0.0,0.0,0.0,0.0,0.0,0.0,0.0,0.0,0.0,0.0,0.0,0.0,0.0,0.0,0.0,0.0,0.0,0.0,0.0,0.0,0.0,0.0,0.0,0.0,0.0,0.0,0.0,0.0,0.0,0.0,0.0,0.0,0.0,0.0,0.0,0.0,0.0,0.0,0.0,0.0,0.0,0.0,0.0,0.0,0.0,0.0,0.0,0.0,0.0,0.0,0.0,0.0,0.0,0.0,0.0,0.0,0.0,0.0,0.0,0.0,0.0,0.0,0.0,0.0,0.0,0.0,0.0,0.0,0.0,0.0,0.0,0.0,0.0,0.0,0.0,0.0,0.0,0.0,0.0,0.0,0.0,0.0,0.0,0.0,0.0,0.0,0.0,0.0,0.0,0.0,0.0,0.0,0.0,0.0,0.0,0.0,0.0,0.0,0.0,0.0,0.0,0.0,0.0,0.0,0.0,0.0,0.0,0.0,0.0,0.0,0.0,0.0,0.0,0.0,0.0,0.0,0.0,0.0,0.0,0.0,0.0,0.0,0.0,0.0,0.0,0.0,0.0,0.0,0.0,0.0,0.0,0.0,0.0,0.0,0.0,0.0,0.0,0.0,0.0,0.0,0.0,0.0,0.0,0.0,0.0,0.0,0.0,0.0,0.0,0.0,0.0,0.0,0.0,0.0,0.0,0.0,0.0,0.0,0.0,0.0,0.0,0.0,0.0,0.0,0.0,0.0,0.0,0.0,0.0,0.0,0.0,0.0,0.0,0.0,0.0,0.0,0.0,0.0,0.0,0.0,0.0,0.0,0.0,0.0,0.0,0.0,0.0,0.0,0.0,0.0,0.0,0.0,0.0,0.0,0.0,0.0,0.0,0.0,0.0,0.0,0.0,0.0,0.0,0.0,0.0,0.0,0.0,0.0,0.0,0.0,0.0,0.0,0.0,0.0,0.0,0.0,0.0,0.0,0.0,0.0,0.0,0.0,0.0,0.0,0.0,0.0,0.0,0.0,0.0,0.0,0.0,0.0,0.0,0.0,0.0,0.0,0.0,0.0,1.4287,0.0,0.0,0.0,0.0,0.0,0.0,0.0,0.0,0.0,0.0,0.0,0.0,0.0,0.0,0.0,0.0,0.0,0.0,0.0,0.0,0.0,0.0,0.0,0.0,0.3341,0.3582,0.3526,0.434,0.4833,0.4778,0.0,0.0,0.0,0.0,0.0,0.3142,0.2977,0.3334,0.4225,0.4553,0.5262,0.6343,0.7009,0.6558,0.5165,0.0,0.0,0.0,0.0,0.0,0.0,0.0,0.0,0.0,0.0,0.0,0.0,0.0,0.0,0.0,0.0,0.0,0.0,0.0,0.0,0.0,0.0,0.0,0.0,0.0,0.0,0.0,0.0,0.0,0.0,0.0,0.0,0.0,0.0,0.0,0.0,0.0,0.0,0.0,0.0,0.0,0.0,0.0,0.0,0.0,0.0,0.0,0.0,0.0,0.0,0.0,0.0,0.0,0.0,0.0,0.0,0.0,0.0,0.0,0.0,0.0,0.0,0.0,0.0,0.0,0.0,0.0,0.0,0.0,0.0,0.0,1.5808,0.0,0.0,0.0,0.0,0.0,0.0,0.0,0.0,0.0,0.0,0.0,0.0,0.0,0.0,0.0,0.0,0.0,0.0,0.0,0.0,0.0,0.2819,0.2998,0.333,0.3729,0.4211,0.4539,0.4901,0.533,0.4395,0.3837,0.3835,0.3083,0.2807,0.3152,0.3263,0.3871,0.5002,0.5848,0.711,0.8704,1.0079,0.9502,0.7389,0.7586,0.0,0.0,0.0,0.0,0.0,0.0,0.0,0.0,0.0,0.0,0.0,0.0,0.0,0.0,0.0,0.0,0.0,0.0,0.0,0.0,0.0,0.0,0.0,0.0,0.0,0.0,0.0,0.0,0.0,0.0,0.0,0.0,0.0,0.0,0.0,0.0,0.0,0.0,0.0,0.0,0.0,0.0,0.0,0.0,0.0,0.0,0.0,0.0,0.0,0.0,0.0,0.0,0.0,0.0,0.0,0.0,0.0,0.0,0.0,0.0,0.0,0.0,0.0,1.744,1.836,1.9553,1.9367,1.9832,2.0674,1.8262,1.8059,1.9251,1.6514,0.0,0.0,0.0,0.0,0.0,0.0,0.0,0.0,0.0,0.0,0.0,0.0,0.0,0.0,0.0,0.0,0.0,0.0,0.0,0.2674,0.3053,0.3436,0.388,0.4418,0.4668,0.4885,0.5127,0.4195,0.3738,0.3972,0.3259,0.3147,0.3759,0.3793,0.4446,0.5748,0.7639,0.9134,1.0221,1.1406,1.1571,1.0828,1.0291,0.0,0.0,0.0,0.0,0.0,0.0,0.0,0.0,0.0,0.0,0.0,0.0,0.0,0.0,0.0,0.0,0.0,0.0,0.0,0.0,0.0,0.0,0.0,0.0,0.0,0.0,0.0,0.0,0.0,0.0,0.0,0.0,0.0,0.0,0.0,0.0,0.0,0.0,0.0,0.0,0.0,0.0,0.0,1.0008,1.1099,0.0,0.0,0.0,0.0,0.0,0.0,0.0,0.0,0.0,0.0,0.0,0.0,0.0,1.5522,1.6688,1.8019,1.8924,1.9243,2.0214,2.0636,2.0657,2.0657,2.1004,2.1524,2.0968,0.0,1.9426,1.7873,0.0,0.0,0.0,0.0,0.0,0.0,0.0,0.0,0.0,0.0,0.0,0.0,0.0,0.0,0.0,0.0,0.0,0.0,0.0,0.0,0.0,0.4041,0.4706,0.5303,0.5984,0.6133,0.5584,0.5056,0.4486,0.3867,0.3278,0.3265,0.394,0.433,0.5611,0.7791,0.9827,1.1163,1.1895,1.3249,1.3858,1.3727,1.3659,1.274,1.1175,0.986,0.0,0.0,0.0,0.0,0.0,0.0,0.0,0.0,0.0,0.0,0.0,0.0,0.0,0.0,0.0,0.0,0.0,0.0,0.0,0.0,0.0,0.0,0.0,0.0,0.0,0.0,0.0,0.0,0.0,0.0,0.0,0.0,0.0,0.0,0.0,0.0,0.0,0.0,0.0,0.9428,1.1372,1.1707,1.1911,1.1675,0.0,0.0,0.0,0.0,0.0,0.0,0.0,0.0,0.0,1.5908,1.6816,1.7609,1.8206,1.9476,2.0197,2.0389,2.0761,2.1313,2.2034,2.1589,2.1815,2.2484,2.2124,2.1542,2.0697,1.9203,1.7873,1.6688,0.0,0.0,0.0,0.0,1.5468,1.5395,0.0,0.0,0.0,0.0,0.0,0.0,0.0,0.0,0.0,0.0,0.0,0.0,0.3766,0.4671,0.5541,0.6329,0.6993,0.7066,0.6362,0.5728,0.4946,0.3971,0.3441,0.3457,0.409,0.5267,0.7142,0.9719,1.1507,1.2633,1.3147,1.4505,1.5205,1.5383,1.5789,1.4859,1.2957,1.183,1.0875,0.0,0.0,0.0,0.0,0.0,0.0,0.0,0.0,0.0,0.0,0.0,0.0,0.0,0.0,0.0,0.0,0.0,0.0,0.0,0.0,0.0,0.0,0.0,0.0,0.0,0.0,0.0,0.0,0.0,0.0,0.0,0.0,0.0,0.0,0.0,0.0,0.0,0.0,1.0888,1.2627,1.2614,1.3248,1.3113,0.0,0.0,0.0,0.0,0.0,0.0,1.5071,1.6263,1.7101,1.7474,1.8406,1.9099,1.9387,2.0214,2.0748,2.1012,2.0802,2.1355,2.2382,2.1715,2.1884,2.2452,2.2072,2.1707,2.1344,1.9984,1.8881,1.8157,1.7176,1.6427,1.5993,1.7246,1.7324,1.6975,0.0,0.0,0.0,0.0,0.0,0.0,0.0,0.0,0.0,0.0,0.0,0.3367,0.4342,0.513,0.6079,0.7318,0.7061,0.7021,0.7384,0.5628,0.455,0.4554,0.3932,0.3837,0.4368,0.6974,0.9175,1.0905,1.2157,1.3071,1.3655,1.4521,1.5016,1.5154,1.5517,1.6048,1.6483,1.4583,1.3459,1.2902,0.0,0.0,0.0,0.0,0.0,0.0,0.0,0.0,0.0,0.0,0.0,0.0,0.0,0.0,0.0,0.0,0.0,0.0,0.0,0.0,0.0,0.0,0.0,0.0,0.0,0.0,0.0,0.0,0.0,0.0,0.0,0.0,0.0,0.0,0.0,0.0,0.0,0.0,0.0,1.4769,1.5049,0.0,0.0,0.0,0.0,1.4424,1.5729,1.6652,1.6946,1.7832,1.8491,1.8982,1.9164,1.9653,2.0407,2.0365,2.0653,2.1276,2.0729,2.0657,2.0979,2.0699,2.0611,2.0627,2.0627,2.0619,2.0479,1.9842,1.9287,1.8804,1.7787,1.7391,1.7501,1.8375,1.8683,1.8729,0.0,0.0,0.0,0.0,0.0,0.2126,0.2491,0.2246,0.2193,0.2678,0.3079,0.3738,0.4829,0.5794,0.6834,0.7921,0.804,0.7792,0.7258,0.6197,0.5381,0.489,0.4211,0.4651,0.636,0.8119,0.9767,1.1272,1.2401,1.3131,1.3608,1.4874,1.5305,1.5187,1.6297,1.6652,1.6425,1.5451,1.4525,1.3584,1.2513,1.0875,0.0,0.0,0.0,0.0,0.0,0.0,0.0,0.0,0.0,0.0,0.0,0.0,0.0,0.0,0.0,0.0,0.0,0.0,0.0,0.0,0.0,0.0,0.0,0.0,0.0,0.0,0.0,0.0,0.0,0.0,0.0,0.0,0.0,0.0,0.0,0.0,0.0,1.5332,1.6179,0.0,1.4919,1.521,1.5519,1.5514,1.6817,1.7696,1.7652,1.8408,1.8879,1.9121,1.9315,1.9559,1.9765,2.0247,2.0281,2.017,2.0015,2.0124,2.0419,2.0132,2.0124,2.0225,2.0023,2.0031,1.9977,1.9256,1.9191,1.9519,1.9039,1.8642,1.8372,1.8845,1.8733,1.8462,0.0,0.0,0.0,0.0,0.0,0.1896,0.2156,0.203,0.2064,0.251,0.3175,0.4012,0.5036,0.6135,0.7068,0.7878,0.8252,0.8038,0.7093,0.6475,0.5806,0.5066,0.4771,0.5583,0.7688,0.8884,1.021,1.156,1.2632,1.3233,1.3615,1.4813,1.5287,1.5145,1.6305,1.6627,1.6249,1.6306,1.5698,1.4705,1.4054,1.2926,1.1449,0.0,0.0,0.0,0.0,0.0,0.0,0.0,0.0,0.0,0.0,0.0,0.0,0.0,0.0,0.0,0.0,0.0,0.0,0.0,0.0,0.0,0.0,0.0,0.0,0.0,0.0,0.0,0.0,0.0,0.0,0.0,0.0,0.0,0.0,0.0,1.5701,1.5716,1.6641,1.68,1.548,1.6054,1.6475,1.6305,1.7491,1.8124,1.7913,1.8378,1.8669,1.8675,1.892,1.901,1.8843,1.949,1.9648,1.9219,1.9155,1.9264,1.9561,1.9153,1.9049,1.925,1.9049,1.8945,1.893,1.8508,1.8578,1.9025,1.9225,1.8994,1.8619,1.8804,1.8653,1.8159,0.0,0.0,0.0,0.0,0.0,0.1746,0.1615,0.1865,0.2176,0.2449,0.3246,0.4102,0.4997,0.6038,0.6804,0.7176,0.7586,0.7554,0.6927,0.6308,0.5677,0.5112,0.5594,0.6565,0.8145,0.9356,1.0547,1.1861,1.2832,1.3439,1.3724,1.4387,1.4769,1.4979,1.5405,1.579,1.6226,1.7078,1.706,1.6335,1.5487,1.5127,1.4821,0.0,0.0,0.0,0.0,0.0,0.0,0.0,0.0,0.0,0.0,0.0,0.0,0.0,0.0,0.0,0.0,0.0,0.0,0.0,0.0,0.0,0.0,0.0,0.0,0.0,0.0,0.0,0.0,0.0,0.0,0.0,0.0,0.0,1.3758,1.5384,1.6465,1.5972,1.6606,1.6748,1.5907,1.6601,1.7047,1.6777,1.7717,1.8109,1.7549,1.7947,1.8002,1.7818,1.7806,1.7858,1.7865,1.8171,1.852,1.8722,1.822,1.8115,1.8318,1.7793,1.7582,1.7582,1.7582,1.7582,1.7582,1.7582,1.7364,1.7193,1.8146,1.8405,1.82,1.8383,1.8277,1.793,0.0,0.0,0.0,0.1969,0.1712,0.1501,0.1464,0.145,0.1601,0.2021,0.2742,0.3695,0.4893,0.557,0.6232,0.705,0.6683,0.6363,0.6277,0.5379,0.488,0.4947,0.6173,0.7213,0.8098,0.9416,1.057,1.1389,1.2291,1.2798,1.3035,1.3968,1.4273,1.4137,1.5423,1.5777,1.562,1.6738,1.7055,1.6769,1.6634,1.593,1.4854,0.0,0.0,0.0,0.0,0.0,0.0,0.0,0.0,0.0,0.0,0.0,0.0,0.0,0.0,0.0,0.0,0.0,0.0,0.0,0.0,0.0,0.0,0.0,0.0,0.0,0.0,0.0,0.0,0.0,0.0,0.0,1.3059,1.4528,1.5265,1.6253,1.6872,1.6718,1.7223,1.7227,1.6452,1.6884,1.7086,1.6578,1.7223,1.7435,1.6945,1.7209,1.7303,1.732,1.7299,1.7345,1.7364,1.745,1.7483,1.7252,1.7153,1.7054,1.7153,1.7047,1.6842,1.6636,1.6636,1.6424,1.6092,1.6092,1.5986,1.6074,1.7173,1.7194,1.6803,1.6797,1.6462,1.5884,0.0,0.0,0.0,0.1889,0.1639,0.1394,0.1255,0.124,0.1353,0.1663,0.2377,0.325,0.42,0.4843,0.5378,0.5939,0.5733,0.5453,0.5161,0.476,0.4745,0.523,0.6457,0.7367,0.8093,0.9187,1.0221,1.1124,1.1924,1.2469,1.2745,1.3652,1.3967,1.3899,1.5,1.545,1.5412,1.6501,1.6888,1.6914,1.7405,1.7092,1.6247,1.5543,1.5352,1.5397,1.4957,1.5188,1.5549,1.479,0.0,0.0,0.0,0.0,0.0,0.0,0.0,0.0,0.0,0.0,0.0,0.0,0.0,0.0,0.0,0.0,0.0,0.0,0.0,0.0,0.0,0.0,0.0,0.0,1.3969,1.5238,1.5832,1.6436,1.6862,1.6768,1.6974,1.6911,1.6316,1.6543,1.6573,1.6197,1.6553,1.6685,1.6278,1.6388,1.642,1.6482,1.6279,1.6256,1.6318,1.6424,1.6418,1.6199,1.6199,1.6199,1.6199,1.6099,1.5885,1.5571,1.5571,1.5244,1.4696,1.4696,1.4595,0.0,0.0,0.0,0.0,0.0,1.503,1.4683,0.0,0.0,0.0,0.1743,0.156,0.134,0.1044,0.1125,0.1269,0.1377,0.2057,0.2716,0.317,0.3929,0.4349,0.4271,0.4726,0.4706,0.3911,0.4351,0.4938,0.5636,0.6456,0.7187,0.7944,0.8756,0.9717,1.081,1.1511,1.214,1.2619,1.3307,1.3737,1.3997,1.4439,1.4936,1.5401,1.6275,1.6726,1.683,1.7769,1.8221,1.8152,1.7249,1.741,1.7994,1.7367,1.6961,1.6644,1.6209,0.0,0.0,0.0,0.0,0.0,0.0,0.0,0.0,0.0,0.0,0.0,0.0,0.0,0.0,0.0,0.0,0.0,0.0,0.0,0.0,0.0,0.0,0.0,0.0,1.4817,1.5585,1.5613,1.6014,1.64,1.6324,1.6111,1.5958,1.5757,1.5674,1.5757,1.5757,1.5763,1.5762,1.5762,0.0,0.0,0.0,0.0,1.5041,1.5041,1.5244,1.5345,1.5345,1.5345,1.5345,1.5345,1.5035,1.4713,1.4498,1.4385,1.4056,1.3511,1.3511,1.3192,1.2876,1.4153,1.4702,1.4606,1.4169,1.3954,1.3922,0.0,0.0,0.176,0.1706,0.1368,0.1074,0.1006,0.0857,0.0876,0.126,0.1449,0.1906,0.2784,0.2888,0.3088,0.355,0.3506,0.349,0.3553,0.388,0.432,0.498,0.6029,0.6734,0.7015,0.8284,0.9253,0.9877,1.0735,1.1455,1.1929,1.2619,1.2875,1.3058,1.4058,1.4638,1.4915,1.5848,1.6374,1.661,1.7162,1.7499,1.7854,1.8104,1.8165,1.8045,1.8186,1.8382,1.8519,1.8267,1.7897,1.7412,1.6589,0.0,0.0,0.0,0.0,0.0,0.0,0.0,0.0,0.0,0.0,0.0,0.0,0.0,0.0,0.0,0.0,0.0,0.0,0.0,0.0,1.358,1.4442,1.5061,1.4937,1.5031,1.5207,1.5536,1.5562,1.5441,1.5193,1.5141,1.5118,1.5118,1.5211,1.518,1.518,1.5114,1.5143,1.5143,1.5035,1.5041,1.5041,1.4821,1.4815,1.4815,0.0,0.0,1.4493,1.4056,1.3846,1.3532,1.331,1.2876,1.2327,1.2327,1.2001,1.1564,1.254,1.2866,1.2871,1.2762,1.2654,1.2432,0.0,0.1719,0.17,0.1534,0.1222,0.0948,0.0778,0.0528,0.0429,0.0623,0.0782,0.1008,0.1358,0.1615,0.1886,0.2109,0.2203,0.2475,0.2986,0.3301,0.3816,0.4572,0.5509,0.6314,0.6947,0.7854,0.8769,0.9614,1.0322,1.0982,1.1505,1.2065,1.2486,1.2717,1.3597,1.4084,1.4419,1.5331,1.5884,1.6322,1.6871,1.7361,1.7904,1.8311,1.8344,1.8202,1.8787,1.8721,1.8451,1.857,1.8239,1.7728,1.7193,1.6208,1.5036,0.0,0.0,0.0,0.0,0.0,0.0,0.0,0.0,0.0,0.0,0.0,0.0,0.0,0.0,1.2923,1.3138,0.0,1.4005,1.4365,1.4795,1.4923,1.4588,1.4406,1.4352,1.4592,1.4697,1.4643,1.4481,1.4546,1.4723,1.4752,1.4786,1.4713,1.4606,1.439,1.418,1.3959,1.3959,1.3851,1.3738,1.3521,1.3521,1.3521,1.3413,1.3305,1.3305,1.3083,1.2871,1.2441,1.2332,1.1787,1.1131,1.1021,1.0692,1.0253,1.0692,1.1131,1.1564,1.1564,1.1455,1.135,0.0,0.0,0.1634,0.1325,0.1103,0.087,0.0603,0.0249,0.0,0.0,0.0088,0.0068,-0.0075,0.0447,0.0757,0.0784,0.1172,0.1679,0.2388,0.2753,0.3394,0.427,0.5054,0.5872,0.6857,0.7361,0.8206,0.9287,0.9798,1.0403,1.1091,1.1598,1.2133,1.2552,1.315,1.3652,1.4088,1.4726,1.5391,1.6079,1.673,1.7302,1.7883,1.8105,1.8183,1.8342,1.9043,1.8552,1.7595,1.8078,1.7809,1.7346,1.7165,1.6644,1.5841,1.4442,1.3581,0.0,0.0,0.0,0.0,0.0,0.0,0.0,0.0,0.0,1.3154,1.3982,1.4011,1.4096,1.4759,1.4569,1.4527,1.4964,1.4998,1.4757,1.4115,1.391,1.3715,1.3551,1.3659,1.3676,1.3684,1.3976,1.4132,1.4228,1.4254,1.4169,1.3954,1.3635,1.3207,1.2772,1.2772,1.255,1.2223,1.2219,1.2114,1.2114,1.211,1.2001,1.2001,1.1891,1.1673,1.1126,1.1126,1.0688,1.0033,0.9702,0.9375,0.9265,0.9154,0.9596,1.0139,1.0359,1.0359,1.0363,0.0,0.0,0.0,0.1243,0.0991,0.0805,0.0769,0.014,-0.0263,-0.0024,-0.0486,-0.0716,-0.0403,-0.0378,-0.0215,0.0313,0.0726,0.1295,0.2109,0.2383,0.2935,0.3842,0.4515,0.5217,0.5939,0.6725,0.7487,0.8064,0.8994,0.9667,1.0189,1.1,1.1618,1.2135,1.2901,1.3392,1.375,1.4514,1.5149,1.5816,1.6312,1.6894,1.7513,1.7569,1.7787,1.8202,1.8781,1.8135,1.7014,1.7388,1.7217,1.6909,1.7124,1.6906,1.6384,1.5257,0.0,1.3292,1.2215,1.1741,0.0,1.3628,1.3081,1.2974,0.0,0.0,1.4308,1.5073,1.5012,1.4753,1.4416,1.4292,1.4201,1.4039,1.4144,1.4049,1.3336,1.3203,1.2918,1.2299,1.2838,1.3077,1.2899,1.3199,1.3367,1.3182,1.3076,1.3098,1.3093,1.2767,1.2441,1.2114,1.2114,1.2005,1.1678,1.135,1.1236,1.1236,1.1021,1.0692,1.0472,1.0253,0.9919,0.9581,0.9361,0.9144,0.9034,0.8706,0.8595,0.8595,0.8266,0.8266,0.8374,0.8923,0.9144,0.9144,0.0,0.0,0.0,0.0922,0.0792,0.0635,0.0318,-0.0081,-0.0488,-0.0875,-0.1182,-0.1438,-0.1661,-0.1519,-0.1198,-0.0613,-0.0079,0.05,0.1167,0.161,0.2167,0.3048,0.3657,0.438,0.5388,0.6034,0.6929,0.7944,0.8624,0.9301,0.9981,1.062,1.1102,1.1443,1.2193,1.2667,1.2921,1.3599,1.4232,1.4853,1.5325,1.5881,1.6558,1.6649,1.6798,1.6947,1.7217,1.6637,0.0,0.0,1.5509,1.5437,1.5535,1.5384,1.5046,1.4234,1.3983,0.0,1.3792,0.0,0.0,0.0,1.426,1.4511,1.5365,1.5127,1.4881,1.5324,1.5143,1.4832,1.4621,1.4177,1.3722,0.0,1.3618,1.3418,1.302,1.2704,1.2178,1.1448,1.159,1.1865,1.2189,1.2369,1.2481,1.2529,1.2525,1.2421,1.211,1.2005,1.1678,1.1021,1.1021,1.0802,1.0366,1.0147,1.0029,0.9801,0.9585,0.9368,0.9147,0.892,0.8589,0.8367,0.8039,0.7928,0.7928,0.7817,0.7598,0.749,0.7268,0.716,0.716,0.8042,0.8374,0.8374,0.0,0.0,0.0,0.0748,0.0648,0.0495,-0.0015,-0.0313,-0.0754,-0.1567,-0.1757,-0.1981,-0.2519,-0.2154,-0.1744,-0.1374,-0.0766,-0.017,0.0425,0.0922,0.1515,0.2381,0.2901,0.3695,0.4822,0.5422,0.6311,0.7646,0.8226,0.8835,0.9635,1.0095,1.0538,1.0972,1.1472,1.1944,1.2252,1.287,1.3454,1.4016,1.4466,1.5026,1.5656,1.5549,1.5365,1.529,1.5699,1.5296,0.0,0.0,1.4026,1.3998,1.3998,1.3937,1.3771,1.3429,1.3561,1.3932,1.4221,0.0,0.0,1.4187,1.4738,1.5164,1.4653,1.471,1.4763,1.4843,1.4611,1.4266,1.3919,1.3409,1.2991,1.2894,1.2873,1.2709,1.2404,1.1949,1.1377,1.0646,1.0491,1.052,1.1005,1.1425,1.1642,1.1801,1.1663,1.1465,1.1122,1.1021,1.0582,0.9812,0.9702,0.9375,0.8937,0.8823,0.8709,0.8478,0.826,0.8039,0.7928,0.7479,0.7257,0.7041,0.693,0.6821,0.6821,0.6935,0.6824,0.6604,0.6604,0.6495,0.6386,0.7271,0.7601,0.7601,0.0,0.0,0.0,0.0,0.0643,0.0448,-0.0023,-0.0545,-0.1125,-0.1794,-0.2114,-0.2337,-0.249,-0.1977,-0.1626,-0.1677,-0.1064,-0.0477,0.0094,0.053,0.1174,0.1865,0.2454,0.3224,0.4212,0.483,0.5607,0.6662,0.7504,0.8216,0.8876,0.9409,1.0075,1.0724,1.0891,1.1376,1.2012,1.2625,1.3097,1.3452,1.405,1.4459,1.4681,1.4182,1.3606,1.326,1.4795,0.0,0.0,1.3378,1.3171,1.3025,1.287,1.3086,0.0,1.3524,1.3345,1.3122,0.0,0.0,1.3424,1.4199,1.4151,1.4069,1.4676,1.4481,1.4075,1.3628,1.3147,1.2703,1.2026,1.1802,1.1647,1.138,1.1776,1.1802,1.1299,1.0825,1.0334,0.9853,0.9485,0.9173,0.0,1.0078,1.0676,1.0672,1.0322,0.9962,0.9915,0.9596,0.9154,0.8595,0.8263,0.7937,0.7607,0.7379,0.7265,0.7265,0.7265,0.6932,0.6374,0.5706,0.5596,0.5822,0.5822,0.5822,0.5822,0.6161,0.6274,0.6274,0.6274,0.6274,0.6274,0.6386,0.6495,0.6712,0.0,0.0,0.0,0.0,0.0,0.0913,0.0264,-0.0175,-0.0809,-0.184,-0.228,0.0,0.0,0.0,0.0,0.0,-0.0969,-0.0495,-0.0042,0.0285,0.0735,0.1365,0.1899,0.2607,0.3454,0.4223,0.5183,0.6177,0.6951,0.7559,0.8147,0.8604,0.902,0.94,0.9696,1.0211,1.0803,1.1228,1.1749,1.2283,1.256,1.2893,1.3294,1.2956,1.239,1.1889,0.0,0.0,0.0,1.1323,1.1343,1.1422,1.1646,1.1768,1.2022,1.2819,1.2685,1.2476,0.0,0.0,1.3542,1.4186,1.3976,1.3603,1.3694,1.3176,1.2841,1.2752,1.2081,1.1353,1.1096,1.0965,1.0726,1.0189,1.0477,1.0649,1.019,0.9859,0.951,0.9115,0.8944,0.0,0.0,0.0,0.0,0.9495,0.8948,0.8665,0.8585,0.8374,0.8039,0.7598,0.7487,0.7265,0.671,0.6599,0.6374,0.604,0.5819,0.5485,0.5148,0.4925,0.4927,0.5152,0.5039,0.5041,0.5152,0.5152,0.5264,0.5377,0.5377,0.5491,0.5717,0.5491,0.5599,0.5931,0.0,0.0,0.0,0.0,0.0,0.0,0.0,0.0,0.0,0.0,0.0,0.0,0.0,0.0,0.0,0.0,0.0,-0.0755,-0.0378,-0.0042,0.0325,0.0802,0.1313,0.1913,0.2601,0.3451,0.4397,0.5456,0.6143,0.6839,0.7394,0.7817,0.8135,0.8422,0.869,0.9094,0.9576,0.9982,1.0451,1.0987,1.1087,1.1341,1.1601,1.1203,1.0663,0.0,0.0,0.0,0.9363,0.9701,1.0026,1.036,1.0608,1.0965,1.1457,1.2065,1.2155,1.2398,0.0,1.3808,1.3368,1.3844,1.3549,1.3074,1.2786,1.2263,1.1775,1.1615,1.0865,1.0168,0.9838,0.9667,0.9388,0.8935,0.9129,0.9357,0.919,0.8845,0.8474,0.8354,0.8172,0.7918,0.0,0.0,0.0,0.837,0.7928,0.7633,0.752,0.7238,0.7041,0.671,0.6487,0.6154,0.5819,0.5706,0.5483,0.5037,0.4706,0.4594,0.448,0.4257,0.437,0.4596,0.437,0.437,0.4597,0.4511,0.4616,0.4707,0.4736,0.4955,0.5043,0.4817,0.4927,0.5148,0.0,0.0,0.0,0.0,0.0,0.0,0.0,0.0,0.0,0.0,0.0,0.0,0.0,0.0,0.0,0.0,0.0,0.0,-0.0814,-0.0416,0.0,0.0266,0.0758,0.1229,0.1756,0.2509,0.337,0.4381,0.5191,0.5977,0.6661,0.6971,0.733,0.7733,0.7926,0.8238,0.8548,0.9058,0.9413,0.9579,0.9809,0.9862,0.9836,0.9048,0.0,0.0,0.0,0.0,0.0,0.855,0.0,0.987,0.993,1.0816,1.1707,1.1409,1.1901,1.2607,1.3333,1.3226,1.2964,1.3257,1.2974,1.2468,1.2012,1.1576,1.0894,1.0116,0.9443,0.8875,0.0,0.0,0.7795,0.7579,0.7812,0.8106,0.8225,0.7717,0.7427,0.0,0.0,0.0,0.0,0.0,0.0,0.7331,0.0,0.6956,0.6544,0.632,0.6042,0.571,0.5152,0.4819,0.4817,0.4592,0.448,0.448,0.4147,0.4147,0.4369,0.3811,0.3699,0.3924,0.3924,0.3924,0.393,0.4334,0.455,0.4492,0.4565,0.455,0.4485,0.448,0.448,0.4592,0.0,0.0,0.0,0.0,0.0,0.0,0.0,0.0,0.0,0.0,0.0,0.0,0.0,0.0,0.0,0.0,0.0,0.0,-0.0585,-0.052,0.0,0.0,0.0,0.0,0.0,0.0,0.0,0.3818,0.4465,0.5071,0.5635,0.5843,0.616,0.6644,0.6934,0.727,0.765,0.7813,0.8293,0.8834,0.0,0.8373,0.8553,0.0,0.0,0.0,0.0,0.0,0.0,0.0,0.0,0.0,0.0,1.1056,1.1574,1.1682,1.1965,1.2463,1.3099,1.3003,1.2777,1.3149,1.2247,1.1287,1.125,1.019,0.9181,0.8972,0.8074,0.7235,0.0,0.0,0.0,0.6771,0.7066,0.0,0.7359,0.723,0.0,0.694,0.0,0.6765,0.6203,0.5974,0.0,0.0,0.5622,0.5495,0.5109,0.5025,0.4704,0.4147,0.426,0.4035,0.3585,0.3473,0.3473,0.3473,0.3362,0.3251,0.3141,0.303,0.3029,0.3362,0.3141,0.3141,0.3367,0.3537,0.3668,0.3885,0.4131,0.4356,0.4559,0.4279,0.4148,0.4148,0.0,0.0,0.0,0.0,0.0,0.0,0.0,0.0,0.0,0.0,0.0,0.0,0.0,0.0,0.0,0.0,0.0,0.0,0.0,-0.052,0.0,0.0,0.0,0.0,0.0,0.0,0.0,0.0,0.0,0.0,0.461,0.4995,0.5316,0.5533,0.5873,0.6214,0.6493,0.6656,0.0,0.0,0.0,0.0,0.0,0.0,0.0,0.0,0.0,0.0,0.0,0.0,0.0,1.0696,1.0911,1.1283,1.1727,1.1939,0.0,1.2373,1.2817,1.2825,1.2597,1.263,1.1717,1.0726,1.0265,0.927,0.8229,0.7626,0.6838,0.0,0.6075,0.6014,0.0,0.0,0.0,0.0,0.6711,0.6675,0.6591,0.0,0.654,0.0,0.5677,0.5521,0.5277,0.0,0.4704,0.4525,0.4205,0.4016,0.3696,0.3362,0.3365,0.3253,0.2915,0.2893,0.2783,0.269,0.269,0.2579,0.2356,0.2356,0.2468,0.2691,0.0,0.2692,0.2919,0.2968,0.3103,0.3334,0.3564,0.3809,0.4053,0.3846,0.383,0.3852,0.0,0.0,0.0,0.0,0.0,0.0,0.0,0.0,0.0,0.0,-0.1472,0.0,0.0,0.0,0.0,0.0,0.0,0.0,0.0,0.0,0.0,0.0,0.0,0.0,0.0,0.0,0.0,0.0,0.0,0.0,0.0,0.0,0.0,0.0,0.0,0.0,0.0,0.0,0.0,0.0,0.0,0.0,0.0,0.0,0.0,0.0,0.0,0.0,0.0,0.0,0.9549,1.0568,1.1044,1.1443,1.1834,1.2085,1.2135,1.2227,1.2547,1.2487,1.2262,1.1945,1.1269,1.0459,0.9306,0.8501,0.763,0.6406,0.0,0.5286,0.5178,0.5067,0.5043,0.5077,0.0,0.5861,0.6125,0.5989,0.5917,0.6361,0.5992,0.5525,0.5098,0.5002,0.4616,0.3941,0.3886,0.3879,0.3726,0.3337,0.3026,0.3026,0.2686,0.2575,0.2581,0.2538,0.2428,0.2132,0.2132,0.202,0.1683,0.1683,0.1795,0.2132,0.2132,0.2244,0.2585,0.2746,0.2768,0.2655,0.3114,0.3255,0.3284,0.3518,0.3621,0.3658,0.0,0.0,0.0,0.0,0.0,0.0,0.0,0.0,0.0,0.0,-0.2301,-0.1957,0.0,0.0,0.0,0.0,0.0,0.0,0.0,0.0,0.0,0.0,0.0,0.0,0.0,0.0,0.0,0.0,0.0,0.0,0.0,0.0,0.0,0.0,0.0,0.0,0.0,0.0,0.0,0.0,0.0,0.0,0.0,0.0,0.0,0.0,0.0,0.0,0.0,0.0,0.9223,1.038,1.0827,1.1076,1.1295,1.1605,1.1721,1.1793,1.2095,1.1921,1.1643,1.1471,1.0655,0.958,0.8822,0.7602,0.0,0.0,0.4809,0.4342,0.4338,0.4381,0.4494,0.4706,0.4888,0.0,0.0,0.0,0.5334,0.0,0.0,0.0,0.0,0.0,0.0,0.0,0.3187,0.2853,0.2902,0.2801,0.2692,0.2355,0.2103,0.2101,0.2244,0.2317,0.2096,0.1907,0.1907,0.1683,0.1346,0.1121,0.1346,0.1907,0.157,0.0,0.2024,0.2319,0.2464,0.2465,0.3049,0.3289,0.3284,0.3518,0.3594,0.3601,0.0,0.0,0.0,0.0,0.0,0.0,0.0,0.0415,-0.02,-0.1479,-0.0544,-0.0255,-0.1572,-0.1166,-0.0599,0.0,0.0,0.0,0.0,0.0,0.0,0.0,0.0,0.0,0.0,0.0,0.0,0.0,0.0,0.0,0.0,0.0,0.0,0.0,0.0,0.0,0.0,0.0,0.0,0.0,0.0,0.0,0.0,0.0,0.0,0.0,0.0,0.0,0.0,0.0,0.7879,0.8995,1.0043,1.0801,1.1169,1.1213,1.1293,1.1484,1.1618,1.1477,1.1199,1.0891,1.0159,0.9096,0.797,0.0,0.0,0.0,0.4174,0.3828,0.3739,0.3839,0.0,0.3993,0.429,0.0,0.0,0.0,0.0,0.0,0.0,0.0,0.0,0.0,0.0,0.3095,0.2659,0.2448,0.2468,0.2356,0.2132,0.202,0.1876,0.1874,0.2019,0.1986,0.1875,0.157,0.1346,0.1121,0.0785,0.0673,0.0897,0.1346,0.1346,0.0,0.1798,0.1959,0.2095,0.2095,0.2793,0.3039,0.3048,0.3518,0.3627,0.3673,0.0,0.0,0.0,0.0,0.0,0.0,0.0,0.1288,0.0825,-0.0078,0.1564,0.1767,-0.0962,-0.0525,0.0056,0.0,0.0,0.0,0.0,0.0,0.0,0.0,0.0,0.0,0.0,0.0,0.0,0.0,0.0,0.0,0.0,0.0,0.0,0.0,0.0,0.0,0.0,0.0,0.0,0.0,0.0,0.0,0.0,0.0,0.0,0.0,0.0,0.0,0.0,0.0,0.6579,0.7443,0.8854,0.993,1.0721,1.0667,1.0886,1.1155,1.1225,1.1033,1.0726,1.0423,0.9679,0.8635,0.7144,0.625,0.0,0.0,0.3723,0.3465,0.3387,0.0,0.3479,0.0,0.3708,0.403,0.0,0.0,0.0,0.0,0.0,0.0,0.0,0.0,0.0,0.2516,0.2223,0.2132,0.2132,0.19,0.1785,0.1785,0.1756,0.1755,0.1785,0.1761,0.1654,0.1346,0.1121,0.0897,0.0561,0.0561,0.0673,0.1121,0.1234,0.0,0.0,0.1835,0.1847,0.1956,0.254,0.279,0.2917,0.34,0.3649,0.3717,0.0,0.0,0.0,0.0,0.0,0.0,0.0,0.3127,0.2719,0.1312,0.2512,0.2973,0.1595,0.1847,0.1698,0.0,0.0,0.0,0.0,0.0,0.0,0.0,0.0,0.0,0.0,0.0,0.0,0.0,0.0,0.0,0.0,0.0,0.0,0.0,0.0,0.0,0.0,0.0,0.0,0.0,0.0,0.0,0.0,0.0,0.0,0.0,0.0,0.0,0.0,0.0,0.0,0.646,0.6931,0.7891,0.8991,0.978,0.0,0.0,1.0921,1.0833,1.0513,1.0119,0.9192,0.7957,0.6792,0.0,0.0,0.3969,0.3419,0.3149,0.3354,0.3217,0.0,0.0,0.0,0.3261,0.0,0.0,0.0,0.0,0.0,0.0,0.0,0.0,0.0,0.2297,0.2001,0.1795,0.1795,0.1769,0.1754,0.1754,0.1724,0.1723,0.1753,0.1751,0.1654,0.1346,0.1234,0.1234,0.1234,0.1009,0.1121,0.1683,0.1458,0.0,0.0,0.1857,0.1982,0.2304,0.2687,0.2913,0.3217,0.3499,0.3594,0.3602,0.0,0.0,0.0,0.0,0.0,0.0,0.4242,0.4788,0.4791,0.3673,0.5546,0.6024,0.3569,0.4197,0.3917,0.1694,0.0,0.0,0.0,0.0,0.0,0.0,0.0,0.0,0.0,0.0,0.0,0.4119,0.4006,0.0,0.0,0.0,0.0,0.0,0.0,0.0,0.0,0.0,0.0,0.0,0.0,0.0,0.0,0.0,0.0,0.0,0.0,0.0,0.0,0.0,0.0,0.0,0.6121,0.6783,0.0,0.0,0.9537,1.0095,1.0295,1.0362,1.0213,0.9285,0.853,0.7612,0.6168,0.0,0.444,0.3832,0.3388,0.3141,0.3149,0.2978,0.2858,0.0,0.0,0.0,0.2917,0.0,0.0,0.0,0.0,0.0,0.0,0.0,0.2197,0.1997,0.1676,0.1563,0.1769,0.1756,0.175,0.175,0.172,0.1719,0.1749,0.175,0.1765,0.157,0.1346,0.1346,0.1346,0.1234,0.1234,0.1458,0.157,0.0,0.0,0.2071,0.2186,0.227,0.2882,0.3121,0.3211,0.3496,0.3634,0.3685,0.0,0.0,0.0,0.0,0.0,0.4339,0.5198,0.5778,0.6067,0.5907,0.7464,0.7757,0.5577,0.5656,0.51,0.321,0.2147,0.0,0.0,0.0,0.0,0.0,0.0,0.0,0.0,0.0,0.4565,0.4863,0.4871,0.5089,0.0,0.0,0.0,0.0,0.0,0.0,0.0,0.0,0.0,0.0,0.0,0.0,0.0,0.0,0.0,0.0,0.0,0.0,0.0,0.0,0.0,0.0,0.0,0.0,0.0,0.0,0.8766,0.9443,0.9536,0.9656,0.9534,0.8599,0.7928,0.716,0.0,0.0,0.4243,0.3644,0.3306,0.3126,0.2993,0.2818,0.2703,0.2647,0.2372,0.2229,0.2426,0.2318,0.0,0.0,0.0,0.22,0.0,0.1909,0.1863,0.1792,0.1458,0.1451,0.1764,0.1746,0.1733,0.1724,0.1703,0.1702,0.1723,0.1741,0.1761,0.1782,0.1567,0.1458,0.1458,0.1458,0.1458,0.1458,0.1683,0.0,0.0,0.2171,0.2392,0.2473,0.2985,0.3231,0.333,0.3422,0.3569,0.373,0.0,0.0,0.0,0.0,0.0,0.0,0.5904,0.5865,0.6247,0.7771,0.7484,0.7295,0.7708,0.5884,0.4785,0.5223,0.3988,0.0,0.0,0.0,0.0,0.0,0.0,0.0,0.0,0.0,0.5584,0.5989,0.6315,0.6603,0.6876,0.6533,0.6379,0.0,0.0,0.0,0.0,0.0,0.0,0.0,0.0,0.0,0.0,0.0,0.0,0.0,0.0,0.0,0.0,0.0,0.0,0.0,0.0,0.0,0.6204,0.0,0.8039,0.8565,0.8689,0.8599,0.8441,0.8427,0.7451,0.6351,0.0,0.0,0.3968,0.3485,0.317,0.2993,0.2912,0.2776,0.2632,0.2362,0.223,0.0,0.2109,0.2093,0.0,0.0,0.0,0.1828,0.1667,0.1448,0.1407,0.1791,0.1458,0.0,0.1795,0.1737,0.1692,0.1664,0.1663,0.1663,0.1663,0.172,0.175,0.175,0.178,0.1795,0.1795,0.1795,0.1795,0.1795,0.0,0.0,0.0,0.2285,0.2619,0.3148,0.3254,0.3498,0.3685,0.3393,0.3496,0.3679,0.0,0.0,0.0,0.0,0.0,0.0,0.0,0.6571,0.7518,0.7466,0.7754,0.7975,0.7936,0.639,0.548,0.5809,0.4183,0.0,0.0,0.0,0.0,0.0,0.0,0.0,0.0,0.0,0.6607,0.6415,0.6651,0.6825,0.6903,0.689,0.6812,0.6668,0.6307,0.0,0.0,0.0,0.0,0.0,0.0,0.0,0.0,0.0,0.0,0.0,0.0,0.0,0.0,0.0,0.0,0.0,0.0,0.0,0.0,0.629,0.6912,0.7572,0.749,0.7499,0.7337,0.6701,0.5961,0.5228,0.468,0.0,0.337,0.3286,0.3184,0.3061,0.2804,0.2732,0.2658,0.2515,0.2239,0.0,0.0,0.0,0.0,0.1563,0.1627,0.1639,0.0,0.0,0.1299,0.1454,0.1009,0.0888,0.1411,0.118,0.1276,0.1691,0.1652,0.1641,0.1662,0.1681,0.171,0.175,0.1759,0.1775,0.1795,0.1795,0.1795,0.0,0.0,0.0,0.0,0.2144,0.248,0.2808,0.3062,0.3222,0.3382,0.3209,0.3108,0.3145,0.0,0.0,0.0,0.0,0.0,0.0,0.0,0.6306,0.7126,0.6918,0.7044,0.726,0.7547,0.6494,0.5989,0.6541,0.5464,0.0,0.0,0.0,0.0,0.0,0.0,0.0,0.5746,0.6802,0.7468,0.7652,0.793,0.8093,0.8138,0.8038,0.7787,0.7344,0.69,0.6655,0.0,0.0,0.0,0.0,0.0,0.0,0.6141,0.0,0.0,0.0,0.0,0.0,0.0,0.0,0.0,0.0,0.0,0.0,0.0,0.0,0.6042,0.6527,0.0,0.6474,0.6311,0.5737,0.5217,0.0,0.0,0.0,0.3155,0.3147,0.3113,0.3097,0.2926,0.2818,0.2699,0.2493,0.2124,0.0,0.0,0.0,0.0,0.1408,0.0,0.0,0.0,0.1169,0.1072,0.1441,0.0773,0.0654,0.1388,0.1166,0.1161,0.1688,0.1642,0.1626,0.1645,0.1656,0.168,0.1717,0.1727,0.1742,0.1761,0.1773,0.1778,0.0,0.0,0.0,0.0,0.2132,0.2357,0.2695,0.2935,0.299,0.3056,0.2896,0.2918,0.3077,0.0,0.0,0.0,0.0,0.0,0.0,0.0,0.5438,0.5666,0.6285,0.5651,0.558,0.6701,0.6259,0.6264,0.7221,0.7413,0.0,0.0,0.0,0.0,0.0,0.0,0.0,0.6345,0.7152,0.8182,0.945,0.9828,1.0092,1.0253,0.9791,0.9148,0.8322,0.7497,0.7085,0.701,0.6887,0.6824,0.6787,0.6465,0.6441,0.0,0.0,0.0,0.0,0.0,0.0,0.0,0.0,0.0,0.0,0.0,0.0,0.0,0.0,0.0,0.0,0.0,0.547,0.5316,0.5299,0.5002,0.4542,0.3915,0.0,0.0,0.3022,0.2994,0.3043,0.3158,0.3049,0.2781,0.2309,0.0,0.0,0.0,0.1436,0.0,0.0,0.1231,0.0,0.1654,0.0935,0.0843,0.1633,0.0861,0.0746,0.1595,0.1362,0.135,0.1659,0.1632,0.1617,0.1617,0.1645,0.166,0.1662,0.1689,0.1702,0.1705,0.1733,0.1748,0.0,0.0,0.0,0.0,0.2132,0.2356,0.2698,0.2736,0.278,0.2708,0.2506,0.2761,0.3238,0.0,0.0,0.0,0.0,0.0,0.0,0.0,0.0,0.0,0.0,0.5764,0.5741,0.6037,0.5823,0.5854,0.0,0.0,0.0,0.0,0.0,0.0,0.0,0.0,0.0,0.6905,0.7702,0.8679,0.987,1.0015,1.0305,1.073,1.0511,0.9907,0.8972,0.8618,0.8304,0.8008,0.743,0.7497,0.792,0.6971,0.6697,0.0,0.0,0.0,0.0,0.6644,0.7132,0.0,0.0,0.0,0.0,0.0,0.0,0.0,0.0,0.5684,0.5163,0.5085,0.0,0.4351,0.407,0.3934,0.3812,0.0,0.0,0.0,0.0,0.0,0.3127,0.2992,0.3061,0.3005,0.2616,0.0,0.0,0.1677,0.0,0.0,0.098,0.1293,0.1411,0.114,0.0831,0.0839,0.1072,0.0428,0.0318,0.0732,0.0833,0.1032,0.1323,0.1519,0.1617,0.1617,0.1624,0.1639,0.1662,0.1669,0.1683,0.1705,0.1712,0.1727,0.0,0.0,0.0,0.1907,0.1907,0.202,0.2357,0.2366,0.2394,0.2427,0.2291,0.2417,0.2554,0.0,0.0,0.0,0.0,0.0,0.0,0.0,0.0,0.0,0.0,0.5984,0.5974,0.5989,0.6218,0.6588,0.0,0.0,0.0,0.0,0.0,0.0,0.0,0.0,0.641,0.6636,0.7464,0.8625,1.0141,1.0507,1.0974,1.1486,1.1254,1.0511,0.9323,0.8741,0.8379,0.8133,0.775,0.7762,0.8003,0.7313,0.0,0.0,0.0,0.0,0.0,0.6465,0.6982,0.0,0.7578,0.7986,0.8462,0.0,0.0,0.0,0.0,0.5769,0.5418,0.4944,0.4603,0.4332,0.3999,0.4124,0.4224,0.3779,0.0,0.0,0.0,0.0,0.0,0.3096,0.3239,0.0,0.0,0.2609,0.0,0.0,0.0,0.1398,0.1188,0.1307,0.1425,0.0,0.0825,0.0827,0.1263,0.0523,0.0311,0.0923,0.0718,0.0817,0.1415,0.1415,0.1516,0.1617,0.1617,0.1625,0.1641,0.1641,0.165,0.1665,0.1679,0.1694,0.0,0.0,0.0,0.1775,0.1789,0.1907,0.202,0.202,0.204,0.2068,0.205,0.218,0.2438,0.0,0.0,0.0,0.0,0.0,0.0,0.0,0.0,0.0,0.0,0.0,0.0,0.0,0.0,0.0,0.0,0.0,0.0,0.0,0.0,0.0,0.0,0.6541,0.6488,0.6702,0.7156,0.8439,1.0542,1.1239,1.1851,1.2367,1.2304,1.14,0.9801,0.8717,0.8145,0.7982,0.7956,0.787,0.7739,0.756,0.0,0.0,0.0,0.0,0.0,0.0,0.0,0.0,0.7245,0.7718,0.8381,0.7877,0.0,0.0,0.0,0.0,0.0,0.5275,0.5156,0.511,0.4625,0.4981,0.5265,0.453,0.0,0.0,0.0,0.0,0.0,0.0,0.3551,0.0,0.0,0.0,0.0,0.1912,0.1697,0.1504,0.1564,0.1398,0.0,0.155,0.0918,0.0814,0.155,0.0612,0.0505,0.1415,0.0909,0.0808,0.1516,0.1314,0.1415,0.1617,0.1617,0.1617,0.1617,0.1617,0.1617,0.1618,0.1643,0.1658,0.1665,0.0,0.0,0.1752,0.1778,0.1791,0.1795,0.1795,0.181,0.1834,0.1834,0.2081,0.2453,0.0,0.0,0.0,0.0,0.0,0.0,0.0,0.0,0.0,0.0,0.0,0.0,0.0,0.0,0.0,0.0,0.0,0.0,0.0,0.0,0.0,0.8561,0.7153,0.7335,0.936,0.8089,0.8804,1.1642,1.2178,1.267,1.316,1.4293,1.363,1.1384,0.9918,0.892,0.8309,0.8205,0.8108,0.8036,0.7882,0.0,0.0,0.0,0.0,0.0,0.0,0.0,0.0,0.7267,0.7678,0.828,0.7971,0.0,0.0,0.0,0.0,0.0,0.676,0.6987,0.6901,0.5759,0.5968,0.6325,0.5809,0.0,0.0,0.0,0.0,0.0,0.0,0.3821,0.3836,0.0,0.0,0.24,0.0,0.0,0.1598,0.1271,0.0,0.1517,0.1319,0.0911,0.091,0.1217,0.0708,0.0505,0.0909,0.101,0.1111,0.1212,0.1415,0.1516,0.1617,0.1617,0.1617,0.1617,0.1617,0.1617,0.1617,0.1622,0.1638,0.1662,0.0,0.1704,0.175,0.1755,0.1772,0.1795,0.1795,0.1797,0.1802,0.1802,0.2143,0.2714,0.0,0.0,0.0,0.0,0.0,0.0,0.0,0.0,0.0,0.0,0.0,0.0,0.0,0.0,0.0,0.0,0.0,0.0,0.0,0.0,0.9468,0.9488,0.8377,0.8252,0.9333,0.8956,0.9979,1.2484,1.3084,1.3796,1.4636,1.3933,1.2738,1.114,0.9707,0.8851,0.8488,0.8403,0.8282,0.8144,0.0,0.0,0.0,0.0,0.0,0.0,0.0,0.0,0.0,0.0,0.7206,0.78,0.7843,0.0,0.0,0.0,0.0,0.0,0.6474,0.7024,0.7521,0.6878,0.7419,0.7929,0.7132,0.0,0.0,0.0,0.0,0.0,0.0,0.0,0.4271,0.3879,0.0,0.259,0.262,0.2291,0.1989,0.0,0.0,0.1718,0.1415,0.1212,0.1111,0.1415,0.0909,0.0808,0.1212,0.1111,0.1111,0.1415,0.1415,0.1415,0.1617,0.16,0.16,0.1617,0.1617,0.1617,0.1617,0.1617,0.1624,0.1639,0.0,0.1677,0.1703,0.1719,0.1743,0.177,0.177,0.178,0.1795,0.1795,0.2132,0.2693,0.0,0.0,0.0,0.0,0.0,0.0,0.0,0.0,0.0,0.0,0.0,0.0,0.0,0.0,0.0,0.0,0.0,0.0,0.0,0.0,0.9077,0.9687,0.9568,0.9718,1.0186,1.0166,1.1275,1.3582,1.4217,1.503,1.6008,1.37,1.2057,1.0972,0.9597,0.8854,0.8624,0.8592,0.8379,0.8068,0.0,0.0,0.0,0.0,0.0,0.0,0.0,0.0,0.0,0.0,0.0,0.0,0.0,0.0,0.0,0.7644,0.7492,0.7284,0.6518,0.7015,0.7695,0.7604,0.0,0.8945,0.8387,0.0,0.0,0.0,0.0,0.0,0.0,0.4559,0.0,0.4115,0.3388,0.2914,0.2873,0.2568,0.2274,0.1895,0.1953,0.1895,0.1596,0.1302,0.1305,0.1607,0.1209,0.1111,0.1617,0.1212,0.1212,0.1617,0.1408,0.1405,0.1607,0.1576,0.158,0.1617,0.1609,0.161,0.1617,0.1617,0.1617,0.1618,0.1641,0.1656,0.1665,0.1692,0.1722,0.175,0.1757,0.1885,0.1907,0.1907,0.2132,0.2469,0.0,0.0,0.0,0.0,0.0,0.0,0.0,0.0,0.0,0.0,0.0,0.0,0.0,0.0,0.0,0.0,0.0,0.0,0.0,0.0,0.8816,0.8887,1.0382,1.2215,1.4325,1.2046,1.229,1.5316,1.58,1.6307,1.6772,1.5054,1.3445,1.1939,1.0469,0.9392,0.8691,0.8761,0.8343,0.7698,0.8314,0.0,0.0,0.0,0.0,0.0,0.0,0.0,0.0,0.0,0.0,0.0,0.0,0.0,0.934,0.9531,0.9066,0.8425,0.8182,0.7964,0.7756,0.7622,0.8032,0.0,0.95,0.8978,0.0,0.8323,0.0,0.0,0.0,0.4909,0.4319,0.415,0.3634,0.3148,0.2933,0.0,0.2413,0.1856,0.1891,0.182,0.1533,0.1363,0.1279,0.1575,0.13,0.1313,0.1617,0.1516,0.1516,0.1617,0.159,0.1575,0.1575,0.1545,0.1559,0.1616,0.1588,0.159,0.1617,0.1617,0.1617,0.1617,0.162,0.1636,0.1665,0.1692,0.1722,0.1752,0.178,0.1905,0.2132,0.2132,0.2244,0.2244,0.0,0.0,0.0,0.0,0.0,0.0,0.0,0.0,0.0,0.0,0.0,0.0,0.0,0.0,0.0,0.0,0.0,0.0,0.0,0.7722,0.8416,0.9372,1.062,1.2516,1.5169,1.436,1.5093,1.7552,1.7523,1.7107,1.6278,1.4195,1.2627,1.1545,1.0017,0.9151,0.8835,0.8858,0.8661,0.8359,0.8525,0.8318,0.0,0.0,0.0,0.0,0.0,0.0,0.0,0.0,0.7076,0.7785,0.8126,0.8854,0.9531,0.9224,0.8648,0.8047,0.7748,0.7696,0.7703,0.7532,0.0,0.0,0.0,0.0,0.0,0.0,0.8632,0.0,0.0,0.0,0.4603,0.4505,0.3926,0.3413,0.3385,0.2924,0.2501,0.213,0.198,0.1812,0.1526,0.1456,0.1473,0.1571,0.1483,0.1497,0.1615,0.1599,0.1589,0.1589,0.1577,0.1562,0.1543,0.1513,0.1528,0.1589,0.1577,0.1588,0.1617,0.1617,0.1617,0.1617,0.1617,0.1624,0.1635,0.1645,0.1678,0.1726,0.1776,0.202,0.2132,0.202,0.202,0.2132,0.0,0.0,0.0,0.0,0.0,0.0,0.0,0.0,0.0,0.0,0.0,0.0,0.0,0.0,0.0,0.0,0.0,0.0,0.7143,0.763,0.8499,0.9809,1.0924,1.267,1.5134,1.5689,1.6653,1.8075,1.7576,1.664,1.5296,1.3467,1.2141,1.13,1.0025,0.9394,0.9304,0.9088,0.8812,0.8521,0.8589,0.8396,0.0,0.0,0.0,0.0,0.0,0.0,0.0,0.0,0.7327,0.7787,0.8545,0.9202,0.9656,0.9315,0.8895,0.8362,0.7508,0.7609,0.7837,0.0,0.0,0.0,0.0,0.0,0.0,0.0,0.8875,0.0,0.0,0.0,0.0,0.0,0.4057,0.3614,0.3479,0.2907,0.2477,0.2201,0.2042,0.1778,0.1498,0.1534,0.1553,0.1543,0.1561,0.1577,0.1588,0.1568,0.1557,0.1557,0.1548,0.1533,0.1512,0.1482,0.1492,0.1543,0.1553,0.1578,0.1617,0.1617,0.1617,0.1617,0.1617,0.1617,0.1618,0.1627,0.1666,0.1724,0.1775,0.202,0.2132,0.1907,0.202,0.2132,0.0,0.0,0.0,0.0,0.0,0.0,0.0,0.0,0.8672,0.7808,0.8438,0.0,0.0,0.0,0.0,0.0,0.0,0.0,0.8982,0.8867,0.9157,0.9963,1.1402,1.2911,1.4444,1.5777,1.6474,1.6503,1.5638,1.476,1.387,1.3125,1.2327,1.1459,1.0726,1.0319,1.0151,0.9476,0.8712,0.7958,0.8494,0.8146,0.7355,0.0,0.0,0.0,0.0,0.0,0.0,0.0,0.752,0.7767,0.9751,1.0124,0.987,1.0176,1.0193,0.9663,0.7803,0.7874,0.8216,0.0,0.0,0.0,0.0,0.0,0.0,0.0,0.0,0.6878,0.6576,0.0,0.0,0.4398,0.4022,0.3676,0.3217,0.2781,0.2424,0.2243,0.1973,0.1705,0.1436,0.149,0.1513,0.1483,0.1537,0.1558,0.1528,0.1526,0.1525,0.1525,0.1496,0.148,0.148,0.1451,0.1451,0.1481,0.1511,0.1558,0.1616,0.1617,0.1617,0.1617,0.1617,0.1617,0.162,0.165,0.1697,0.1752,0.1783,0.1908,0.2132,0.1907,0.202,0.2132,0.0,0.0,0.0,0.0,0.0,0.0,0.0,0.0,0.7084,0.6813,0.7538,0.0,0.0,0.0,0.0,0.0,0.0,0.0,0.7255,0.8201,0.9137,0.9889,1.0887,1.1852,1.2725,1.3086,1.4302,1.6435,1.5648,1.4563,1.3174,1.2435,1.1629,1.0789,1.057,1.0111,0.9487,0.9279,0.8991,0.871,0.9213,0.8898,0.8184,0.0,0.0,0.0,0.0,0.0,0.0,0.0,0.0,0.0,0.9433,0.9972,1.0221,0.9358,0.9156,0.8975,0.7974,0.8298,0.0,0.0,0.0,0.0,0.0,0.0,0.0,0.0,0.0,0.7297,0.6555,0.0,0.0,0.4772,0.4321,0.3913,0.3503,0.2755,0.2232,0.211,0.1957,0.1705,0.1436,0.1677,0.1713,0.1513,0.1529,0.1545,0.1558,0.1517,0.1494,0.1494,0.1485,0.147,0.1449,0.144,0.1451,0.148,0.149,0.1526,0.1585,0.1607,0.1617,0.1617,0.1617,0.1617,0.1621,0.1671,0.1822,0.2082,0.1895,0.1795,0.1907,0.1795,0.1795,0.1907,0.0,0.0,0.0,0.0,0.0,0.0,0.0,0.0,0.6785,0.6445,0.7165,0.7577,0.0,0.0,0.0,0.0,0.0,0.0,0.0,0.8818,0.9686,1.042,1.0834,1.1352,1.1993,1.1707,1.2397,1.4177,1.3679,1.2962,1.207,1.1875,1.1509,1.099,1.1287,1.0936,1.0098,0.9739,0.953,0.9445,0.9633,0.9389,0.8931,0.0,0.0,0.0,0.0,0.0,0.0,0.0,0.0,0.0,0.9461,0.9719,0.9647,0.9187,0.9078,0.9023,0.8408,0.8952,0.0,0.9266,1.0108,1.1001,1.0813,0.0,0.0,0.0,0.0,0.7315,0.6568,0.6115,0.0,0.4862,0.4398,0.399,0.3559,0.2723,0.2205,0.2176,0.1949,0.1705,0.1615,0.1757,0.1791,0.1508,0.1508,0.1516,0.1534,0.1489,0.1463,0.1463,0.1463,0.1454,0.1436,0.1436,0.1444,0.1463,0.1487,0.1518,0.1554,0.1585,0.1605,0.1617,0.1617,0.1617,0.1622,0.168,0.1815,0.1935,0.1871,0.1777,0.1776,0.1763,0.1774,0.1793,0.0,0.0,0.7372,0.6643,0.0,0.0,0.0,0.0,0.745,0.6712,0.7253,0.7428,0.0,0.0,0.0,0.0,0.0,0.0,0.0,1.0155,1.0505,1.1171,1.1008,1.1184,1.1792,1.1127,1.075,1.0685,1.0566,1.0611,1.0804,1.1491,1.1757,1.174,1.2398,1.2204,1.1326,1.0476,1.0058,0.9983,0.9782,0.9634,0.9493,0.9263,0.0,0.0,0.0,0.0,0.0,0.0,0.0,0.0,0.9575,0.9343,0.8564,0.9273,0.9557,0.9508,0.8875,0.0,0.0,0.9895,1.0311,0.0,1.0593,0.0,0.9433,0.9028,0.0,0.6962,0.6589,0.6194,0.569,0.488,0.4453,0.407,0.3542,0.269,0.2263,0.2341,0.2035,0.1884,0.1794,0.1829,0.176,0.1577,0.1482,0.1482,0.1485,0.1453,0.1436,0.1436,0.1436,0.1436,0.1436,0.1436,0.1436,0.1436,0.1491,0.1521,0.1527,0.156,0.1591,0.1617,0.1617,0.1618,0.1625,0.1678,0.1688,0.178,0.1726,0.1747,0.1746,0.1718,0.1743,0.1787,0.0,0.0,0.757,0.7448,0.0,0.0,0.0,0.0,0.0,0.0,0.0,0.0,0.0,0.0,0.0,0.0,0.0,0.0,0.0,0.9813,1.0261,1.0427,1.0287,1.0225,1.0265,0.9516,0.9363,0.9853,0.9828,1.0149,1.0803,1.1481,1.1763,1.1718,1.1878,1.1399,1.0429,0.9713,0.9308,0.9196,0.9554,0.935,0.8847,0.9045,0.8666,0.0,0.0,0.0,0.0,0.0,0.0,0.0,0.8708,0.8685,0.846,0.796,0.841,0.8905,0.8206,0.9372,0.0,0.0,1.1211,1.1404,1.0366,0.9727,0.9228,0.8813,0.7808,0.7031,0.687,0.6166,0.5457,0.5137,0.4581,0.4028,0.3393,0.3017,0.2638,0.2381,0.2367,0.2244,0.2154,0.2103,0.205,0.1799,0.1587,0.1491,0.1515,0.1465,0.1436,0.1436,0.1436,0.1436,0.1436,0.1436,0.1436,0.1436,0.1448,0.148,0.1528,0.1582,0.1611,0.1617,0.1617,0.1732,0.196,0.1769,0.1907,0.2054,0.1826,0.1729,0.1749,0.1742,0.1748,0.1759,0.0,0.0,0.0,0.0,0.0,0.0,0.0,0.0,0.0,0.0,0.0,0.0,0.0,0.8981,0.0,0.0,1.0017,1.0052,0.9609,0.996,1.0201,1.0202,1.0106,1.001,0.99,0.8672,0.8551,0.9638,0.8847,0.9247,1.083,1.2209,1.2834,1.2796,1.2767,1.2222,1.1274,1.0141,0.9578,0.945,0.9666,0.9481,0.9097,0.9197,0.874,0.8012,0.7783,0.0,0.0,0.0,0.0,0.0,0.0,0.0,0.7899,0.7534,0.782,0.8269,0.0,0.0,0.0,1.0744,0.0,0.0,1.0188,0.9549,0.8923,0.8429,0.765,0.6993,0.6688,0.6106,0.5627,0.5194,0.4662,0.4067,0.356,0.3091,0.2804,0.2571,0.2552,0.2424,0.2334,0.2266,0.2116,0.1878,0.1569,0.1472,0.1502,0.146,0.1442,0.1457,0.1443,0.1442,0.1548,0.1442,0.1436,0.1615,0.145,0.1582,0.1743,0.1596,0.1617,0.1617,0.1617,0.1727,0.1845,0.1759,0.1776,0.1899,0.1805,0.1705,0.1707,0.1707,0.1716,0.1728,0.0,0.0,0.0,0.0,0.0,0.0,0.0,0.0,0.0,0.0,0.0,0.0,0.0,0.9201,0.9501,0.0,0.0,0.0,1.0089,1.0019,1.0049,1.0191,1.0112,1.0058,0.9979,0.8411,0.8285,0.9698,0.8306,0.8857,1.1237,1.2997,1.3924,1.4161,1.3953,1.3319,1.2276,1.0813,1.0039,0.9789,0.9662,0.9533,0.9396,0.9269,0.0,0.0,0.0,0.0,0.7653,0.8469,0.0,0.0,0.0,0.0,0.745,0.7517,0.7546,0.7772,0.0,0.0,0.9786,1.0307,1.0401,0.0,0.9937,0.9321,0.8621,0.7995,0.7383,0.6803,0.6448,0.6189,0.5806,0.5308,0.4806,0.4281,0.3865,0.3257,0.2869,0.2869,0.2658,0.2603,0.2603,0.2334,0.2082,0.1848,0.1543,0.1448,0.1479,0.1452,0.1446,0.1472,0.1448,0.1538,0.1749,0.1538,0.1525,0.1705,0.1564,0.161,0.1858,0.17,0.1617,0.1617,0.1617,0.1617,0.1619,0.1644,0.1643,0.1629,0.1672,0.1678,0.1662,0.1662,0.1677,0.1697,0.0,0.0,0.0,0.0,0.0,0.0,0.0,0.0,0.0,0.0,1.0025,1.0032,1.0047,1.0045,1.0089,1.02,1.0253,0.9968,0.9229,0.0,0.0,1.0164,1.0086,0.9982,0.9904,0.8953,0.8847,0.9698,0.9478,1.0539,0.0,0.0,0.0,1.4738,0.0,1.2947,1.1407,1.0509,0.9696,0.9032,0.8897,0.8767,0.864,0.0,0.0,0.0,0.0,0.0,0.0,0.8054,0.8321,0.0,0.0,0.0,0.783,0.737,0.7526,0.7741,0.0,0.0,0.9527,0.0,1.0313,1.0411,0.0,0.0,0.8393,0.0,0.6893,0.6616,0.6682,0.6241,0.5891,0.5653,0.5105,0.4536,0.412,0.3685,0.3299,0.3125,0.2924,0.2873,0.2873,0.2424,0.2173,0.2126,0.1725,0.1448,0.1479,0.1452,0.1437,0.1441,0.1438,0.1438,0.1441,0.1438,0.1436,0.1436,0.1493,0.1524,0.1534,0.1591,0.1718,0.1921,0.1718,0.1617,0.1617,0.1622,0.1636,0.1654,0.1636,0.1642,0.1662,0.1662,0.1665,0.1671,0.0,0.0,0.0,0.0,0.0,0.0,0.0,0.0,0.0,0.0,0.0,1.014,1.0144,1.0186,1.0191,1.0198,1.0232,0.9883,0.906,0.9004,0.9133,0.9456,0.9854,1.002,0.9965,0.8625,0.8507,0.9699,0.8748,1.0105,0.0,1.3821,1.5028,0.0,0.0,0.0,1.3712,1.1124,0.9798,0.9363,0.8854,0.9243,0.0,0.0,0.0,0.0,0.0,0.0,0.0,0.0,0.0,0.8522,0.8294,0.0,0.0,0.0,0.6856,0.0,0.7352,0.8103,0.8977,0.0,0.9604,0.9513,0.9113,0.0,0.8015,0.7289,0.6827,0.6528,0.6265,0.6144,0.5935,0.5668,0.524,0.4785,0.4283,0.3939,0.3561,0.3386,0.3187,0.305,0.305,0.2603,0.2343,0.2364,0.1895,0.1622,0.1636,0.1532,0.1443,0.146,0.1444,0.1443,0.1643,0.1444,0.1436,0.1436,0.1497,0.1622,0.1719,0.1788,0.1819,0.1819,0.1617,0.1617,0.1617,0.1617,0.1625,0.1637,0.1641,0.164,0.1639,0.1656,0.1652,0.1641,0.0,0.0,0.0,0.0,0.0,0.0,0.0,0.0,0.0,0.0,0.0,1.0067,1.0072,0.0,0.0,0.0,1.0169,0.9834,0.9023,0.8961,0.8926,0.8896,0.9636,1.002,0.9954,0.8635,0.8514,0.9647,0.8519,0.9988,1.3868,1.4413,1.6161,0.0,1.6784,0.0,0.0,0.0,0.0,0.0,0.0,1.0318,0.0,0.0,0.0,0.0,0.0,0.0,0.0,0.0,0.0,0.0,0.0,0.0,0.0,0.0,0.0,0.0,0.0,0.0,0.8144,0.8818,0.8694,0.8449,0.0,0.0,0.7489,0.0,0.6827,0.6409,0.5941,0.6089,0.6131,0.5644,0.5419,0.5083,0.4518,0.4136,0.3828,0.3587,0.3462,0.3317,0.3227,0.2871,0.2602,0.2513,0.2154,0.1879,0.187,0.1602,0.152,0.1536,0.1431,0.1524,0.173,0.1532,0.1436,0.1436,0.1489,0.1614,0.1815,0.1878,0.1811,0.1617,0.1718,0.1617,0.1617,0.1617,0.1617,0.1619,0.1642,0.1637,0.162,0.1642,0.1637,0.1621,0.0,0.0,0.0,0.0,0.0,0.0,0.0,0.0,0.0,0.0,0.0,1.0001,1.0015,1.0014,1.0008,1.0012,1.008,0.9765,0.8955,0.8853,0.8836,0.8898,0.9558,0.0,0.9812,0.9588,0.9486,0.9514,0.9875,1.1302,1.3726,1.4127,1.626,1.9706,1.9134,1.6804,1.3326,0.0,0.0,0.0,1.1545,1.1963,0.0,0.0,0.0,0.0,0.0,0.0,0.0,0.0,0.0,0.0,0.0,0.0,0.825,0.0,0.0,0.0,0.0,0.6938,0.0,0.758,0.0,0.0,0.0,0.0,0.0,0.6817,0.6674,0.6409,0.5715,0.6173,0.644,0.5782,0.58,0.5662,0.5068,0.4476,0.411,0.3931,0.3674,0.3497,0.3227,0.3047,0.278,0.2513,0.2334,0.2135,0.2091,0.1915,0.1725,0.1691,0.1464,0.1393,0.1395,0.1422,0.1436,0.1436,0.1468,0.1498,0.1527,0.156,0.159,0.1617,0.1819,0.1819,0.1617,0.1617,0.1617,0.1617,0.1619,0.1618,0.1617,0.1619,0.1618,0.1621,0.0,0.0,0.0,0.0,0.0,0.0,0.0,0.0,0.0,0.0,0.0,0.0,0.0,0.9908,0.9941,0.9933,0.9533,0.9153,0.8847,0.8807,0.8799,0.8773,0.9455,0.9794,0.9743,0.9006,0.8858,0.9296,0.8788,0.987,1.2438,1.286,1.4196,1.6217,1.6514,1.6385,1.574,1.3295,0.0,0.0,1.2091,1.3508,0.0,0.0,0.0,0.0,0.0,0.0,0.0,0.0,0.0,0.0,0.0,0.9629,0.889,0.7849,0.0,0.0,0.0,0.0,0.0,0.7333,0.7335,0.7316,0.7203,0.7089,0.688,0.6543,0.6531,0.6409,0.5864,0.6102,0.6182,0.5607,0.5504,0.5355,0.5134,0.4555,0.4174,0.4126,0.384,0.3635,0.3598,0.3296,0.3114,0.2897,0.2603,0.2403,0.2213,0.2042,0.1949,0.1934,0.1718,0.1574,0.1685,0.1787,0.1807,0.1648,0.166,0.1601,0.1555,0.1956,0.1884,0.1617,0.2222,0.2121,0.1617,0.1617,0.1617,0.1617,0.1617,0.1617,0.1617,0.1617,0.1617,0.1618,0.0,0.0,0.0,0.0,0.0,0.9673,0.9725,0.981,0.9863,0.0,0.0,0.0,0.0,0.0,1.0536,1.027,0.9797,0.9272,0.8739,0.8982,0.8978,0.8644,0.9326,0.9644,0.953,0.8744,0.8526,0.8936,0.8347,0.9127,0.0,1.1603,1.2623,1.4019,1.3871,1.4697,0.0,0.0,0.0,1.312,0.0,1.4975,1.7233,0.0,0.0,0.0,0.0,0.0,0.0,0.0,0.0,0.0,0.0,0.9995,0.885,0.7721,0.0,0.0,0.0,0.0,0.0,0.0,0.0,0.6655,0.6828,0.0,0.6481,0.6288,0.6446,0.6481,0.6023,0.6067,0.6054,0.5536,0.5473,0.5487,0.5113,0.4726,0.4437,0.4272,0.4078,0.3886,0.3776,0.356,0.3296,0.3089,0.2883,0.0,0.2413,0.2244,0.2078,0.1994,0.1855,0.181,0.1864,0.2043,0.2064,0.1924,0.1832,0.1778,0.1751,0.193,0.1959,0.1717,0.2207,0.2108,0.1617,0.1718,0.1718,0.1617,0.1617,0.1617,0.1617,0.1617,0.1624,0.163,0.0,0.0,0.9236,0.9366,0.949,0.9599,0.9611,0.9721,0.9787,0.9758,0.0,0.0,0.0,0.0,0.0,1.1012,1.0924,1.0249,0.8662,0.9339,0.9412,0.855,0.9135,0.9394,0.9193,0.8921,0.8648,0.8395,0.8767,0.9295,0.9972,0.0,1.168,1.3501,1.1589,1.1878,1.3824,0.0,1.4587,1.4006,0.0,1.626,1.7242,0.0,0.0,0.0,1.9797,1.9427,0.0,1.6848,0.0,0.0,0.0,0.9967,0.8108,0.0,0.0,0.0,0.0,0.0,0.0,0.0,0.0,0.0,0.6634,0.0,0.5826,0.605,0.6346,0.6459,0.6101,0.6156,0.6152,0.5568,0.5969,0.6011,0.5136,0.5035,0.4863,0.436,0.4274,0.411,0.3781,0.3695,0.3528,0.3026,0.3025,0.2911,0.2602,0.2436,0.2192,0.1949,0.1949,0.1992,0.2083,0.2085,0.2109,0.2243,0.1974,0.1834,0.1907,0.1682,0.1722,0.2018,0.1784,0.159,0.1617,0.1921,0.1819,0.1617,0.1617,0.1617,0.1617,0.1617,0.1636,0.1656,0.0,0.8946,0.8983,0.9036,0.9154,0.9409,0.9956,0.9726,0.9906,0.0,0.0,0.0,0.0,0.0,0.0,1.2222,1.1676,1.0962,1.0086,0.9651,0.931,0.9025,0.9043,0.9005,0.8835,0.8575,0.8313,0.8044,0.7946,0.8218,0.0,0.0,0.0,0.0,1.0098,1.0085,1.0592,1.0922,0.0,0.0,1.3529,1.5538,0.0,0.0,0.0,0.0,0.0,2.0939,2.0444,0.0,1.768,1.5676,0.0,0.0,0.0,0.0,0.0,0.0,0.7331,0.0,0.0,0.0,0.0,0.0,0.6057,0.5733,0.5486,0.5811,0.5978,0.6062,0.6184,0.6377,0.6268,0.5836,0.5671,0.55,0.5398,0.5007,0.4743,0.4742,0.4426,0.4209,0.4191,0.3973,0.3691,0.0,0.3233,0.2954,0.2774,0.2535,0.2315,0.2112,0.2275,0.2391,0.2206,0.2501,0.2549,0.2424,0.2154,0.2018,0.1907,0.1992,0.2021,0.1982,0.2496,0.2412,0.1921,0.1718,0.1617,0.1617,0.1617,0.1617,0.1617,0.1617,0.1724,0.1934,0.9014,0.8931,0.8856,0.9146,0.9327,0.9772,1.0749,1.044,1.0511,0.0,0.0,0.0,0.0,0.0,0.0,0.0,1.2483,1.1703,1.0381,0.9823,0.9401,0.9042,0.8861,0.8693,0.8502,0.8264,0.7952,0.7562,0.7362,0.0,0.0,0.0,0.0,0.0,0.8186,0.8311,0.0,0.0,0.0,0.0,1.3457,0.0,0.0,1.8645,1.984,0.0,0.0,0.0,2.1186,2.0481,1.8692,0.0,0.0,0.0,0.0,0.0,0.0,0.0,0.0,0.0,0.0,0.0,0.0,0.0,0.6217,0.5827,0.5554,0.0,0.5917,0.5974,0.612,0.6215,0.631,0.6069,0.5695,0.5437,0.5416,0.5097,0.4872,0.4781,0.4546,0.4326,0.4218,0.3976,0.3762,0.3443,0.3243,0.2984,0.2826,0.2668,0.2606,0.2481,0.2564,0.2593,0.2404,0.2606,0.2665,0.248,0.2215,0.2083,0.2073,0.2073,0.22,0.2357,0.268,0.2707,0.2323,0.202,0.1818,0.1617,0.1617,0.1617,0.1617,0.1617,0.1827,0.2041,0.0,0.9108,0.8971,0.9551,0.9812,1.0389,1.1729,1.1474,1.1414,0.0,0.0,0.0,0.0,0.0,0.0,0.0,1.3391,1.2389,1.0294,0.9938,0.948,0.8756,0.8649,0.8469,0.8212,0.8063,0.7689,0.0,0.0,0.0,0.0,0.0,0.0,0.0,0.6229,0.6683,0.0,0.0,0.0,1.0594,1.384,1.529,0.0,0.0,1.9296,1.9321,2.0357,2.108,2.1407,2.0784,1.9072,0.0,0.0,0.0,0.0,0.0,1.06,0.0,0.0,0.0,0.0,0.0,0.0,0.0,0.6801,0.6352,0.5896,0.5777,0.5952,0.6057,0.5925,0.5995,0.6115,0.619,0.5966,0.5607,0.5378,0.5272,0.5025,0.4622,0.4553,0.4477,0.398,0.3826,0.3618,0.3141,0.3062,0.2982,0.2826,0.2747,0.2747,0.2826,0.2747,0.2695,0.2591,0.2598,0.2492,0.2425,0.2257,0.2131,0.2215,0.2039,0.2272,0.2738,0.2548,0.2578,0.2825,0.2517,0.2116,0.1718,0.1718,0.1718,0.1617,0.1718,0.1836,0.2063,1.0095,1.0049,0.9986,0.9996,1.0078,1.0585,1.1929,1.1701,1.2038,1.4011,0.0,0.0,0.0,0.0,0.0,0.0,0.0,1.2774,1.1885,1.0159,0.8888,0.8272,0.8424,0.8443,0.8278,0.8401,0.8108,0.0,0.0,0.0,0.0,0.0,0.0,0.0,0.552,0.5664,0.0,0.0,0.0,0.9178,1.05,0.0,1.6041,1.6905,1.7947,1.9014,1.9588,2.0171,2.0772,2.0976,2.0051,1.8461,0.0,0.0,0.0,0.0,0.0,0.0,0.0,0.0,0.0,0.0,0.0,0.0,0.6866,0.6361,0.6107,0.5631,0.5488,0.552,0.5689,0.5762,0.5769,0.5806,0.5745,0.5644,0.5523,0.5512,0.5272,0.4869,0.4702,0.4554,0.4225,0.4042,0.3762,0.3454,0.3059,0.2826,0.2826,0.2668,0.2668,0.2826,0.2668,0.2516,0.2527,0.2576,0.2473,0.2286,0.2327,0.2291,0.217,0.2427,0.2568,0.2684,0.2923,0.2876,0.2822,0.268,0.2488,0.222,0.222,0.212,0.192,0.212,0.2326,0.2332,1.0525,1.0325,1.0147,1.0279,1.038,1.1,1.2689,1.2408,1.2792,1.5043,0.0,0.0,0.0,0.0,0.0,0.0,0.0,0.0,0.0,0.0,0.9629,0.8693,0.8646,0.8539,0.8311,0.8403,0.8021,0.0,0.0,0.0,0.0,0.0,0.0,0.0,0.0,0.0,0.0,0.0,0.7366,0.8325,1.0526,0.0,1.4982,1.6325,1.7197,1.7873,1.8298,1.9005,1.9785,1.993,1.9626,0.0,0.0,1.6173,1.5598,0.0,1.333,1.3516,0.0,0.0,0.0,1.059,0.0,0.0,0.0,0.693,0.6475,0.6228,0.5877,0.5648,0.5753,0.5758,0.5697,0.5742,0.5854,0.5891,0.5828,0.5564,0.5181,0.4703,0.4593,0.4463,0.414,0.3857,0.3572,0.3217,0.2824,0.2746,0.2904,0.2747,0.2746,0.2904,0.2746,0.2589,0.2511,0.2409,0.2302,0.2187,0.2236,0.221,0.2191,0.2538,0.2777,0.2904,0.306,0.3102,0.3026,0.2997,0.2902,0.2725,0.2522,0.2334,0.2253,0.2353,0.266,0.2869,1.0842,1.049,1.0215,1.0504,1.0692,1.1416,1.3205,1.3067,0.0,0.0,0.0,0.0,0.0,0.0,0.0,0.0,0.0,0.0,0.0,0.0,1.074,0.9549,0.9167,0.8896,0.8665,0.8485,0.7956,0.6998,0.0,0.0,0.0,0.0,0.0,0.0,0.0,0.0,0.0,0.0,0.0,0.8253,0.0,1.2644,1.3309,1.5468,1.6196,1.622,1.6891,1.7791,1.872,1.8686,1.8874,1.8783,1.7108,1.6546,0.0,0.0,0.0,0.0,0.0,0.0,0.0,0.0,0.0,0.9145,0.0,0.0,0.0,0.681,0.635,0.0,0.0,0.0,0.0,0.0,0.0,0.0,0.0,0.5425,0.0,0.4407,0.4392,0.4226,0.3895,0.3581,0.3237,0.2803,0.2626,0.2701,0.3039,0.2896,0.2904,0.3062,0.2826,0.2668,0.2511,0.2319,0.221,0.2019,0.2141,0.2209,0.2303,0.264,0.2883,0.3125,0.3174,0.3209,0.3229,0.3206,0.321,0.313,0.2725,0.2546,0.2581,0.259,0.2906,0.3226,1.1113,1.1019,1.0855,1.0772,1.1017,1.1574,1.2581,1.3065,0.0,0.0,0.0,0.0,0.0,0.0,0.0,0.0,0.0,0.0,1.4264,0.0,0.0,1.0582,0.9982,0.9787,0.998,0.9217,0.8338,0.7343,0.0,0.0,0.0,0.0,0.0,0.0,0.5064,0.0,0.0,0.0,0.7524,0.0,0.9939,1.0606,0.0,1.2985,1.3899,1.4406,1.5614,1.6747,1.7728,0.0,1.879,1.9144,0.0,1.7545,1.7442,1.5731,0.0,0.0,0.0,0.0,0.0,0.0,1.1219,0.0,0.0,0.0,0.8006,0.6912,0.0,0.0,0.0,0.0,0.0,0.0,0.0,0.0,0.4929,0.4782,0.465,0.4414,0.437,0.4145,0.3767,0.3315,0.2966,0.2726,0.2696,0.2679,0.2729,0.2792,0.2826,0.2826,0.2668,0.2511,0.2511,0.2439,0.2417,0.2271,0.2531,0.2593,0.2435,0.2904,0.3052,0.3155,0.3258,0.3326,0.3222,0.3309,0.3331,0.323,0.313,0.293,0.284,0.3095,0.3322,0.3434,1.076,1.077,1.065,1.0434,1.052,1.0952,1.1967,0.0,0.0,0.0,0.0,0.0,0.0,0.0,0.0,0.0,0.0,1.5928,0.0,0.0,0.0,1.1566,1.0746,1.0227,1.0024,0.9232,0.8301,0.7174,0.6839,0.0,0.0,0.0,0.0,0.0,0.5324,0.0,0.6729,0.0,0.7105,0.0,0.0,0.0,0.0,1.2065,1.3339,1.3955,1.5112,1.5806,1.6336,0.0,1.7215,0.0,0.0,0.0,0.0,0.0,0.0,0.0,0.0,0.0,0.0,0.0,0.0,0.0,0.9202,0.0,0.8268,0.0,0.0,0.0,0.0,0.0,0.0,0.0,0.5809,0.0,0.0,0.0,0.4703,0.0,0.0,0.0,0.3191,0.2917,0.2657,0.251,0.247,0.2539,0.2714,0.2597,0.2629,0.2824,0.2589,0.2511,0.2511,0.2386,0.228,0.2271,0.2471,0.2545,0.2562,0.2917,0.3144,0.3245,0.3418,0.3558,0.357,0.3751,0.3679,0.3632,0.3632,0.3577,0.3439,0.3782,0.4029,0.4174,1.0059,0.0,0.0,0.0,1.0004,1.0523,1.1764,0.0,0.0,0.0,0.0,0.0,1.7162,1.7995,0.0,0.0,1.7799,1.6667,0.0,0.0,1.3584,0.0,1.1583,0.0,1.0481,0.935,0.8206,0.7055,0.6638,0.0,0.0,0.0,0.0,0.0,0.0,0.5908,0.6852,0.0,0.6832,0.7655,0.748,0.7765,0.8544,1.119,1.2649,1.3401,1.4144,1.4743,1.5155,1.5067,1.5675,0.0,1.5979,0.0,0.0,0.0,0.0,0.0,1.5414,0.0,0.0,0.0,0.0,0.0,0.0,0.0,0.0,0.0,0.0,0.0,0.0,0.0,0.0,0.0,0.0,0.6006,0.0,0.5123,0.0,0.0,0.0,0.0,0.0,0.2697,0.2505,0.2321,0.0,0.2417,0.2582,0.2461,0.2515,0.277,0.2598,0.2526,0.256,0.2425,0.231,0.2292,0.2416,0.2571,0.2574,0.3015,0.3231,0.3411,0.3646,0.3776,0.3828,0.398,0.4016,0.3934,0.4034,0.4125,0.4151,0.4259,0.4521,0.4809,0.9023,0.9101,0.0,0.0,0.0,0.0,0.0,0.0,0.0,0.0,0.0,0.0,0.0,0.0,0.0,0.0,0.0,1.6532,1.6245,0.0,1.4341,0.0,0.0,1.1614,0.0,0.9814,0.8207,0.7197,0.6226,0.5595,0.0,0.0,0.0,0.0,0.0,0.5647,0.6211,0.634,0.725,0.8613,0.8015,0.8236,0.9035,0.0,1.1158,1.2384,1.2346,0.0,0.0,1.4279,1.4828,0.0,0.0,0.0,0.0,0.0,0.0,0.0,0.0,0.0,0.0,1.2796,0.0,0.0,0.0,0.0,1.0017,0.0,0.0,0.0,0.0,0.0,0.0,0.0,0.0,0.0,0.0,0.0,0.0,0.0,0.0,0.0,0.0,0.2741,0.2585,0.0,0.2443,0.0,0.2234,0.2446,0.2565,0.2593,0.2541,0.2567,0.2685,0.2629,0.2495,0.2431,0.2695,0.2727,0.2519,0.3184,0.3396,0.3341,0.3957,0.4023,0.3534,0.4121,0.407,0.3635,0.4138,0.4538,0.468,0.4367,0.4521,0.4817,0.9536,0.0,0.0,0.0,0.0,0.0,0.0,1.2424,0.0,0.0,0.0,0.0,0.0,1.7051,1.8257,0.0,0.0,1.7201,1.6839,1.5538,0.0,0.0,0.0,1.1957,0.0,1.0018,0.8582,0.7536,0.6911,0.6342,0.0,0.0,0.0,0.0,0.0,0.538,0.0,0.0,0.0,0.0,0.0,0.7798,0.8718,0.0,1.0216,1.0944,1.1334,1.2178,0.0,1.3508,1.4082,1.4726,1.5402,1.5977,1.6423,1.6391,1.6541,0.0,0.0,0.0,1.6046,1.4044,0.0,0.0,0.0,0.0,0.0,0.0,0.0,0.0,0.0,0.0,0.0,0.0,0.0,0.0,0.0,0.0,0.0,0.0,0.0,0.0,0.0,0.0,0.0,0.0,0.2299,0.0,0.2173,0.235,0.2473,0.2537,0.256,0.2609,0.2692,0.2672,0.2703,0.2695,0.2783,0.2815,0.2788,0.3278,0.3488,0.3618,0.4105,0.4367,0.4321,0.4569,0.4508,0.4437,0.4839,0.5054,0.5322,0.5212,0.5308,0.5545,0.9697,0.0,0.0,0.0,0.0,0.0,0.0,0.0,0.0,0.0,1.5268,0.0,1.5654,0.0,1.7263,0.0,1.7783,1.691,1.6637,1.5417,0.0,1.4629,1.323,0.0,0.0,0.0,0.9078,0.781,0.7307,0.6687,0.0,0.0,0.0,0.0,0.0,0.507,0.5694,0.0,0.6053,0.0,0.0,0.7374,0.0,0.0,0.9339,0.9911,0.0,1.1186,1.1964,1.2428,1.2949,1.3613,1.4421,1.5152,1.573,1.5851,1.6175,1.6494,1.6309,1.6553,0.0,1.4756,1.4298,0.0,1.1845,0.0,0.0,0.0,0.0,0.0,0.0,0.0,0.0,0.0,0.0,0.0,0.0,0.4894,0.0,0.0,0.0,0.0,0.0,0.0,0.0,0.0,0.0,0.0,0.0,0.2217,0.2345,0.2506,0.257,0.2642,0.2723,0.2703,0.2733,0.2727,0.2793,0.2813,0.2876,0.3368,0.3662,0.3767,0.4317,0.4573,0.457,0.4787,0.4935,0.4834,0.5238,0.5462,0.5748,0.5744,0.587,0.6146,0.9514,0.9004,0.0,0.0,1.0147,0.0,0.0,0.0,1.465,0.0,1.5371,1.6684,1.6351,1.5981,1.6208,1.7286,1.6314,1.5683,1.5598,1.4572,0.0,0.0,1.3322,1.2578,1.2142,0.0,0.0,0.0,0.0,0.0,0.0,0.0,0.0,0.0,0.4582,0.0,0.5001,0.5413,0.5971,0.6603,0.692,0.706,0.7047,0.7819,0.8478,0.9128,0.9646,1.038,1.1037,1.1111,1.1632,1.2445,1.3578,1.3954,1.4201,1.5054,1.5346,1.5492,1.5804,1.5977,1.5839,1.4976,1.4712,0.0,0.0,0.0,1.3485,0.0,0.0,0.0,0.0,0.0,0.0,0.0,0.0,0.0,0.0,0.0,0.0,0.0,0.0,0.0,0.0,0.0,0.0,0.0,0.0,0.0,0.0,0.218,0.2259,0.2499,0.2568,0.2661,0.2786,0.273,0.2673,0.2513,0.2727,0.2904,0.2962,0.3645,0.3916,0.397,0.4584,0.4638,0.4304,0.4963,0.5037,0.4935,0.5441,0.5774,0.6068,0.6076,0.631,0.6707,1.021,0.955,0.9064,0.0,0.8973,0.9852,0.0,0.0,0.0,0.0,1.4856,1.5679,1.6134,1.588,1.5331,1.4595,1.5091,0.0,0.0,0.0,0.0,1.4394,1.3539,1.2811,1.2407,1.0981,0.0,0.889,0.0,0.0,0.6217,0.0,0.0,0.0,0.0,0.0,0.4553,0.4971,0.5454,0.6057,0.6238,0.6566,0.6943,0.0,0.7575,0.83,0.9269,0.973,1.0062,1.0812,1.126,1.1558,1.2439,1.3178,1.371,1.392,1.4425,1.4903,1.5362,1.5965,1.6246,1.5464,1.5187,1.4856,0.0,0.0,0.0,0.0,0.0,0.0,0.0,0.0,0.0,0.0,0.0,0.0,0.0,0.0,0.0,0.5598,0.0,0.0,0.0,0.0,0.0,0.0,0.0,0.0,0.0,0.0,0.2265,0.2436,0.2546,0.2681,0.2849,0.2835,0.2931,0.3048,0.3032,0.321,0.3413,0.3926,0.4131,0.4326,0.4905,0.5172,0.5165,0.5386,0.5436,0.5443,0.5829,0.6307,0.6732,0.6598,0.6723,0.692,1.0579,0.9909,0.0,0.9117,0.0,0.0,1.0929,1.2037,0.0,1.3048,1.3704,0.0,1.5065,1.4662,1.4158,1.357,1.4113,0.0,1.3951,0.0,0.0,1.3809,1.3376,1.283,1.2311,1.13,0.0,0.8972,0.0,0.0,0.611,0.0,0.0,0.0,0.0,0.4133,0.4291,0.4916,0.5333,0.5685,0.5984,0.6291,0.0,0.6754,0.7161,0.7591,0.8512,0.8969,0.9381,1.0297,1.0825,1.1186,1.1632,1.2077,1.256,1.3191,1.3704,1.4168,1.4961,1.5535,1.593,1.567,1.5753,1.5661,1.5157,1.539,1.5542,0.0,1.5175,1.5087,0.0,0.0,0.0,0.0,0.0,0.0,0.0,0.0,0.0,0.0,0.5636,0.0,0.0,0.0,0.0,0.0,0.0,0.0,0.0,0.0,0.2484,0.2554,0.2746,0.2914,0.314,0.3172,0.3215,0.3453,0.339,0.3482,0.3819,0.4185,0.439,0.4635,0.507,0.5443,0.5496,0.5695,0.5739,0.5854,0.6323,0.6679,0.6926,0.6874,0.7006,0.7051,1.0744,0.0,0.0,0.0,0.0,0.0,0.0,1.0581,0.0,1.1605,0.0,1.3106,1.3534,1.3082,1.2972,1.3296,0.0,1.3229,1.345,1.3115,1.2819,1.2789,1.2923,1.2622,1.1926,1.1604,1.0558,0.0,0.0,0.0,0.0,0.0,0.0,0.0,0.0,0.0,0.0,0.5011,0.537,0.5382,0.5946,0.6072,0.6083,0.67,0.6977,0.6956,0.7558,0.8259,0.8899,0.9523,1.0236,1.0871,1.0974,1.1085,1.1432,1.2755,1.3175,1.3422,1.4441,1.4917,1.5199,1.5581,1.6096,1.6363,1.5821,1.5854,1.6049,1.5975,1.5561,1.5326,0.0,0.0,0.0,0.0,0.0,0.0,0.0,0.0,0.0,0.0,0.0,0.0,0.0,0.0,0.0,0.0,0.0,0.0,0.0,0.0,0.2797,0.2793,0.3084,0.3284,0.3374,0.3537,0.3648,0.3791,0.3645,0.3827,0.4156,0.4434,0.462,0.491,0.5396,0.5586,0.5594,0.5897,0.606,0.6103,0.6599,0.6806,0.6872,0.7062,0.7141,0.7138,1.0997,0.0,0.0,0.0,0.0,0.8861,0.926,0.9772,1.0341,1.0942,1.1842,1.2292,1.227,1.2282,1.2306,1.22,1.2134,0.0,0.0,0.0,0.0,1.2406,1.2252,1.1933,1.1621,1.0972,0.9977,0.0,0.0,0.0,0.0,0.0,0.0,0.0,0.0,0.0,0.4463,0.4899,0.0,0.5142,0.5613,0.5797,0.5811,0.6169,0.6511,0.6845,0.7102,0.7677,0.829,0.886,0.9412,0.987,1.0307,1.1041,1.1793,1.2092,1.273,1.3453,1.3891,1.4238,1.4602,1.4914,1.5571,1.6167,1.6035,1.6482,1.6884,1.6542,1.6627,1.6398,1.5429,0.0,0.0,0.0,0.0,0.0,0.0,0.0,0.0,0.0,0.0,0.6837,0.0,0.0,0.0,0.0,0.0,0.0,0.0,0.0,0.2747,0.0,0.341,0.0,0.0,0.0,0.3877,0.4064,0.4146,0.4332,0.4715,0.4894,0.5172,0.5463,0.5681,0.5974,0.6179,0.6291,0.6455,0.6628,0.6673,0.6831,0.7086,0.7035,0.7073,0.7138,0.0,0.0,0.0,0.0,0.0,0.0,0.0,0.9046,0.9381,0.9602,0.9989,1.0208,1.0125,1.058,1.0804,1.0719,1.0896,1.1112,1.1054,1.1139,1.1277,1.1573,1.1472,1.1376,1.1214,1.0633,0.9675,0.8517,0.0,0.0,0.0,0.0,0.0,0.0,0.0,0.4005,0.0,0.0,0.0,0.506,0.5282,0.5369,0.5364,0.5722,0.5991,0.6254,0.6609,0.7044,0.768,0.8434,0.8844,0.9141,0.9894,1.0503,1.1137,1.1623,1.2123,1.2666,1.328,1.3614,1.3889,1.4358,1.5025,1.5551,1.5709,1.6202,1.6612,1.6473,1.6501,1.6244,1.5209,1.4185,0.0,0.0,0.0,0.0,0.0,0.0,0.0,0.0,0.0,0.0,0.0,0.0,0.0,0.0,0.0,0.3373,0.3097,0.0,0.3127,0.0,0.0,0.0,0.3921,0.0,0.4322,0.4317,0.4546,0.4734,0.4877,0.5196,0.5478,0.5634,0.5995,0.6203,0.6366,0.6483,0.66,0.6714,0.6782,0.6915,0.7067,0.707,0.7221,0.7362,0.0,1.0354,0.0,0.0,0.8539,0.8424,0.7889,0.8276,0.8539,0.8531,0.8581,0.8589,0.8546,0.906,0.941,0.941,0.9766,1.007,1.0101,1.002,1.0159,1.0626,1.0677,1.0655,1.0648,1.0235,0.9406,0.0,0.0,0.0,0.0,0.0,0.0,0.0,0.0,0.0,0.0,0.0,0.4678,0.4915,0.4934,0.501,0.5013,0.5392,0.5668,0.576,0.6117,0.6653,0.7166,0.7962,0.8394,0.8759,0.9445,0.9995,1.0424,1.1246,1.1656,1.1976,1.2814,1.3017,1.3227,1.3831,1.4339,1.4832,1.5133,1.5638,1.6035,1.6027,1.5836,1.5587,1.4971,1.4525,0.0,0.0,0.0,0.0,0.0,0.0,0.0,0.0,0.0,0.0,0.6196,0.0,0.0,0.0,0.0,0.3701,0.3357,0.3408,0.3521,0.0,0.0,0.4254,0.438,0.0,0.483,0.4729,0.4922,0.511,0.5007,0.5488,0.5694,0.5803,0.6117,0.6347,0.6483,0.6581,0.6649,0.6714,0.688,0.6978,0.7029,0.7205,0.7357,0.7593,0.0,0.0,0.0,0.0,0.0,0.8442,0.782,0.764,0.7811,0.8532,0.873,0.8771,0.8603,0.8615,0.8719,0.8719,0.893,0.923,0.9579,0.9007,0.898,0.9584,0.9501,0.948,0.9728,0.9495,0.8826,0.0,0.0,0.6227,0.0,0.0,0.0,0.0,0.0,0.0,0.0,0.4443,0.4544,0.4554,0.4865,0.4924,0.4759,0.5027,0.5428,0.5885,0.5885,0.6438,0.7057,0.7173,0.7819,0.8657,0.8904,0.9572,1.0383,1.0931,1.1337,1.1832,1.2535,1.2656,1.2719,1.3284,1.3766,1.4114,1.4338,1.5125,1.5668,1.5111,1.4946,1.4852,1.474,1.4836,1.4601,0.0,0.0,0.0,0.0,0.0,1.1353,1.0056,0.0,0.0,0.0,0.604,0.0,0.0,0.4418,0.4037,0.3587,0.3677,0.3839,0.4051,0.4746,0.4924,0.457,0.5129,0.5323,0.509,0.525,0.5345,0.5465,0.5726,0.5969,0.6092,0.6214,0.6396,0.6603,0.6616,0.6749,0.6942,0.6855,0.695,0.7238,0.7359,0.7506,0.7604,0.0,0.0,0.0,0.0,0.0,0.0,0.0,0.7604,0.7433,0.7502,0.7608,0.7713,0.7645,0.7553,0.7496,0.7492,0.7679,0.7926,0.8013,0.785,0.7839,0.8364,0.8475,0.8698,0.8962,0.8945,0.8473,0.0,0.0,0.0,0.0,0.0,0.0,0.0,0.0,0.4191,0.4688,0.4747,0.4741,0.4592,0.4793,0.4872,0.4921,0.5271,0.554,0.5715,0.5737,0.6071,0.6511,0.6627,0.7228,0.8013,0.8549,0.9187,0.9822,1.0209,1.0795,1.1286,1.1708,1.1839,1.2035,1.2672,1.312,1.347,1.3905,1.4482,1.495,1.5085,1.4941,1.4737,1.4357,1.4236,1.4057,1.3686,0.0,0.0,0.0,0.0,0.0,1.1032,0.0,0.8994,0.0,0.0,0.0,0.0,0.0,0.3991,0.3731,0.3824,0.4012,0.4183,0.0,0.5056,0.4927,0.5542,0.572,0.5447,0.5802,0.5844,0.5741,0.6026,0.6283,0.6499,0.6448,0.6567,0.6836,0.6804,0.6934,0.72,0.7225,0.7405,0.7706,0.7764,0.7889,0.8156,1.1324,0.0,0.8437,0.0,0.8144,0.7939,0.7739,0.7469,0.7075,0.6657,0.6724,0.687,0.6948,0.6759,0.6697,0.6607,0.691,0.7054,0.6877,0.6777,0.6966,0.7408,0.7805,0.0,0.8376,0.8373,0.8102,0.7741,0.7339,0.0,0.0,0.0,0.0,0.0,0.4009,0.4193,0.4757,0.4797,0.4768,0.4628,0.4658,0.4745,0.4942,0.5457,0.5611,0.5488,0.5686,0.5927,0.6181,0.637,0.6818,0.7474,0.8216,0.8727,0.9231,0.9776,1.0239,1.0747,1.1085,1.128,1.1482,1.2067,1.2486,1.281,1.3314,1.3835,1.4322,1.4782,1.4664,1.438,1.4031,1.3809,1.362,1.3429,0.0,0.0,0.0,1.288,0.0,0.0,1.0356,0.926,0.8254,0.7231,0.0,0.0,0.0,0.4613,0.4338,0.4288,0.4435,0.0,0.0,0.0,0.5392,0.5937,0.6147,0.6026,0.6314,0.6295,0.6211,0.6346,0.6625,0.6942,0.6537,0.6628,0.7099,0.6976,0.7107,0.7477,0.768,0.7826,0.8045,0.8156,0.8263,0.8484,0.9462,0.8711,0.8018,0.8028,0.8035,0.7839,0.7338,0.6734,0.6431,0.6434,0.6431,0.6508,0.6836,0.6611,0.6426,0.6426,0.6809,0.6877,0.6263,0.6135,0.6438,0.0,0.0,0.7479,0.786,0.7688,0.7763,0.8097,0.0,0.0,0.6086,0.0,0.5002,0.4988,0.4507,0.4295,0.4293,0.4297,0.4367,0.4465,0.4346,0.441,0.4674,0.5403,0.5578,0.5327,0.5613,0.5986,0.6412,0.643,0.6703,0.7164,0.7989,0.8372,0.8811,0.9685,1.0033,1.012,1.0809,1.098,1.1055,1.1472,1.1828,1.2216,1.2656,1.3245,1.3886,1.4049,1.3818,1.3562,1.376,1.3768,1.3517,1.2655,0.0,0.0,0.0,1.2104,0.0,1.1271,1.0098,0.9159,0.8815,0.7743,0.0,0.0,0.0,0.0,0.0,0.0,0.0,0.5855,0.6,0.0,0.5857,0.6363,0.663,0.6731,0.6731,0.6802,0.685,0.6789,0.6917,0.7135,0.6637,0.6675,0.7217,0.7217,0.737,0.7604,0.7934,0.8045,0.8045,0.8377,0.8484,0.8484,0.8495,0.8237,0.7739,0.7036,0.6936,0.6836,0.6637,0.6537,0.6437,0.6437,0.6437,0.6399,0.6591,0.6426,0.6349,0.0,0.6312,0.6412,0.0,0.6227,0.6216,0.6591,0.6758,0.6888,0.7024,0.7146,0.7179,0.6959,0.0,0.0,0.0,0.5535,0.535,0.5499,0.5347,0.4935,0.4308,0.4432,0.4508,0.4545,0.4754,0.4936,0.5145,0.5489,0.5791,0.601,0.5767,0.59,0.6247,0.6267,0.6512,0.6797,0.7279,0.7845,0.846,0.8899,0.9336,0.9777,1.0207,1.0394,1.0559,1.1138,1.1508,1.176,1.2216,1.2961,1.3591,1.3482,1.3729,1.3757,1.3348,1.3235,1.3143,1.2739,1.2744,0.0,1.2209,0.0,1.1416,1.1003,1.0091,0.9408,0.9228,0.8353,0.0,0.0,0.0,0.0,0.0,0.0,0.0,0.0,0.6526,0.0,0.6405,0.6968,0.7135,0.7053,0.7152,0.7174,0.7113,0.6863,0.7003,0.7444,0.6942,0.7088,0.7747,0.7539,0.7803,0.8266,0.8263,0.8488,0.8605,0.8716,0.8823,0.8823,0.7437,0.7437,0.7238,0.6537,0.6437,0.6437,0.6437,0.6034,0.5837,0.5837,0.5837,0.5937,0.6137,0.6206,0.0,0.6293,0.6249,0.6255,0.6347,0.6268,0.6257,0.6347,0.648,0.6532,0.6716,0.685,0.0,0.6508,0.6634,0.6404,0.5924,0.5658,0.5614,0.5644,0.5374,0.4878,0.4414,0.4594,0.4645,0.4602,0.4754,0.4958,0.5233,0.5471,0.5755,0.6057,0.5922,0.6061,0.623,0.6293,0.6563,0.6758,0.7024,0.7496,0.8105,0.848,0.9037,0.9522,0.9712,0.9943,1.0264,1.0768,1.1083,1.1306,1.1878,1.2432,1.2976,1.2999,1.3223,1.3355,1.3145,1.296,1.2837,1.2706,1.2569,1.2406,1.2088,0.0,1.1184,0.0,0.0,0.0,0.0,0.902,0.8646,0.0,0.0,0.0,0.0,0.0,0.0,0.6445,0.7158,0.7354,0.7075,0.7451,0.7566,0.7583,0.7634,0.7556,0.7537,0.7141,0.7244,0.7743,0.7045,0.7265,0.7884,0.7836,0.799,0.8414,0.8579,0.8712,0.894,0.894,0.894,0.8937,0.6437,0.6334,0.6334,0.6334,0.6334,0.6334,0.6334,0.5436,0.4834,0.4834,0.4834,0.5135,0.5739,0.5942,0.6039,0.6337,0.0,0.0,0.6236,0.6358,0.6374,0.6233,0.6352,0.6519,0.6765,0.6626,0.6557,0.6557,0.6256,0.593,0.5657,0.566,0.5668,0.5586,0.4681,0.442,0.4602,0.4765,0.4771,0.4649,0.4426,0.4536,0.4834,0.5336,0.5579,0.5598,0.6084,0.6282,0.6357,0.6421,0.6649,0.7003,0.7018,0.7302,0.7815,0.8432,0.8843,0.9123,0.9218,0.9607,1.0038,1.0207,1.0569,1.101,1.1564,1.1813,1.2103,1.2452,1.2446,1.253,1.3072,1.289,1.2647,1.2515,1.244,1.2261,1.1624,1.1403,1.1073,0.0,0.0,0.0,0.9701,0.9705,0.9646,0.0,0.0,0.0,0.0,0.0,0.7154,0.7434,0.7844,0.8046,0.7852,0.7854,0.7916,0.8225,0.8072,0.8038,0.7939,0.7437,0.7537,0.7942,0.7144,0.7223,0.7872,0.8011,0.8265,0.8422,0.8773,0.8937,0.8937,0.894,0.894,0.9051,0.5236,0.5135,0.5135,0.5135,0.5135,0.5135,0.5135,0.4935,0.4834,0.4834,0.5534,0.5737,0.5135,0.5436,0.5737,0.6039,0.6237,0.642,0.6385,0.6418,0.642,0.6385,0.6336,0.6379,0.6421,0.6197,0.6134,0.6134,0.5925,0.5725,0.5722,0.5296,0.5234,0.5239,0.4716,0.4606,0.4775,0.4816,0.4818,0.4787,0.473,0.4759,0.4834,0.4935,0.5322,0.5802,0.58,0.5999,0.6377,0.6551,0.6822,0.7015,0.7127,0.7621,0.8113,0.8065,0.8232,0.8516,0.8924,0.9262,0.9607,0.9951,1.0519,1.1018,1.1474,1.1738,1.1904,1.2129,1.2398,1.2494,1.2402,1.2515,1.2575,1.219,1.1999,1.1775,1.1315,1.0984,1.0723,0.0,1.0437,1.0436,1.0425,1.0306,1.0032,0.0,0.0,0.0,0.8602,0.8262,0.7991,0.7951,0.8408,0.8384,0.7848,0.8355,0.8571,0.8379,0.812,0.8038,0.7939,0.7643,0.7643,0.7939,0.7543,0.7785,0.8327,0.8364,0.8535,0.8779,0.9144,0.9268,0.9268,0.9489,0.9596,0.9596,0.4834,0.4834,0.4888,0.5055,0.4947,0.4834,0.4834,0.4834,0.4834,0.4834,0.5336,0.5436,0.4834,0.5035,0.5236,0.5438,0.5837,0.6037,0.6037,0.6037,0.6037,0.5939,0.5887,0.5955,0.595,0.5841,0.5759,0.59,0.5713,0.5618,0.5521,0.523,0.4981,0.4951,0.4778,0.4745,0.4834,0.4834,0.4834,0.4849,0.5018,0.5089,0.5144,0.5302,0.5595,0.5942,0.5937,0.6237,0.6631,0.6662,0.6938,0.7309,0.726,0.7654,0.8044,0.8085,0.8253,0.8489,0.8693,0.8999,0.941,1.0005,1.0483,1.0963,1.1164,1.1384,1.1563,1.1714,1.2026,1.2178,1.2163,1.2425,1.2501,1.2053,1.197,1.1652,1.0995,1.0759,1.0616,1.0492,1.0504,1.0587,1.0666,1.0521,1.0239,0.978,0.936,0.0,0.8966,0.8699,0.8533,0.8365,0.8773,0.8804,0.8253,0.8676,0.8743,0.8432,0.8237,0.8137,0.8038,0.7743,0.7743,0.7942,0.7811,0.8031,0.8394,0.853,0.8682,0.8842,0.924,0.9379,0.9379,0.9706,0.9816,0.9816,0.4634,0.4734,0.4932,0.5245,0.5043,0.4834,0.4834,0.4834,0.4855,0.491,0.4916,0.4896,0.4841,0.4834,0.4834,0.4834,0.5236,0.5536,0.5737,0.5655,0.556,0.5343,0.5358,0.5457,0.5634,0.5553,0.5565,0.5666,0.5764,0.5666,0.5377,0.5243,0.5074,0.4882,0.4889,0.4935,0.4935,0.4834,0.4845,0.4991,0.532,0.5482,0.5618,0.5928,0.61,0.609,0.639,0.6595,0.6897,0.6977,0.7287,0.7682,0.7609,0.7764,0.8039,0.8335,0.8562,0.8769,0.8698,0.902,0.9479,1.0159,1.0616,1.0888,1.098,1.1169,1.1318,1.1474,1.1676,1.1896,1.2155,1.2446,1.2403,1.1937,1.1874,1.1542,1.0663,0.0,1.0641,1.0542,1.0672,1.0723,1.0773,1.0588,1.0368,1.0216,0.9822,0.9524,0.9412,0.9052,0.8813,0.8687,0.9033,0.905,0.8785,0.8784,0.8627,0.8432,0.8333,0.8247,0.8072,0.7753,0.7766,0.8113,0.8011,0.8084,0.8357,0.8714,0.8831,0.8865,0.9325,0.9489,0.9599,0.9816,0.9926,0.9926,0.3632,0.4133,0.4853,0.491,0.4873,0.4834,0.4834,0.4834,0.4947,0.5257,0.5296,0.5179,0.4867,0.4834,0.4834,0.4834,0.4834,0.5336,0.6234,0.5853,0.5355,0.4941,0.5419,0.5729,0.5639,0.562,0.5606,0.5589,0.5889,0.5892,0.5892,0.5902,0.5708,0.5504,0.5427,0.5436,0.5436,0.5035,0.5099,0.5518,0.5744,0.6001,0.6204,0.6059,0.6135,0.6322,0.6639,0.6953,0.7246,0.7552,0.8001,0.8367,0.8289,0.8589,0.894,0.8929,0.8933,0.8954,0.9059,0.9292,0.9767,1.0428,1.0677,1.0872,1.1394,1.1558,1.1491,1.1546,1.1829,1.2041,1.1889,1.2158,1.2198,1.1533,1.1381,1.1014,1.0193,0.0,1.0568,1.0829,1.1062,1.1148,1.1128,1.0976,1.0616,1.0191,0.9654,0.9483,0.9838,0.9119,0.8854,0.9165,0.9125,0.9119,0.9151,0.8707,0.8432,0.8432,0.8137,0.8109,0.8231,0.7999,0.8076,0.8408,0.8313,0.8411,0.8645,0.9012,0.9219,0.9343,0.9919,1.0147,1.0147,1.0472,1.0582,1.0582,0.3331,0.3632,0.4133,0.4734,0.4334,0.3932,0.3932,0.4435,0.4896,0.5065,0.5088,0.4814,0.4048,0.4433,0.4834,0.4834,0.4834,0.5035,0.5534,0.5428,0.5303,0.5035,0.525,0.5441,0.5292,0.5292,0.5471,0.5722,0.5884,0.5957,0.6044,0.6106,0.5896,0.5639,0.5696,0.5722,0.5722,0.5335,0.5503,0.5814,0.5959,0.6182,0.6429,0.635,0.6533,0.6796,0.7009,0.7326,0.7737,0.7884,0.8216,0.8549,0.8533,0.8715,0.8932,0.9087,0.9176,0.9276,0.9468,0.9722,1.0106,1.0821,1.0914,1.0973,1.1565,1.1505,1.1498,1.1514,1.1772,1.2043,1.2,1.2169,1.2139,1.1802,1.1461,1.1083,1.0548,1.0548,1.0637,1.0748,1.0958,1.1033,1.0922,1.0827,1.0533,1.005,0.9822,0.9748,0.9767,0.9256,0.9035,0.9224,0.9042,0.9072,0.9426,0.9031,0.8777,0.8762,0.8571,0.8421,0.8265,0.8109,0.816,0.837,0.8381,0.8615,0.904,0.9233,0.9421,0.971,1.0147,1.0257,1.0366,1.0582,1.0802,1.0911,0.323,0.3275,0.35,0.4246,0.3786,0.3294,0.3238,0.3932,0.4461,0.4538,0.4755,0.4623,0.3638,0.4334,0.4869,0.4955,0.4961,0.4924,0.4841,0.5092,0.5245,0.5245,0.5157,0.5108,0.5108,0.5108,0.5378,0.5796,0.6008,0.6068,0.6183,0.63,0.6203,0.5916,0.6002,0.6041,0.6041,0.5969,0.5922,0.6114,0.6193,0.6389,0.6463,0.6658,0.6961,0.7307,0.7413,0.7736,0.8159,0.8233,0.8454,0.8656,0.8745,0.8801,0.8999,0.9099,0.9433,0.9682,0.9823,1.0054,1.0482,1.1032,1.1091,1.115,1.169,1.1538,1.1483,1.1736,1.1869,1.202,1.2107,1.2129,1.1986,1.1862,0.0,1.1082,1.0731,1.0755,1.0713,1.0749,1.0852,1.0941,1.0696,1.0627,1.0473,1.0049,0.9995,0.9828,0.9607,0.9517,0.9392,0.93,0.9076,0.9108,0.9525,0.9331,0.9099,0.9019,0.8888,0.8714,0.847,0.8348,0.8397,0.8584,0.8696,0.8938,0.9313,0.9545,0.9706,0.9926,1.0257,1.0476,1.0472,1.0692,1.0911,1.1135,0.323,0.3409,0.3491,0.337,0.3413,0.3486,0.3264,0.323,0.3413,0.3642,0.4673,0.5212,0.477,0.4734,0.4971,0.5312,0.5341,0.5198,0.4857,0.5169,0.5367,0.5367,0.5202,0.5108,0.5108,0.5322,0.5591,0.5796,0.622,0.6425,0.6608,0.673,0.6785,0.6671,0.6679,0.6682,0.6682,0.6687,0.6645,0.6542,0.6882,0.6924,0.6689,0.7027,0.736,0.7578,0.7907,0.8125,0.8543,0.8632,0.9005,0.9265,0.8816,0.9083,0.9557,0.9334,0.9608,0.9943,1.0062,1.035,1.0667,1.0847,1.0925,1.1099,1.1833,1.1828,1.1822,1.217,1.2319,1.231,1.2066,1.2021,1.177,1.1065,0.0,0.0,1.021,1.0553,1.0785,1.0872,1.1111,1.1193,1.1021,1.0788,1.0616,1.0269,1.0037,0.9807,0.9611,0.9781,0.9788,0.9784,0.9519,0.9332,0.9232,0.9236,0.9038,0.8844,0.8829,0.8914,0.9078,0.9067,0.9127,0.9419,0.954,0.9641,0.9798,1.0139,1.0257,1.0257,1.0582,1.0802,1.1017,1.0802,1.0911,1.1042,0.3422,0.3525,0.3559,0.3467,0.3527,0.3507,0.3267,0.323,0.3263,0.3354,0.4588,0.5328,0.519,0.5173,0.523,0.5369,0.5382,0.5273,0.502,0.5028,0.5145,0.5371,0.5316,0.5277,0.5277,0.5389,0.5667,0.5993,0.6211,0.6498,0.6736,0.6858,0.6874,0.6804,0.6883,0.6915,0.6921,0.6774,0.6829,0.6979,0.6916,0.6935,0.7046,0.7382,0.7604,0.7937,0.8156,0.8488,0.8706,0.8763,0.8889,0.9109,0.9154,0.9354,0.9488,0.9556,0.9895,1.0184,1.041,1.064,1.0861,1.1245,1.1243,1.1239,1.1895,1.1897,1.2004,1.2276,1.2467,1.2583,1.2494,1.2163,1.1968,1.2018,0.0,1.1044,1.1084,1.0954,1.0906,1.0985,1.1012,1.1048,1.1004,1.0947,1.0736,1.0505,1.0414,1.0332,1.0253,1.0059,0.9862,0.9544,0.9563,0.9461,0.943,0.9534,0.9485,0.9284,0.9391,0.9377,0.9235,0.9235,0.9358,0.9563,0.9563,0.9768,1.0147,1.0257,1.0472,1.0802,1.0692,1.0911,1.1143,1.1155,1.1197,1.1333,0.3458,0.3476,0.3499,0.3574,0.3587,0.3531,0.3368,0.3342,0.3342,0.3342,0.4575,0.5382,0.5382,0.5382,0.5382,0.5382,0.5382,0.5312,0.5149,0.502,0.5079,0.5369,0.5382,0.5493,0.5491,0.5603,0.5777,0.6221,0.633,0.6621,0.6864,0.6983,0.6994,0.6915,0.6893,0.6931,0.7043,0.6901,0.6935,0.7043,0.6935,0.7046,0.7265,0.7493,0.7826,0.8152,0.8374,0.8712,0.894,0.894,0.894,0.913,0.9295,0.9455,0.9514,1.001,1.0284,1.048,1.0729,1.0811,1.0982,1.1507,1.1477,1.1466,1.2045,1.2047,1.2085,1.2439,1.2612,1.262,1.2607,1.2378,1.219,1.2289,1.1815,1.15,1.1601,1.1337,1.1133,1.1209,1.1144,1.1097,1.1055,1.0995,1.0879,1.0745,1.0729,1.0702,1.0764,1.0278,0.9962,0.9728,0.9661,0.9652,0.9705,0.977,0.973,0.9583,0.9654,0.9614,0.9457,0.9619,0.9704,0.9815,1.0027,1.0252,1.0586,1.0692,1.0945,1.1321,1.1046,1.1202,1.1535,1.1612,1.1677,1.1868,0.3281,0.3233,0.3308,0.3546,0.3587,0.3587,0.3587,0.3587,0.3587,0.3587,0.4596,0.5382,0.5382,0.5382,0.5382,0.5382,0.5382,0.5331,0.5212,0.5204,0.5257,0.5375,0.5382,0.5491,0.5822,0.5935,0.6217,0.6544,0.6659,0.6769,0.6989,0.7103,0.7154,0.7154,0.6824,0.6935,0.7154,0.7154,0.7046,0.6712,0.7046,0.7154,0.7265,0.7493,0.7937,0.8484,0.8484,0.8712,0.894,0.894,0.9161,0.935,0.9298,0.9458,0.9955,1.0477,1.0577,1.0642,1.0968,1.1121,1.1171,1.1545,1.1585,1.1785,1.2273,1.2198,1.2199,1.2716,1.257,1.24,1.2371,1.2401,1.2169,1.1435,1.1747,1.1887,1.1418,1.1573,1.1676,1.1676,1.1492,1.1308,1.1308,1.1032,1.0939,1.0944,1.0867,1.0986,1.1184,1.032,1.0018,1.0404,0.992,0.9709,0.9884,0.9713,0.9717,0.9884,0.9713,0.9721,0.9892,1.0079,1.0164,1.0289,1.0862,1.1126,1.1126,1.1459,1.1687,1.1849,1.1647,1.2029,1.258,1.2055,1.2217,1.2634,0.3495,0.3481,0.3503,0.3575,0.3587,0.3587,0.3587,0.3587,0.3587,0.3587,0.4596,0.5382,0.5382,0.5382,0.5382,0.5382,0.5382,0.5367,0.5331,0.5267,0.5277,0.5377,0.5382,0.5493,0.5491,0.5824,0.6031,0.6111,0.6366,0.6589,0.6777,0.703,0.7154,0.7154,0.7043,0.7154,0.7154,0.7154,0.7154,0.7046,0.7154,0.7268,0.7493,0.7826,0.8156,0.8484,0.8712,0.8826,0.8937,0.9158,0.9268,0.946,0.9723,0.9964,1.0249,1.0457,1.0457,1.0551,1.1133,1.1221,1.1209,1.1326,1.1487,1.1688,1.2078,1.2318,1.2582,1.2748,1.2838,1.2857,1.2742,1.2558,1.2352,1.2118,1.1886,1.172,1.1578,1.1501,1.14,1.14,1.1308,1.1276,1.1249,1.1169,1.1138,1.1091,1.1066,1.1035,1.09,1.0453,1.0156,1.0117,0.9821,0.9709,0.9884,0.9835,0.994,1.0201,1.0276,1.0437,1.0703,1.0897,1.1061,1.1186,1.1407,1.1459,1.1459,1.1568,1.1797,1.2199,1.1913,1.2154,1.2616,1.2587,1.2539,1.2619,0.3587,0.3587,0.3587,0.3587,0.3587,0.3587,0.3587,0.3587,0.3553,0.3459,0.4191,0.4797,0.4953,0.5228,0.5382,0.5382,0.5382,0.5382,0.5382,0.5404,0.5393,0.5599,0.5603,0.5603,0.5603,0.5824,0.6049,0.6161,0.6383,0.6495,0.6715,0.7043,0.7154,0.7154,0.7046,0.7043,0.7154,0.7154,0.7265,0.7379,0.749,0.7712,0.7937,0.8156,0.8377,0.8712,0.9047,0.9047,0.9158,0.9489,0.9596,0.9798,1.0128,1.0421,1.0538,1.0642,1.0646,1.0737,1.1309,1.1505,1.1498,1.1456,1.1582,1.1821,1.2018,1.2438,1.2662,1.2662,1.2759,1.2856,1.2764,1.255,1.2331,1.2241,1.2083,1.1921,1.1641,1.1515,1.1382,1.1382,1.1288,1.1248,1.1192,1.1202,1.1158,1.1184,1.1194,1.1096,1.0998,1.0609,1.0413,1.0314,0.9991,0.9983,1.0196,1.0087,1.0268,1.053,1.056,1.0824,1.1111,1.1234,1.1353,1.1463,1.1642,1.1787,1.1787,1.1896,1.2128,1.2427,1.232,1.2488,1.2975,1.3105,1.3085,1.3049,0.3587,0.3699,0.3811,0.3811,0.3699,0.3587,0.3587,0.3587,0.3501,0.3262,0.342,0.3742,0.4293,0.4954,0.5382,0.5382,0.5382,0.5382,0.5382,0.563,0.5729,0.5819,0.5935,0.5935,0.5822,0.5935,0.6161,0.6274,0.6604,0.6715,0.6715,0.7043,0.7154,0.7154,0.6935,0.6935,0.7265,0.7265,0.7379,0.7607,0.7949,0.8174,0.8504,0.8504,0.8729,0.8957,0.9275,0.9379,0.9489,0.9706,1.0036,1.0366,1.0582,1.0692,1.0802,1.1021,1.1017,1.1202,1.1572,1.1634,1.1695,1.1817,1.1825,1.1971,1.2234,1.236,1.2396,1.2375,1.237,1.2467,1.2667,1.2565,1.2302,1.1998,1.2138,1.2104,1.1612,1.1564,1.1585,1.1585,1.1389,1.1194,1.1194,1.1194,1.1194,1.1194,1.1194,1.1194,1.1194,1.0726,1.0538,1.0833,1.0519,1.0531,1.0764,1.0548,1.0613,1.0946,1.0749,1.0871,1.1394,1.1394,1.1407,1.1434,1.1819,1.2005,1.2114,1.2351,1.2597,1.2795,1.2814,1.3065,1.3419,1.3419,1.3532,1.3688,0.3587,0.4372,0.5044,0.5044,0.426,0.3587,0.3587,0.3587,0.3501,0.3262,0.3275,0.379,0.5076,0.5357,0.5382,0.5382,0.5382,0.5382,0.5382,0.5582,0.5799,0.5822,0.6049,0.6274,0.6161,0.6381,0.649,0.6492,0.6604,0.6715,0.6715,0.7043,0.7154,0.7154,0.7382,0.7493,0.7493,0.7712,0.7823,0.7946,0.8164,0.8433,0.8655,0.8655,0.8881,0.9205,0.931,0.9379,0.9489,1.0036,1.0366,1.0582,1.0692,1.0692,1.0692,1.0802,1.0802,1.0903,1.1189,1.1398,1.1715,1.1887,1.2046,1.2021,1.1996,1.2184,1.2297,1.2114,1.2078,1.2078,1.2175,1.2175,1.1965,1.1721,1.175,1.1668,1.1332,1.1263,1.1292,1.1292,1.1194,1.1194,1.1194,1.1194,1.1194,1.1194,1.1194,1.1194,1.1194,1.1056,1.0947,1.1048,1.0928,1.0897,1.1164,1.1164,1.1125,1.1263,1.0861,1.116,1.1926,1.1926,1.2014,1.2158,1.2309,1.2327,1.2341,1.2625,1.2819,1.3017,1.3188,1.3405,1.3622,1.3622,1.3651,1.3688,0.344,0.4376,0.512,0.512,0.4163,0.3455,0.357,0.3587,0.3542,0.3417,0.3401,0.3617,0.4269,0.4508,0.4819,0.5382,0.5382,0.5382,0.5382,0.5601,0.5824,0.6047,0.6383,0.6606,0.6715,0.6824,0.6712,0.6495,0.6604,0.6715,0.6715,0.7157,0.7379,0.7379,0.7715,0.7826,0.7826,0.8156,0.8263,0.8273,0.8463,0.8716,0.8828,0.8828,0.894,0.9161,0.9597,0.998,1.0273,1.061,1.0779,1.0826,1.0826,1.0761,1.0692,1.0692,1.0692,1.0802,1.1021,1.1236,1.1459,1.1782,1.1928,1.2093,1.1987,1.2147,1.2238,1.2118,1.2014,1.1979,1.2279,1.2023,1.182,1.1732,1.1658,1.1487,1.1194,1.1194,1.1194,1.1194,1.1194,1.1194,1.1194,1.1194,1.1236,1.134,1.135,1.1392,1.1487,1.1295,1.1253,1.1457,1.1345,1.1348,1.1567,1.1562,1.1553,1.1759,1.144,1.1649,1.228,1.228,1.2337,1.2441,1.2441,1.2441,1.2455,1.2677,1.2828,1.2956,1.3268,1.3452,1.3556,1.3655,1.3808,1.3933,0.3278,0.4033,0.4834,0.4834,0.3974,0.3345,0.3501,0.3561,0.3587,0.3587,0.3811,0.3731,0.3313,0.3685,0.426,0.527,0.5382,0.5382,0.5382,0.5714,0.6047,0.6274,0.6604,0.6935,0.7154,0.7154,0.6935,0.6497,0.6715,0.6826,0.6826,0.7382,0.7715,0.7718,0.7934,0.8045,0.8156,0.8484,0.8598,0.8598,0.8853,0.8991,0.9015,0.9015,0.9028,0.9174,0.9833,1.0638,1.1224,1.1224,1.1131,1.1013,1.1013,1.0907,1.0781,1.0781,1.0781,1.0781,1.1113,1.1113,1.1224,1.1555,1.1753,1.2014,1.207,1.2159,1.2176,1.2137,1.1991,1.2025,1.2407,1.2038,1.1657,1.1841,1.1686,1.1545,1.125,1.1217,1.1194,1.1194,1.1194,1.1194,1.1194,1.1194,1.1283,1.1501,1.152,1.1605,1.1808,1.1643,1.1666,1.1869,1.187,1.1894,1.203,1.1889,1.1977,1.2195,1.2144,1.2219,1.2441,1.2441,1.2441,1.2441,1.2441,1.246,1.2512,1.2729,1.2838,1.2913,1.3291,1.3443,1.3579,1.3746,1.4052,1.4296,0.3278,0.4033,0.4834,0.4834,0.4141,0.348,0.3305,0.3454,0.3587,0.3587,0.4484,0.4693,0.3653,0.446,0.527,0.5382,0.5382,0.5382,0.5382,0.594,0.6274,0.6274,0.6826,0.7154,0.7154,0.7154,0.7154,0.7046,0.7382,0.7496,0.7496,0.7823,0.7934,0.7934,0.8263,0.8484,0.8484,0.8712,0.8826,0.8836,0.9072,0.9205,0.932,0.932,0.9634,0.9973,1.0196,1.0628,1.1224,1.1224,1.1208,1.1187,1.1187,1.1171,1.1151,1.1151,1.1151,1.1151,1.1151,1.138,1.1608,1.1722,1.1716,1.1926,1.2238,1.2158,1.2044,1.1855,1.1794,1.1784,1.1916,1.1873,1.1742,1.1775,1.1605,1.1472,1.1472,1.1316,1.1194,1.1194,1.1194,1.1194,1.1194,1.1194,1.1283,1.1501,1.152,1.1605,1.1808,1.1887,1.199,1.2096,1.2514,1.2714,1.2793,1.2714,1.2729,1.2837,1.2536,1.2332,1.2441,1.2441,1.2441,1.2441,1.2441,1.255,1.2739,1.2942,1.3136,1.3329,1.3561,1.3889,1.4133,1.4401,1.4416,1.4291,0.3252,0.3531,0.3932,0.3932,0.3626,0.3398,0.3425,0.3406,0.3436,0.357,0.3905,0.4298,0.4578,0.5044,0.5382,0.5382,0.5382,0.5491,0.5603,0.5826,0.6158,0.6495,0.6826,0.7046,0.7154,0.7379,0.7382,0.7382,0.7496,0.7718,0.7826,0.8156,0.8263,0.8263,0.8598,0.8712,0.8712,0.8826,0.894,0.895,0.9096,0.9195,0.9262,0.9347,0.9655,1.0069,1.0556,1.1091,1.1533,1.1533,1.1464,1.1378,1.1378,1.1305,1.1224,1.1224,1.1224,1.1224,1.1224,1.1339,1.1454,1.1684,1.185,1.2021,1.2361,1.2567,1.2564,1.2233,1.2077,1.203,1.2143,1.1973,1.1817,1.1817,1.1647,1.152,1.152,1.1331,1.1194,1.1194,1.1194,1.1194,1.1194,1.1302,1.1463,1.1671,1.1798,1.1954,1.2153,1.2257,1.2309,1.2309,1.2724,1.2881,1.2881,1.3098,1.3098,1.2881,1.2876,1.2767,1.2441,1.2441,1.2441,1.2441,1.2441,1.2669,1.2995,1.3207,1.3533,1.3869,1.4089,1.4172,1.4291,1.4764,1.4644,1.4535]},{"header":{"parameterUnit":"m.s-1","parameterCategory":1,"la1":30.6,"la2":28.766,"lo1":-90.7593,"lo2":-88.6598,"dy":0.0162,"dx":0.0183,"nx":116,"ny":114,"refTime":"2024-04-21T00:00:00:Z","depth":0,"parameterNumber":3,"parameterNumberName":"V-component_of_WINDS"},"data":[0.0,0.0,0.0,0.0,0.0,0.0,0.0,0.0,0.0,0.0,0.0,0.0,0.0,0.0,0.0,0.0,0.0,0.0,0.0,0.0,0.0,0.0,0.0,0.0,0.0,0.0,0.0,0.0,0.0,0.0,0.0,0.0,0.0,0.0,0.0,0.0,0.0,0.0,0.0,0.0,0.0,0.0,0.0,0.0,0.0,0.0,0.0,0.0,0.0,0.0,0.0,0.0,0.0,0.0,0.0,0.0,0.0,0.0,0.0,0.0,0.0,0.0,0.0,0.0,0.0,0.0,0.0,0.0,0.0,0.0,0.0,0.0,0.0,0.0,0.0,0.0,0.0,0.0,0.0,0.0,0.0,0.0,0.0,0.0,0.0,0.0,0.0,0.0,0.0,0.0,0.0,0.0,0.0,0.0,0.0,0.0,0.0,0.0,0.0,0.0,0.0,0.0,0.0,0.0,0.0,0.0,0.0,0.0,0.0,0.0,0.0,0.0,0.0,0.0,0.0,0.0,0.0,0.0,0.0,0.0,0.0,0.0,0.0,0.0,0.0,0.0,0.0,0.0,0.0,0.0,0.0,0.0,0.0,0.0,0.0,0.0,0.0,0.0,0.0,0.0,0.0,0.0,0.0,0.0,0.0,0.0,0.0,0.0,0.0,0.0,0.0,0.0,0.0,0.0,0.0,0.0,0.0,0.0,0.0,0.0,0.0,0.0,0.0,0.0,0.0,0.0,0.0,0.0,0.0,0.0,0.0,0.0,0.0,0.0,0.0,0.0,0.0,0.0,0.0,0.0,0.0,0.0,0.0,0.0,0.0,0.0,0.0,0.0,0.0,0.0,0.0,0.0,0.0,0.0,0.0,0.0,0.0,0.0,0.0,0.0,0.0,0.0,0.0,0.0,0.0,0.0,0.0,0.0,0.0,0.0,0.0,0.0,0.0,0.0,0.0,0.0,0.0,0.0,0.0,0.0,0.0,0.0,0.0,0.0,0.0,0.0,0.0,0.0,0.0,0.0,0.0,0.0,0.0,0.0,0.0,0.0,0.0,0.0,0.0,0.0,0.0,0.0,0.0,0.0,0.0,0.0,0.0,0.0,0.0,0.0,0.0,0.0,0.0,0.0,0.0,0.0,0.0,0.0,0.0,0.0,0.0,0.0,0.0,0.0,0.0,0.0,0.0,0.0,0.0,0.0,0.0,0.0,0.0,0.0,0.0,0.0,0.0,0.0,0.0,0.0,0.0,0.0,0.0,0.0,0.0,0.0,0.0,0.0,0.0,0.0,0.0,0.0,0.0,0.0,0.0,0.0,0.0,0.0,0.0,0.0,0.0,0.0,0.0,0.0,0.0,0.0,0.0,0.0,0.0,0.0,0.0,0.0,0.0,0.0,0.0,0.0,0.0,0.0,0.0,0.0,0.0,0.0,0.0,0.0,0.0,0.0,0.0,0.0,0.0,0.0,0.0,0.0,0.0,0.0,0.0,0.0,0.0,0.0,0.0,0.0,0.0,0.0,0.0,0.0,0.0,0.0,0.0,0.0,0.0,0.0,0.0,0.0,0.0,0.0,0.0,0.0,0.0,0.0,0.0,0.0,0.0,0.0,0.0,0.0,0.0,0.0,0.0,0.0,0.0,0.0,0.0,0.0,0.0,0.0,0.0,0.0,0.0,0.0,0.0,0.0,0.0,0.0,0.0,0.0,0.0,0.0,0.0,0.0,0.0,0.0,0.0,0.0,0.0,0.0,0.0,0.0,0.0,0.0,0.0,0.0,0.0,0.0,0.0,0.0,0.0,0.0,0.0,0.0,0.0,0.0,0.0,0.0,0.0,0.0,0.0,0.0,0.0,0.0,0.0,0.0,0.0,0.0,0.0,0.0,0.0,0.0,0.0,0.0,0.0,0.0,0.0,0.0,0.0,0.0,0.0,0.0,0.0,0.0,0.0,0.0,0.0,0.0,0.0,0.0,0.0,0.0,0.0,0.0,0.0,0.0,0.0,0.0,0.0,0.0,0.0,0.0,0.0,0.0,0.0,0.0,0.0,0.0,0.0,0.0,0.0,0.0,0.0,0.0,0.0,0.0,0.0,0.0,0.0,0.0,0.0,0.0,0.0,0.0,0.0,0.0,0.0,0.0,0.0,0.0,0.0,0.0,0.0,0.0,0.0,0.0,0.0,0.0,0.0,0.0,0.0,0.0,0.0,0.0,0.0,0.0,0.0,0.0,0.0,0.0,0.0,0.0,0.0,0.0,0.0,0.0,0.0,0.0,0.0,0.0,0.0,0.0,0.0,0.0,0.0,0.0,0.0,0.0,0.0,0.0,0.0,0.0,0.0,0.0,0.0,0.0,0.0,0.0,0.0,0.0,0.0,0.0,0.0,0.0,0.0,0.0,0.0,0.0,0.0,0.0,0.0,0.0,0.0,0.0,0.0,0.0,0.0,0.0,0.0,0.0,0.0,0.0,0.0,0.0,0.0,0.0,0.0,0.0,0.0,0.0,0.0,0.0,0.0,0.0,0.0,0.0,0.0,0.0,0.0,0.0,0.0,0.0,0.0,0.0,0.0,0.0,0.0,0.0,0.0,0.0,0.0,0.0,0.0,0.0,0.0,0.0,0.0,0.0,0.0,0.0,0.0,0.0,0.0,0.0,0.0,0.0,0.0,0.0,0.0,0.0,0.0,0.0,0.0,0.0,0.0,0.0,0.0,0.0,0.0,0.0,0.0,0.0,0.0,0.0,0.0,0.0,0.0,0.0,0.0,0.0,0.0,0.0,0.0,0.0,0.0,0.0,0.0,0.0,0.0,0.0,0.0,0.0,0.0,0.0,0.0,0.0,0.0,0.0,0.0,0.0,0.0,0.0,0.0,0.0,0.0,0.0,0.0,0.0,0.0,0.0,0.0,0.0,0.0,0.0,0.0,0.0,0.0,0.0,0.0,0.0,0.0,0.0,0.0,0.0,0.0,0.0,0.0,0.0,0.0,0.0,0.0,0.0,0.0,0.0,0.0,0.0,0.0,0.0,0.0,0.0,0.0,0.0,0.0,0.0,0.0,0.0,0.0,0.0,0.0,0.0,0.0,0.0,0.0,0.0,0.0,0.0,0.0,0.0,0.0,0.0,0.0,0.0,0.0,0.0,0.0,0.0,0.0,0.0,0.0,0.0,0.0,0.0,0.0,0.0,0.0,0.0,0.0,0.0,0.0,0.0,0.0,0.0,0.0,0.0,0.0,0.0,0.0,0.0,0.0,0.0,0.0,0.0,0.0,0.0,0.0,0.0,0.0,0.0,0.0,0.0,0.0,0.0,0.0,0.0,0.0,0.0,0.0,0.0,0.0,0.0,0.0,0.0,0.0,0.0,0.0,0.0,0.0,0.0,0.0,0.0,0.0,0.0,0.0,0.0,0.0,0.0,0.0,0.0,0.0,0.0,0.0,0.0,0.0,0.0,0.0,0.0,0.0,0.0,0.0,0.0,0.0,0.0,0.0,0.0,0.0,0.0,0.0,0.0,0.0,0.0,0.0,0.0,0.0,0.0,0.0,0.0,0.0,0.0,0.0,0.0,0.0,0.0,0.0,0.0,0.0,0.0,0.0,0.0,0.0,0.0,0.0,0.0,0.0,0.0,0.0,0.0,0.0,0.0,0.0,0.0,0.0,0.0,0.0,0.0,0.0,0.0,0.0,0.0,0.0,0.0,0.0,0.0,0.0,0.0,0.0,0.0,0.0,0.0,0.0,0.0,0.0,0.0,0.0,0.0,0.0,0.0,0.0,0.0,0.0,0.0,0.0,0.0,0.0,0.0,0.0,0.0,0.0,0.0,0.0,0.0,0.0,0.0,0.0,0.0,0.0,0.0,0.0,0.0,0.0,0.0,0.0,0.0,0.0,0.0,0.0,0.0,0.0,0.0,0.0,0.0,0.0,0.0,0.0,0.0,0.0,0.0,0.0,0.0,0.0,0.0,0.0,0.0,0.0,0.0,0.0,0.0,0.0,0.0,0.0,0.0,0.0,0.0,0.0,0.0,0.0,0.0,0.0,0.0,0.0,0.0,0.0,0.0,0.0,0.0,0.0,0.0,0.0,0.0,0.0,0.0,0.0,0.0,0.0,0.0,0.0,0.0,0.0,0.0,0.0,0.0,0.0,0.0,0.0,0.0,0.0,0.0,0.0,0.0,0.0,0.0,0.0,0.0,0.0,0.0,0.0,0.0,0.0,0.0,0.0,0.0,0.0,0.0,0.0,0.0,0.0,0.0,0.0,0.0,0.0,0.0,0.0,0.0,0.0,0.0,0.0,0.0,0.0,0.0,0.0,0.0,0.0,0.0,0.0,0.0,0.0,0.0,0.0,0.0,0.0,0.0,0.0,0.0,0.0,0.0,0.0,0.0,0.0,0.0,0.0,0.0,0.0,0.0,0.0,0.0,0.0,0.0,0.0,0.0,0.0,0.0,0.0,0.0,0.0,0.0,0.0,0.0,0.0,0.0,0.0,0.0,0.0,0.0,0.0,0.0,0.0,0.0,0.0,0.0,0.0,0.0,0.0,0.0,0.0,0.0,0.0,0.0,0.0,0.0,0.0,0.0,0.0,0.0,0.0,0.0,0.0,0.0,0.0,0.0,0.0,0.0,0.0,0.0,0.0,0.0,0.0,0.0,0.0,0.0,0.0,0.0,0.0,0.0,0.0,0.0,0.0,0.0,0.0,0.0,0.0,0.0,0.0,0.0,0.0,0.0,0.0,0.0,0.0,0.0,0.0,0.0,0.0,0.0,0.0,0.0,0.0,0.0,0.0,0.0,0.0,0.0,0.0,0.0,0.0,0.0,0.0,0.0,0.0,0.0,0.0,0.0,0.0,0.0,0.0,0.0,0.0,0.0,0.0,0.0,0.0,0.0,0.0,0.0,0.0,0.0,0.0,0.0,0.0,0.0,0.0,0.0,0.0,0.0,0.0,0.0,0.0,0.0,0.0,0.0,0.0,0.0,0.0,0.0,0.0,0.0,0.0,0.0,0.0,0.0,0.0,0.0,0.0,0.0,0.0,0.0,0.0,0.0,0.0,0.0,0.0,0.0,0.0,0.0,0.0,0.0,0.0,0.0,0.0,0.0,0.0,0.0,0.0,0.0,0.0,0.0,0.0,0.0,0.0,0.0,0.0,0.0,0.0,0.0,0.0,0.0,0.0,0.0,0.0,0.0,0.0,0.0,0.0,0.0,0.0,0.0,0.0,0.0,0.0,0.0,0.0,0.0,0.0,0.0,0.0,0.0,0.0,0.0,0.0,0.0,0.0,0.0,0.0,0.0,0.0,0.0,0.0,0.0,0.0,0.0,0.0,0.0,0.0,0.0,0.0,0.0,0.0,0.0,0.0,0.0,0.0,0.0,0.0,0.0,0.0,0.0,0.0,0.0,0.0,0.0,0.0,0.0,0.0,0.0,0.0,0.0,0.0,0.0,0.0,0.0,0.0,0.0,0.0,0.0,0.0,0.0,0.0,0.0,0.0,0.0,0.0,0.0,0.0,0.0,0.0,0.0,0.0,0.0,0.0,0.0,0.0,0.0,0.0,0.0,0.0,0.0,0.0,0.0,0.0,0.0,0.0,0.0,0.0,0.0,0.0,0.0,0.0,0.0,0.0,0.0,0.0,0.0,0.0,0.0,0.0,0.0,0.0,0.0,0.0,0.0,0.0,0.0,0.0,0.0,0.0,0.0,0.0,0.0,0.0,0.0,0.0,0.0,0.0,0.0,0.0,0.0,0.0,0.0,0.0,0.0,0.0,0.0,0.0,0.0,0.0,0.0,0.0,0.0,0.0,0.0,0.0,0.0,0.0,0.0,0.0,0.0,0.0,0.0,0.0,0.0,0.0,0.0,0.0,0.0,0.0,0.0,0.0,0.0,0.0,0.0,0.0,0.0,0.0,0.0,0.0,0.0,0.0,0.0,0.0,0.0,0.0,0.0,0.0,0.0,0.0,0.0,0.0,0.0,0.0,0.0,0.0,0.0,0.0,0.0,0.0,0.0,0.0,0.0,0.0,0.0,0.0,0.0,0.0,0.0,0.0,0.0,0.0,0.0,0.0,0.0,0.0,0.0,0.0,0.0,0.0,0.0,0.0,0.0,1.7255,0.0,0.0,0.0,0.0,0.0,0.0,0.0,0.0,0.0,0.0,0.0,0.0,0.0,0.0,0.0,0.0,0.0,0.0,0.0,0.0,0.0,0.0,0.0,0.0,0.4861,0.5335,0.5302,0.6683,0.755,0.7609,0.0,0.0,0.0,0.0,0.0,0.5583,0.5182,0.5923,0.7863,0.8173,0.9253,1.1042,1.2079,1.1189,0.8813,0.0,0.0,0.0,0.0,0.0,0.0,0.0,0.0,0.0,0.0,0.0,0.0,0.0,0.0,0.0,0.0,0.0,0.0,0.0,0.0,0.0,0.0,0.0,0.0,0.0,0.0,0.0,0.0,0.0,0.0,0.0,0.0,0.0,0.0,0.0,0.0,0.0,0.0,0.0,0.0,0.0,0.0,0.0,0.0,0.0,0.0,0.0,0.0,0.0,0.0,0.0,0.0,0.0,0.0,0.0,0.0,0.0,0.0,0.0,0.0,0.0,0.0,0.0,0.0,0.0,0.0,0.0,0.0,0.0,0.0,0.0,2.0143,0.0,0.0,0.0,0.0,0.0,0.0,0.0,0.0,0.0,0.0,0.0,0.0,0.0,0.0,0.0,0.0,0.0,0.0,0.0,0.0,0.0,0.4341,0.4362,0.5127,0.5938,0.6673,0.748,0.8197,0.8783,0.7498,0.6783,0.6918,0.5504,0.5143,0.6088,0.6073,0.7166,0.9507,1.0715,1.2695,1.5384,1.7545,1.6458,1.2671,1.3008,0.0,0.0,0.0,0.0,0.0,0.0,0.0,0.0,0.0,0.0,0.0,0.0,0.0,0.0,0.0,0.0,0.0,0.0,0.0,0.0,0.0,0.0,0.0,0.0,0.0,0.0,0.0,0.0,0.0,0.0,0.0,0.0,0.0,0.0,0.0,0.0,0.0,0.0,0.0,0.0,0.0,0.0,0.0,0.0,0.0,0.0,0.0,0.0,0.0,0.0,0.0,0.0,0.0,0.0,0.0,0.0,0.0,0.0,0.0,0.0,0.0,0.0,0.0,2.6984,2.8272,2.9966,3.011,3.0833,3.1684,2.7331,2.579,2.6136,2.3151,0.0,0.0,0.0,0.0,0.0,0.0,0.0,0.0,0.0,0.0,0.0,0.0,0.0,0.0,0.0,0.0,0.0,0.0,0.0,0.4703,0.5341,0.6135,0.6893,0.7575,0.8422,0.8904,0.888,0.7567,0.7104,0.7796,0.6362,0.6244,0.775,0.7777,0.887,1.11,1.4519,1.6998,1.863,2.0899,2.0875,1.885,1.7558,0.0,0.0,0.0,0.0,0.0,0.0,0.0,0.0,0.0,0.0,0.0,0.0,0.0,0.0,0.0,0.0,0.0,0.0,0.0,0.0,0.0,0.0,0.0,0.0,0.0,0.0,0.0,0.0,0.0,0.0,0.0,0.0,0.0,0.0,0.0,0.0,0.0,0.0,0.0,0.0,0.0,0.0,0.0,1.4427,1.6,0.0,0.0,0.0,0.0,0.0,0.0,0.0,0.0,0.0,0.0,0.0,0.0,0.0,2.5329,2.7501,2.9549,3.1033,3.2027,3.3311,3.4175,3.4549,3.4549,3.4956,3.5646,3.5069,0.0,2.9349,2.7004,0.0,0.0,0.0,0.0,0.0,0.0,0.0,0.0,0.0,0.0,0.0,0.0,0.0,0.0,0.0,0.0,0.0,0.0,0.0,0.0,0.0,0.7805,0.9088,0.9767,1.1373,1.1781,1.0392,0.9765,0.9047,0.8153,0.707,0.7248,0.885,0.9724,1.2102,1.6062,1.939,2.1559,2.2609,2.4787,2.539,2.4637,2.3778,2.1737,1.8783,1.6656,0.0,0.0,0.0,0.0,0.0,0.0,0.0,0.0,0.0,0.0,0.0,0.0,0.0,0.0,0.0,0.0,0.0,0.0,0.0,0.0,0.0,0.0,0.0,0.0,0.0,0.0,0.0,0.0,0.0,0.0,0.0,0.0,0.0,0.0,0.0,0.0,0.0,0.0,0.0,1.4043,1.7019,1.7687,1.8254,1.8151,0.0,0.0,0.0,0.0,0.0,0.0,0.0,0.0,0.0,2.7554,2.9127,3.0654,3.2179,3.4423,3.5698,3.6038,3.7263,3.8252,3.8945,3.9149,3.9559,4.0148,4.0326,3.9063,3.6582,3.2278,2.9454,2.7637,0.0,0.0,0.0,0.0,2.4996,2.5246,0.0,0.0,0.0,0.0,0.0,0.0,0.0,0.0,0.0,0.0,0.0,0.0,0.7637,0.9738,1.1487,1.2557,1.4103,1.4329,1.276,1.1809,1.0667,0.9242,0.8257,0.8504,1.0123,1.2638,1.6232,2.0962,2.3724,2.5477,2.6225,2.8164,2.89,2.8629,2.863,2.6264,2.2108,1.9984,1.837,0.0,0.0,0.0,0.0,0.0,0.0,0.0,0.0,0.0,0.0,0.0,0.0,0.0,0.0,0.0,0.0,0.0,0.0,0.0,0.0,0.0,0.0,0.0,0.0,0.0,0.0,0.0,0.0,0.0,0.0,0.0,0.0,0.0,0.0,0.0,0.0,0.0,0.0,1.6846,1.9536,1.98,2.1201,2.1399,0.0,0.0,0.0,0.0,0.0,0.0,2.6503,2.8454,3.0381,3.2183,3.4077,3.5545,3.6654,3.8624,3.9645,3.9727,4.0607,4.1464,4.2317,4.2619,4.2949,4.336,4.3554,4.3301,4.2347,3.6999,3.4062,3.2588,3.0204,2.9034,2.8852,2.9871,3.0006,3.0003,0.0,0.0,0.0,0.0,0.0,0.0,0.0,0.0,0.0,0.0,0.0,0.7885,1.0166,1.1868,1.3734,1.5875,1.5584,1.5495,1.6017,1.2716,1.1053,1.1787,1.0311,1.0263,1.192,1.7047,2.1227,2.4349,2.6677,2.8191,2.8953,3.0445,3.0618,2.9741,3.0454,2.9868,2.8123,2.4391,2.24,2.1368,0.0,0.0,0.0,0.0,0.0,0.0,0.0,0.0,0.0,0.0,0.0,0.0,0.0,0.0,0.0,0.0,0.0,0.0,0.0,0.0,0.0,0.0,0.0,0.0,0.0,0.0,0.0,0.0,0.0,0.0,0.0,0.0,0.0,0.0,0.0,0.0,0.0,0.0,0.0,2.3636,2.5295,0.0,0.0,0.0,0.0,2.6705,2.8819,3.0829,3.2553,3.4073,3.5711,3.7457,3.8437,3.9633,4.1156,4.222,4.3057,4.3623,4.3951,4.4049,4.3983,4.4137,4.42,4.4236,4.4236,4.4218,4.3917,4.0237,3.8265,3.7306,3.4909,3.3949,3.3981,3.4559,3.4771,3.4857,0.0,0.0,0.0,0.0,0.0,0.4612,0.4403,0.4554,0.4925,0.5582,0.7434,0.9611,1.1952,1.4616,1.6914,1.8662,1.9057,1.8695,1.7415,1.5633,1.4586,1.4511,1.3561,1.4978,1.9147,2.2007,2.4954,2.8076,2.9215,3.0198,3.0927,3.2264,3.2451,3.1663,3.2686,3.2331,3.0729,2.7589,2.5285,2.3528,2.1032,1.8188,0.0,0.0,0.0,0.0,0.0,0.0,0.0,0.0,0.0,0.0,0.0,0.0,0.0,0.0,0.0,0.0,0.0,0.0,0.0,0.0,0.0,0.0,0.0,0.0,0.0,0.0,0.0,0.0,0.0,0.0,0.0,0.0,0.0,0.0,0.0,0.0,0.0,2.6556,2.9039,0.0,2.8058,2.969,3.0957,3.1287,3.3365,3.5109,3.6394,3.7329,3.8708,4.0541,4.1421,4.2427,4.3622,4.4947,4.5552,4.5302,4.6032,4.6283,4.6132,4.6301,4.6283,4.6239,4.6327,4.6344,4.6219,4.4552,4.2852,4.1153,3.9693,3.8866,3.8518,3.8638,3.8409,3.8063,0.0,0.0,0.0,0.0,0.0,0.4753,0.4598,0.4931,0.5671,0.6943,0.9091,1.1653,1.4626,1.7325,1.9418,2.0658,2.1498,2.1078,1.8971,1.8157,1.7479,1.6832,1.7202,1.9632,2.4383,2.617,2.8437,3.1334,3.1865,3.2549,3.328,3.4067,3.4135,3.3621,3.4376,3.4091,3.2949,3.0992,2.8613,2.5992,2.3978,2.1513,1.8868,0.0,0.0,0.0,0.0,0.0,0.0,0.0,0.0,0.0,0.0,0.0,0.0,0.0,0.0,0.0,0.0,0.0,0.0,0.0,0.0,0.0,0.0,0.0,0.0,0.0,0.0,0.0,0.0,0.0,0.0,0.0,0.0,0.0,0.0,0.0,2.8768,2.9403,3.2138,3.333,3.1739,3.3847,3.5332,3.5368,3.7509,3.9089,3.9765,4.0798,4.193,4.3207,4.4037,4.4785,4.549,4.6765,4.7144,4.6687,4.7409,4.7681,4.7518,4.7705,4.7747,4.7645,4.7747,4.7788,4.7752,4.7288,4.6273,4.4821,4.3435,4.2662,4.2315,4.2234,4.1895,4.1515,0.0,0.0,0.0,0.0,0.0,0.4831,0.4897,0.5534,0.6953,0.9554,1.1321,1.3961,1.8173,1.9905,2.1098,2.1922,2.2671,2.2414,2.0852,2.0006,1.932,1.8749,2.1249,2.4082,2.7063,2.9448,3.1751,3.3965,3.4549,3.5239,3.5987,3.5833,3.5656,3.5504,3.5429,3.5258,3.4996,3.4631,3.2426,2.9019,2.6556,2.4929,2.3719,0.0,0.0,0.0,0.0,0.0,0.0,0.0,0.0,0.0,0.0,0.0,0.0,0.0,0.0,0.0,0.0,0.0,0.0,0.0,0.0,0.0,0.0,0.0,0.0,0.0,0.0,0.0,0.0,0.0,0.0,0.0,0.0,0.0,2.6571,2.971,3.2141,3.2389,3.4622,3.5916,3.5313,3.7506,3.8974,3.9049,4.1238,4.2663,4.2897,4.4421,4.5409,4.5524,4.6387,4.6827,4.6846,4.7649,4.7933,4.7834,4.809,4.813,4.8032,4.8229,4.8306,4.8306,4.8306,4.8306,4.8306,4.8306,4.8364,4.8218,4.6066,4.5269,4.533,4.5214,4.5236,4.5228,0.0,0.0,0.0,0.4723,0.4802,0.4872,0.4903,0.5657,0.7147,0.9714,1.1995,1.496,1.909,2.0972,2.2472,2.3802,2.3116,2.2374,2.1891,2.0073,1.9758,2.1428,2.6217,2.92,2.996,3.2837,3.4573,3.5052,3.5697,3.6141,3.6305,3.6626,3.6466,3.589,3.678,3.6502,3.5291,3.5489,3.4207,3.1873,2.9702,2.7315,2.4843,0.0,0.0,0.0,0.0,0.0,0.0,0.0,0.0,0.0,0.0,0.0,0.0,0.0,0.0,0.0,0.0,0.0,0.0,0.0,0.0,0.0,0.0,0.0,0.0,0.0,0.0,0.0,0.0,0.0,0.0,0.0,2.9505,3.225,3.1648,3.4076,3.6181,3.6897,3.8683,3.962,3.8996,4.127,4.2557,4.2087,4.3722,4.4835,4.5022,4.5423,4.5973,4.6634,4.6891,4.7332,4.8032,4.8271,4.8363,4.8383,4.8439,4.8495,4.8439,4.8476,4.8569,4.866,4.866,4.8732,4.8802,4.8802,4.8837,4.8746,4.7831,4.7241,4.6801,4.6783,4.6488,4.6131,0.0,0.0,0.0,0.4735,0.4827,0.4903,0.4941,0.6026,0.7774,1.0356,1.3146,1.634,2.0193,2.2073,2.3293,2.3821,2.3651,2.2935,2.1498,2.1471,2.2812,2.5704,3.0056,3.2556,3.2765,3.5208,3.6547,3.667,3.6972,3.7266,3.7544,3.7764,3.7607,3.7174,3.7838,3.753,3.653,3.6631,3.5807,3.4298,3.2907,3.052,2.7582,2.5614,2.4331,2.3373,2.1762,2.1001,2.054,1.8931,0.0,0.0,0.0,0.0,0.0,0.0,0.0,0.0,0.0,0.0,0.0,0.0,0.0,0.0,0.0,0.0,0.0,0.0,0.0,0.0,0.0,0.0,0.0,0.0,3.3725,3.6561,3.7073,3.8026,3.9012,3.9986,4.0979,4.1596,4.1686,4.3378,4.4327,4.3904,4.548,4.647,4.6614,4.6928,4.7351,4.7867,4.7957,4.8233,4.8768,4.8732,4.8714,4.8767,4.8767,4.8767,4.8767,4.882,4.889,4.9012,4.9012,4.9094,4.922,4.922,4.927,0.0,0.0,0.0,0.0,0.0,4.8035,4.7652,0.0,0.0,0.0,0.479,0.4874,0.4959,0.5129,0.6545,0.8618,1.1421,1.4405,1.7644,2.121,2.2868,2.3467,2.2767,2.4032,2.3658,2.0847,2.3765,2.6973,3.0042,3.2828,3.4553,3.5108,3.6825,3.7915,3.8329,3.8247,3.8503,3.9129,3.8921,3.8792,3.8719,3.8619,3.8409,3.8119,3.7882,3.7129,3.6093,3.564,3.3733,3.0971,2.885,2.8135,2.7974,2.5627,2.4223,2.3226,2.151,0.0,0.0,0.0,0.0,0.0,0.0,0.0,0.0,0.0,0.0,0.0,0.0,0.0,0.0,0.0,0.0,0.0,0.0,0.0,0.0,0.0,0.0,0.0,0.0,3.7616,4.0336,4.2038,4.1447,4.1107,4.1977,4.2247,4.2681,4.3587,4.457,4.5121,4.5121,4.6771,4.78,4.78,0.0,0.0,0.0,0.0,4.9197,4.9197,4.9094,4.9042,4.9042,4.9042,4.9042,4.9042,4.9179,4.9276,4.934,4.9352,4.9427,4.9558,4.9558,4.9665,4.9788,4.9358,4.9239,4.9308,4.9415,4.9476,4.9363,0.0,0.0,0.4867,0.4886,0.4931,0.5223,0.5931,0.6979,0.9099,1.3084,1.4714,1.7062,2.1146,2.194,2.2326,2.2732,2.3114,2.3354,2.3423,2.5962,2.8068,2.9366,3.3763,3.5897,3.5266,3.8154,3.9296,3.8539,3.9039,3.9302,3.9324,3.9129,3.9045,3.9026,3.9424,3.915,3.8354,3.8739,3.7882,3.6238,3.598,3.453,3.2376,3.1676,3.0532,2.9303,2.8547,2.751,2.6326,2.5258,2.3858,2.2286,2.067,0.0,0.0,0.0,0.0,0.0,0.0,0.0,0.0,0.0,0.0,0.0,0.0,0.0,0.0,0.0,0.0,0.0,0.0,0.0,0.0,3.6564,3.968,4.2239,4.3379,4.3347,4.3244,4.3272,4.3947,4.4528,4.4757,4.6257,4.7229,4.7229,4.8245,4.8889,4.8889,4.9052,4.9146,4.9146,4.9179,4.9197,4.9197,4.9244,4.9225,4.9225,0.0,0.0,4.9321,4.9427,4.9506,4.9634,4.9673,4.9788,4.9906,4.9906,4.9986,5.0089,4.9833,4.975,4.9769,4.9797,4.9824,4.986,0.0,0.482,0.4868,0.4902,0.4949,0.5307,0.6221,0.7109,0.8935,1.2406,1.4315,1.6473,1.9425,2.0522,2.1029,2.0949,2.141,2.2599,2.4762,2.6888,2.8988,3.1052,3.4781,3.6747,3.6592,3.9042,3.9967,3.929,3.9554,3.9599,3.9471,3.9773,3.9602,3.9138,3.9771,3.9498,3.8564,3.8673,3.8111,3.7095,3.6806,3.5993,3.4762,3.3551,3.2258,3.1055,3.0658,2.9387,2.7745,2.7147,2.5807,2.4178,2.292,2.1315,1.9507,0.0,0.0,0.0,0.0,0.0,0.0,0.0,0.0,0.0,0.0,0.0,0.0,0.0,0.0,2.9543,3.2314,0.0,3.8218,4.0848,4.2664,4.3962,4.4568,4.4668,4.4501,4.3929,4.4244,4.4735,4.5239,4.6488,4.7415,4.7876,4.8744,4.9276,4.9308,4.9371,4.9452,4.9495,4.9495,4.9525,4.9537,4.9596,4.9596,4.9596,4.9625,4.9655,4.9655,4.9693,4.9769,4.9898,4.9925,5.0057,5.0207,5.0231,5.0302,5.0393,5.0302,5.0207,5.0089,5.0089,5.0114,5.0158,0.0,0.0,0.4849,0.4902,0.4977,0.534,0.626,0.7144,0.8633,1.123,1.3496,1.5527,1.7207,1.8608,1.9262,1.8909,1.9868,2.1948,2.5376,2.7342,2.9788,3.2986,3.5403,3.7077,3.792,3.9237,3.9887,3.983,3.9667,3.9513,3.9325,4.0115,3.9997,3.9212,3.988,3.9649,3.8707,3.8615,3.8334,3.7881,3.7577,3.7317,3.6869,3.4966,3.3665,3.2753,3.2328,3.0573,2.8434,2.8106,2.6906,2.5357,2.4628,2.3442,2.1903,1.9878,1.8693,0.0,0.0,0.0,0.0,0.0,0.0,0.0,0.0,0.0,2.6527,2.9814,3.2031,3.4455,3.7954,3.9758,4.1599,4.4402,4.5152,4.5417,4.5457,4.5499,4.5212,4.4322,4.433,4.4733,4.5466,4.6438,4.733,4.8035,4.8902,4.9415,4.9476,4.9585,4.9721,4.9835,4.9835,4.9871,4.9952,4.9933,4.9978,4.9978,4.9959,4.9986,4.9986,5.0012,5.0063,5.0188,5.0188,5.0283,5.0438,5.0502,5.0584,5.0604,5.0624,5.0542,5.0396,5.0352,5.0352,5.0371,0.0,0.0,0.0,0.4984,0.504,0.5389,0.6262,0.7147,0.8609,1.1172,1.2373,1.3653,1.5405,1.5757,1.6444,1.7907,1.9557,2.1954,2.5381,2.7945,3.0484,3.3078,3.4885,3.6543,3.8035,3.8142,3.8517,3.9199,3.8956,3.8774,3.8701,3.9331,3.9539,3.9384,4.0002,3.9737,3.8829,3.9342,3.8955,3.7949,3.7739,3.7503,3.7132,3.6022,3.4909,3.3876,3.3536,3.141,2.874,2.8515,2.7288,2.5791,2.5508,2.483,2.3838,2.2408,0.0,1.98,1.9267,1.9445,0.0,2.4088,2.4345,2.5327,0.0,0.0,3.2711,3.5295,3.7392,3.894,3.9606,4.1804,4.3708,4.4191,4.555,4.6314,4.5752,4.5669,4.5425,4.4726,4.5143,4.5604,4.5735,4.7193,4.82,4.8352,4.923,4.975,4.9731,4.9816,4.9898,4.9978,4.9978,5.0005,5.0082,5.0158,5.0163,5.0163,5.0231,5.0302,5.0348,5.0393,5.044,5.0466,5.0507,5.0567,5.0586,5.0664,5.0682,5.0682,5.0757,5.0757,5.072,5.0606,5.0567,5.0567,0.0,0.0,0.0,0.5034,0.5075,0.5569,0.6946,0.746,0.8599,1.1118,1.1737,1.2378,1.3531,1.4157,1.4815,1.5613,1.8203,2.0814,2.3232,2.6318,2.9158,3.165,3.3394,3.504,3.6598,3.7051,3.7847,3.9044,3.8899,3.8743,3.8593,3.9293,3.9038,3.8022,3.867,3.8414,3.7525,3.7617,3.732,3.6761,3.6546,3.6307,3.5918,3.4905,3.3876,3.2904,3.2211,3.017,0.0,0.0,2.6067,2.4946,2.4862,2.4265,2.3391,2.245,2.2377,0.0,2.4377,0.0,0.0,0.0,2.94,3.1119,3.3715,3.5208,3.6602,3.8655,4.0233,4.1595,4.2765,4.3633,4.4535,0.0,4.5975,4.6034,4.5782,4.581,4.5447,4.4266,4.4815,4.5469,4.5889,4.6569,4.7408,4.8445,4.887,4.9359,4.9959,5.0005,5.0082,5.0231,5.0231,5.0278,5.039,5.0435,5.0418,5.0423,5.0485,5.0545,5.0586,5.0587,5.0644,5.0681,5.0754,5.0771,5.0771,5.0789,5.0841,5.0877,5.0909,5.0945,5.0945,5.0773,5.072,5.072,0.0,0.0,0.0,0.5003,0.5096,0.5525,0.6797,0.7161,0.8011,1.0035,1.0499,1.0955,1.1725,1.2214,1.2812,1.3642,1.6701,1.9491,2.1656,2.4846,2.7752,3.0258,3.1566,3.3075,3.4863,3.523,3.6252,3.8008,3.7887,3.789,3.7936,3.8685,3.8324,3.7042,3.7524,3.7314,3.6618,3.6343,3.5985,3.5581,3.5358,3.4975,3.4355,3.3156,3.2033,3.1005,3.0646,2.8919,0.0,0.0,2.4917,2.4123,2.4123,2.3661,2.3147,2.3144,2.4215,2.5794,2.7761,0.0,0.0,3.1311,3.3695,3.5723,3.6041,3.7826,3.9749,4.0781,4.1839,4.2946,4.4147,4.4202,4.4571,4.6102,4.6027,4.5829,4.5892,4.5791,4.5211,4.3923,4.4121,4.4676,4.5404,4.5824,4.6695,4.8226,4.858,4.9169,5.0169,5.0231,5.0325,5.0481,5.0502,5.0584,5.0683,5.0683,5.0683,5.0663,5.0718,5.0754,5.0771,5.08,5.0832,5.0902,5.0917,5.0952,5.0952,5.0956,5.0971,5.102,5.102,5.1053,5.1087,5.0929,5.0861,5.0861,0.0,0.0,0.0,0.0,0.5057,0.5117,0.5176,0.5795,0.6545,0.7403,0.8249,0.9119,0.9987,0.9404,0.9986,1.2525,1.5217,1.8216,2.1582,2.4272,2.6888,2.9433,2.9527,3.0671,3.3112,3.2317,3.3063,3.5513,3.5305,3.5587,3.6273,3.7046,3.7276,3.7094,3.7066,3.692,3.6697,3.6408,3.5742,3.4816,3.4558,3.3858,3.2781,3.112,2.9515,2.8275,2.9353,0.0,0.0,2.5293,2.4385,2.3619,2.3704,2.3608,0.0,2.5569,2.6912,2.7823,0.0,0.0,3.1433,3.4708,3.6388,3.7882,4.0322,4.176,4.2372,4.1635,4.2342,4.2885,4.2288,4.2919,4.3851,4.4808,4.5533,4.6051,4.6177,4.5527,4.476,4.3988,4.3229,4.3157,0.0,4.5459,4.6706,4.7647,4.8563,4.9516,5.0421,5.0542,5.0624,5.0682,5.0738,5.0829,5.0899,5.0893,5.089,5.089,5.089,5.0937,5.099,5.1069,5.1101,5.1095,5.1095,5.1095,5.1095,5.1095,5.1101,5.1101,5.1101,5.1101,5.1101,5.1087,5.1053,5.0986,0.0,0.0,0.0,0.0,0.0,0.4438,0.4837,0.572,0.6591,0.7311,0.7575,0.0,0.0,0.0,0.0,0.0,1.3442,1.6203,1.9082,2.1736,2.4051,2.6038,2.716,2.8376,2.9741,3.053,3.1827,3.3736,3.4163,3.4454,3.4601,3.4832,3.4565,3.3896,3.3813,3.3661,3.3496,3.3315,3.2948,3.2419,3.1683,3.1127,3.0575,2.9444,2.7665,2.579,0.0,0.0,0.0,2.2464,2.1906,2.171,2.2254,2.2367,2.2851,2.5712,2.7359,2.8864,0.0,0.0,3.5743,3.7942,3.9743,4.1252,4.2147,4.2762,4.3007,4.2707,4.213,4.1644,4.141,4.1647,4.2233,4.327,4.4064,4.4786,4.5494,4.5407,4.4743,4.3349,4.3963,0.0,0.0,0.0,0.0,4.7737,4.8279,4.9144,5.0625,5.072,5.0754,5.0841,5.0858,5.089,5.0966,5.0981,5.099,5.103,5.1076,5.1113,5.1128,5.115,5.1169,5.1167,5.1159,5.1178,5.1167,5.1167,5.1156,5.1163,5.1163,5.1171,5.1166,5.1171,5.112,5.1063,0.0,0.0,0.0,0.0,0.0,0.0,0.0,0.0,0.0,0.0,0.0,0.0,0.0,0.0,0.0,0.0,0.0,1.4414,1.734,1.9394,2.1267,2.2974,2.4046,2.5005,2.5826,2.7125,2.857,3.0175,3.1238,3.1832,3.2029,3.225,3.203,3.143,3.1337,3.1202,3.1078,3.095,3.0567,2.9984,2.9071,2.8427,2.7835,2.6393,2.4669,0.0,0.0,0.0,2.0545,2.0453,2.0556,2.0893,2.175,2.2988,2.4569,2.6783,2.881,3.1075,0.0,3.6687,3.8549,4.0492,4.201,4.31,4.3512,4.348,4.3189,4.2605,4.1269,4.0037,3.9456,3.9136,3.9485,4.115,4.2048,4.3097,4.467,4.4978,4.4632,4.3482,4.4093,4.4338,0.0,0.0,0.0,4.7471,4.8022,4.888,5.032,5.0697,5.0902,5.0966,5.0995,5.1037,5.1076,5.1069,5.1093,5.1139,5.121,5.122,5.1211,5.123,5.124,5.124,5.124,5.124,5.1259,5.1561,5.1473,5.1229,5.1541,5.1461,5.1197,5.12,5.1169,5.1128,0.0,0.0,0.0,0.0,0.0,0.0,0.0,0.0,0.0,0.0,0.0,0.0,0.0,0.0,0.0,0.0,0.0,0.0,1.621,1.7339,0.0,2.033,2.0416,2.0843,2.1706,2.2458,2.3608,2.5168,2.6707,2.7822,2.857,2.9319,2.9674,2.9633,2.9581,2.9456,2.9326,2.9173,2.8547,2.7624,2.6588,2.5692,2.4653,2.2254,0.0,0.0,0.0,0.0,0.0,1.9432,0.0,2.1409,2.2303,2.5326,2.8616,2.8778,3.1206,3.4403,3.6883,3.8412,3.99,4.2369,4.3109,4.3482,4.444,4.397,4.2896,4.1339,3.9713,3.8061,0.0,0.0,3.5902,3.8539,3.9727,4.1222,4.3844,4.4333,4.4383,0.0,0.0,0.0,0.0,0.0,0.0,4.695,0.0,4.8725,4.9708,5.0563,5.105,5.1108,5.1167,5.1219,5.12,5.1201,5.1211,5.1211,5.1258,5.1258,5.122,5.1284,5.1292,5.1295,5.1295,5.1295,5.1373,5.2164,5.2008,5.1347,5.2183,5.2008,5.1269,5.1211,5.1211,5.1201,0.0,0.0,0.0,0.0,0.0,0.0,0.0,0.0,0.0,0.0,0.0,0.0,0.0,0.0,0.0,0.0,0.0,0.0,1.276,1.4893,0.0,0.0,0.0,0.0,0.0,0.0,0.0,2.3441,2.3803,2.438,2.5158,2.5311,2.5658,2.6162,2.6106,2.5995,2.5824,2.5162,2.4967,2.4947,0.0,2.2246,2.2428,0.0,0.0,0.0,0.0,0.0,0.0,0.0,0.0,0.0,0.0,2.7194,2.9762,3.0432,3.3099,3.6196,3.8042,4.0318,4.2455,4.3689,4.3788,4.3642,4.3894,4.2446,4.0576,3.8861,3.68,3.4783,0.0,0.0,0.0,3.6983,3.9073,0.0,4.3978,4.4395,0.0,4.4442,0.0,4.595,4.5576,4.6158,0.0,0.0,4.8405,4.9186,5.0739,5.1023,5.119,5.1258,5.1269,5.1267,5.1261,5.1269,5.1269,5.1269,5.1296,5.1323,5.1349,5.1375,5.1356,5.1296,5.1349,5.1349,5.1374,5.2224,5.245,5.2278,5.2494,5.2417,5.2106,5.1502,5.1278,5.1278,0.0,0.0,0.0,0.0,0.0,0.0,0.0,0.0,0.0,0.0,0.0,0.0,0.0,0.0,0.0,0.0,0.0,0.0,0.0,1.2548,0.0,0.0,0.0,0.0,0.0,0.0,0.0,0.0,0.0,0.0,2.0584,2.1638,2.2144,2.2192,2.2508,2.2599,2.2459,2.1942,0.0,0.0,0.0,0.0,0.0,0.0,0.0,0.0,0.0,0.0,0.0,0.0,0.0,2.7505,2.8239,2.9978,3.2001,3.3254,0.0,3.8079,3.9742,4.195,4.3933,4.4411,4.4115,4.3421,4.2348,4.0556,3.8306,3.5499,3.3608,0.0,3.0196,3.1302,0.0,0.0,0.0,0.0,4.2975,4.4008,4.4771,0.0,4.6535,0.0,4.7081,4.7532,4.8188,0.0,4.8856,4.9246,5.0607,5.1033,5.1253,5.1296,5.1335,5.1342,5.1343,5.0953,5.0979,5.1336,5.1336,5.1361,5.1391,5.1391,5.1386,5.1355,0.0,5.1375,5.1401,5.2259,5.2623,5.2629,5.2614,5.2812,5.297,5.1752,5.1537,5.183,0.0,0.0,0.0,0.0,0.0,0.0,0.0,0.0,0.0,0.0,0.4778,0.0,0.0,0.0,0.0,0.0,0.0,0.0,0.0,0.0,0.0,0.0,0.0,0.0,0.0,0.0,0.0,0.0,0.0,0.0,0.0,0.0,0.0,0.0,0.0,0.0,0.0,0.0,0.0,0.0,0.0,0.0,0.0,0.0,0.0,0.0,0.0,0.0,0.0,0.0,2.7345,2.9637,3.1188,3.2766,3.4367,3.6118,3.791,3.9682,4.1361,4.3192,4.4595,4.458,4.3969,4.2743,4.0307,3.8346,3.5897,3.1842,0.0,2.9233,2.7604,2.8736,3.0543,3.2516,0.0,3.864,4.1602,4.3299,4.4944,4.6737,4.7101,4.7571,4.8502,4.861,4.9061,5.0079,4.9378,4.9281,5.0135,5.0906,5.1317,5.1317,5.1258,5.1283,5.14,5.0542,5.0547,5.1401,5.1401,5.1406,5.1398,5.1398,5.1394,5.1401,5.1401,5.1396,5.1478,5.2389,5.2818,5.2863,5.2799,5.3221,5.3689,5.1932,5.1787,5.2314,0.0,0.0,0.0,0.0,0.0,0.0,0.0,0.0,0.0,0.0,0.3926,0.4474,0.0,0.0,0.0,0.0,0.0,0.0,0.0,0.0,0.0,0.0,0.0,0.0,0.0,0.0,0.0,0.0,0.0,0.0,0.0,0.0,0.0,0.0,0.0,0.0,0.0,0.0,0.0,0.0,0.0,0.0,0.0,0.0,0.0,0.0,0.0,0.0,0.0,0.0,2.8814,3.1477,3.2358,3.3345,3.4507,3.6254,3.804,3.9813,4.1496,4.3352,4.4619,4.3958,4.2735,4.1085,3.8594,3.5763,0.0,0.0,2.7274,2.5948,2.4918,2.6179,2.8377,3.1486,3.371,0.0,0.0,0.0,4.3443,0.0,0.0,0.0,0.0,0.0,0.0,0.0,5.0309,5.0251,5.1109,5.131,5.1375,5.1372,5.0698,5.0659,5.1396,5.0533,5.0542,5.139,5.139,5.1398,5.1408,5.1394,5.1408,5.139,5.1402,0.0,5.1523,5.3113,5.3752,5.3772,5.3702,5.3767,5.3689,5.1932,5.1398,5.1495,0.0,0.0,0.0,0.0,0.0,0.0,0.0,-0.1425,-0.0996,-0.0129,0.1444,0.3154,0.4911,0.5003,0.5161,0.0,0.0,0.0,0.0,0.0,0.0,0.0,0.0,0.0,0.0,0.0,0.0,0.0,0.0,0.0,0.0,0.0,0.0,0.0,0.0,0.0,0.0,0.0,0.0,0.0,0.0,0.0,0.0,0.0,0.0,0.0,0.0,0.0,0.0,0.0,2.6388,2.9887,3.2344,3.4255,3.5696,3.6112,3.7823,3.9721,4.0516,4.2096,4.3302,4.2494,4.1127,3.9012,3.5223,0.0,0.0,0.0,2.4292,2.3835,2.2959,2.4585,0.0,2.8866,3.1013,0.0,0.0,0.0,0.0,0.0,0.0,0.0,0.0,0.0,0.0,5.0608,5.0731,5.0957,5.1386,5.1391,5.1401,5.1406,5.0551,5.0512,5.1386,5.0547,5.0532,5.1402,5.1408,5.1394,5.14,5.1402,5.1398,5.1408,5.1408,0.0,5.1492,5.2796,5.3318,5.3318,5.3286,5.3527,5.3683,5.1932,5.1865,5.2528,0.0,0.0,0.0,0.0,0.0,0.0,0.0,-0.2143,-0.2484,-0.2753,-0.1233,0.1041,0.4128,0.4697,0.5175,0.0,0.0,0.0,0.0,0.0,0.0,0.0,0.0,0.0,0.0,0.0,0.0,0.0,0.0,0.0,0.0,0.0,0.0,0.0,0.0,0.0,0.0,0.0,0.0,0.0,0.0,0.0,0.0,0.0,0.0,0.0,0.0,0.0,0.0,0.0,2.3328,2.6839,3.0377,3.3256,3.5343,3.5441,3.7047,3.8901,3.947,4.082,4.185,4.1041,3.9556,3.7034,3.2225,2.9721,0.0,0.0,2.1952,2.2192,2.169,0.0,2.5151,0.0,2.8648,3.1678,0.0,0.0,0.0,0.0,0.0,0.0,0.0,0.0,0.0,5.0093,5.0908,5.1401,5.1401,5.1215,5.1121,5.1121,5.0282,5.0243,5.1102,5.0438,5.0539,5.1408,5.1394,5.1398,5.1403,5.1403,5.1402,5.1394,5.1391,0.0,0.0,5.2546,5.2878,5.2718,5.2888,5.3228,5.3436,5.1881,5.2177,5.3151,0.0,0.0,0.0,0.0,0.0,0.0,0.0,-0.4932,-0.488,-0.2965,-0.3143,-0.2121,0.138,0.353,0.4827,0.0,0.0,0.0,0.0,0.0,0.0,0.0,0.0,0.0,0.0,0.0,0.0,0.0,0.0,0.0,0.0,0.0,0.0,0.0,0.0,0.0,0.0,0.0,0.0,0.0,0.0,0.0,0.0,0.0,0.0,0.0,0.0,0.0,0.0,0.0,0.0,2.3098,2.4994,2.7747,3.0845,3.3829,0.0,0.0,3.9048,4.0429,4.1018,4.0211,3.8287,3.5526,3.1283,0.0,0.0,2.2226,2.0993,2.0759,2.1478,2.1854,0.0,0.0,0.0,3.0392,0.0,0.0,0.0,0.0,0.0,0.0,0.0,0.0,0.0,5.0104,5.0918,5.1394,5.1394,5.0653,5.0223,5.0223,4.9364,4.9345,5.0204,5.0145,5.0539,5.1408,5.1391,5.1391,5.1391,5.1396,5.1394,5.1398,5.1405,0.0,0.0,5.319,5.342,5.2762,5.3507,5.3358,5.2597,5.1659,5.1398,5.1515,0.0,0.0,0.0,0.0,0.0,0.0,-0.5033,-0.4851,-0.4876,-0.5765,-0.403,-0.2237,-0.1015,0.1303,0.3201,0.4245,0.0,0.0,0.0,0.0,0.0,0.0,0.0,0.0,0.0,0.0,0.0,1.0195,0.9672,0.0,0.0,0.0,0.0,0.0,0.0,0.0,0.0,0.0,0.0,0.0,0.0,0.0,0.0,0.0,0.0,0.0,0.0,0.0,0.0,0.0,0.0,0.0,2.1347,2.327,0.0,0.0,3.2456,3.4633,3.6201,3.7683,3.8452,3.7239,3.5875,3.3642,2.902,0.0,2.4861,2.1457,2.0523,2.0404,2.0759,2.0863,2.1707,0.0,0.0,0.0,3.1741,0.0,0.0,0.0,0.0,0.0,0.0,0.0,5.0323,5.084,5.1203,5.1167,5.0653,5.0282,5.0106,5.0106,4.9247,4.9228,5.0087,5.0106,5.0535,5.1402,5.1408,5.1408,5.1408,5.1391,5.1391,5.1405,5.1402,0.0,0.0,5.2713,5.2708,5.2001,5.2792,5.2916,5.2499,5.162,5.1963,5.2703,0.0,0.0,0.0,0.0,0.0,-0.3641,-0.5243,-0.4658,-0.4891,-0.723,-0.4824,-0.2843,-0.269,-0.0557,0.1487,0.3086,0.3834,0.0,0.0,0.0,0.0,0.0,0.0,0.0,0.0,0.0,0.9007,0.9862,0.9509,0.9571,0.0,0.0,0.0,0.0,0.0,0.0,0.0,0.0,0.0,0.0,0.0,0.0,0.0,0.0,0.0,0.0,0.0,0.0,0.0,0.0,0.0,0.0,0.0,0.0,0.0,0.0,2.9832,3.2137,3.3534,3.4819,3.5581,3.4813,3.3669,3.1641,0.0,0.0,2.4062,2.0935,2.0299,2.0308,2.0328,2.0372,2.088,2.2363,2.2571,2.4253,2.9196,3.2143,0.0,0.0,0.0,4.5806,0.0,4.8576,5.0219,5.1316,5.1405,5.1132,5.0516,5.0008,4.9618,4.9364,4.8779,4.874,4.9345,4.9852,5.0418,5.1023,5.1285,5.1405,5.1405,5.1405,5.1405,5.1405,5.1398,0.0,0.0,5.2338,5.2172,5.1483,5.2571,5.2831,5.257,5.2212,5.2692,5.3346,0.0,0.0,0.0,0.0,0.0,0.0,-0.453,-0.4921,-0.5407,-0.6293,-0.5743,-0.476,-0.3432,-0.1729,-0.0052,0.1485,0.2233,0.0,0.0,0.0,0.0,0.0,0.0,0.0,0.0,0.0,0.731,0.813,0.8978,0.93,0.9125,0.9374,0.9503,0.0,0.0,0.0,0.0,0.0,0.0,0.0,0.0,0.0,0.0,0.0,0.0,0.0,0.0,0.0,0.0,0.0,0.0,0.0,0.0,0.0,1.9526,0.0,2.7806,2.8914,3.16,3.2374,3.2637,3.3487,3.1955,2.956,0.0,0.0,2.3396,2.0824,2.0301,2.0328,2.0399,2.0398,2.0693,2.157,2.3155,0.0,3.0161,3.3039,0.0,0.0,0.0,4.4064,4.493,4.738,4.9609,5.1277,5.1405,0.0,5.1394,4.9755,4.8447,4.7647,4.7627,4.7627,4.7627,4.9267,5.0106,5.0126,5.0984,5.1394,5.1394,5.1394,5.1394,5.1394,0.0,0.0,0.0,5.2333,5.2141,5.1466,5.3201,5.3362,5.2703,5.3564,5.3342,5.2606,0.0,0.0,0.0,0.0,0.0,0.0,0.0,-0.3736,-0.3872,-0.5375,-0.4342,-0.3406,-0.3247,-0.2373,-0.1177,0.0368,0.1585,0.0,0.0,0.0,0.0,0.0,0.0,0.0,0.0,0.0,0.7085,0.7747,0.7856,0.7886,0.7871,0.7856,0.7975,0.8197,0.8109,0.0,0.0,0.0,0.0,0.0,0.0,0.0,0.0,0.0,0.0,0.0,0.0,0.0,0.0,0.0,0.0,0.0,0.0,0.0,0.0,2.0257,2.2967,2.5358,2.7474,2.8482,2.8888,2.8741,2.7746,2.6282,2.4359,0.0,2.1278,2.046,1.9824,1.9606,2.0276,2.0404,2.126,2.3931,2.437,0.0,0.0,0.0,0.0,3.9774,4.3856,4.6924,0.0,0.0,4.9592,5.1268,5.1396,5.0891,4.9745,4.9165,4.8733,4.8427,4.7315,4.7002,4.7588,4.8135,4.8974,5.0106,5.0379,5.0828,5.1394,5.1394,5.1394,0.0,0.0,0.0,0.0,5.1694,5.164,5.1427,5.1921,5.2675,5.3389,5.246,5.2701,5.3325,0.0,0.0,0.0,0.0,0.0,0.0,0.0,-0.3283,-0.3342,-0.4623,-0.3726,-0.2989,-0.3011,-0.2591,-0.1788,-0.0529,0.0227,0.0,0.0,0.0,0.0,0.0,0.0,0.0,0.451,0.5411,0.6322,0.723,0.7362,0.7416,0.7424,0.7561,0.7652,0.7705,0.7664,0.7724,0.0,0.0,0.0,0.0,0.0,0.0,0.8261,0.0,0.0,0.0,0.0,0.0,0.0,0.0,0.0,0.0,0.0,0.0,0.0,0.0,1.8594,2.1022,0.0,2.4592,2.5077,2.5355,2.4809,0.0,0.0,0.0,2.0204,1.9869,1.938,1.9284,2.018,2.0372,2.1216,2.3717,2.4282,0.0,0.0,0.0,0.0,4.0307,0.0,0.0,0.0,4.8697,4.9109,5.078,5.0639,4.9996,4.8926,4.856,4.8384,4.8349,4.7022,4.6554,4.71,4.7432,4.8115,4.9169,4.9462,4.9891,5.0438,5.077,5.0906,0.0,0.0,0.0,0.0,5.1401,5.1411,5.1433,5.1694,5.2649,5.3819,5.3046,5.3455,5.419,0.0,0.0,0.0,0.0,0.0,0.0,0.0,-0.3349,-0.3575,-0.3947,-0.3705,-0.3303,-0.2758,-0.2497,-0.202,-0.1225,-0.1576,0.0,0.0,0.0,0.0,0.0,0.0,0.0,0.3775,0.4213,0.5113,0.6525,0.7273,0.7605,0.7552,0.8143,0.82,0.7829,0.7529,0.7466,0.7617,0.7649,0.7679,0.7739,0.7984,0.7954,0.0,0.0,0.0,0.0,0.0,0.0,0.0,0.0,0.0,0.0,0.0,0.0,0.0,0.0,0.0,0.0,0.0,2.0776,2.132,2.2951,2.2798,2.2077,2.1383,0.0,0.0,1.9079,1.8905,1.9214,2.0224,2.0398,2.0772,2.1969,0.0,0.0,0.0,3.2879,0.0,0.0,4.34,0.0,4.7354,4.7608,4.8274,4.9895,4.9328,4.8842,4.8724,4.8008,4.7578,4.751,4.6729,4.63,4.63,4.71,4.7549,4.7608,4.8369,4.874,4.8837,4.9638,5.0048,0.0,0.0,0.0,0.0,5.1401,5.1391,5.1472,5.2213,5.3052,5.3916,5.4649,5.497,5.4904,0.0,0.0,0.0,0.0,0.0,0.0,0.0,0.0,0.0,0.0,-0.2796,-0.2708,-0.2767,-0.2762,-0.2455,0.0,0.0,0.0,0.0,0.0,0.0,0.0,0.0,0.0,0.2878,0.3349,0.4304,0.5756,0.6047,0.6471,0.7002,0.7292,0.7364,0.7201,0.7231,0.7444,0.7733,0.743,0.7529,0.7851,0.781,0.7739,0.0,0.0,0.0,0.0,0.9103,0.9907,0.0,0.0,0.0,0.0,0.0,0.0,0.0,0.0,1.4429,1.4995,1.5886,0.0,1.8479,1.8943,1.8912,1.8737,0.0,0.0,0.0,0.0,0.0,1.8685,2.0959,2.0791,2.1727,2.5982,0.0,0.0,3.2007,0.0,0.0,4.4911,4.5567,4.6189,4.7486,4.761,4.8039,4.9109,4.9002,4.8593,4.7924,4.7707,4.7293,4.6622,4.6401,4.63,4.63,4.6495,4.6944,4.7608,4.7783,4.8193,4.8818,4.9013,4.9462,0.0,0.0,0.0,5.139,5.139,5.1406,5.1411,5.1606,5.2211,5.2933,5.2469,5.2718,5.3161,0.0,0.0,0.0,0.0,0.0,0.0,0.0,0.0,0.0,0.0,-0.2119,-0.2145,-0.2329,-0.2544,-0.2512,0.0,0.0,0.0,0.0,0.0,0.0,0.0,0.0,0.1101,0.2076,0.2498,0.3573,0.5307,0.5616,0.6146,0.6936,0.7343,0.7258,0.6773,0.6799,0.6969,0.7196,0.7009,0.7112,0.7398,0.7409,0.0,0.0,0.0,0.0,0.0,0.8579,0.9436,0.0,1.1026,1.1952,1.2785,0.0,0.0,0.0,0.0,1.3592,1.4301,1.4058,1.5666,1.7539,1.8039,1.8411,1.8669,1.8784,0.0,0.0,0.0,0.0,0.0,2.0115,2.1041,0.0,0.0,2.7729,0.0,0.0,0.0,4.2692,4.5375,4.6056,4.6638,0.0,4.7239,4.7356,4.8245,4.7927,4.7499,4.7022,4.7006,4.679,4.6306,4.6306,4.6303,4.63,4.63,4.6534,4.7002,4.7002,4.7237,4.7666,4.8076,4.8505,0.0,0.0,0.0,5.0828,5.1238,5.139,5.1406,5.1406,5.1932,5.2635,5.2167,5.2552,5.3167,0.0,0.0,0.0,0.0,0.0,0.0,0.0,0.0,0.0,0.0,0.0,0.0,0.0,0.0,0.0,0.0,0.0,0.0,0.0,0.0,0.0,0.0,-0.0171,0.0454,0.1532,0.1817,0.2968,0.5028,0.5604,0.6334,0.7212,0.7876,0.7653,0.6705,0.6509,0.6421,0.6406,0.65,0.6604,0.6727,0.6927,0.0,0.0,0.0,0.0,0.0,0.0,0.0,0.0,1.0591,1.1661,1.2722,1.2071,0.0,0.0,0.0,0.0,0.0,1.3833,1.5637,1.7675,1.8211,1.9087,1.9821,1.9821,0.0,0.0,0.0,0.0,0.0,0.0,2.1506,0.0,0.0,0.0,0.0,3.8077,4.0922,4.306,4.4797,4.576,0.0,4.7338,4.6729,4.6614,4.7357,4.6715,4.6306,4.6306,4.63,4.6301,4.6303,4.6309,4.6306,4.63,4.63,4.63,4.63,4.63,4.63,4.6339,4.7061,4.7471,4.7686,0.0,0.0,5.0165,5.0906,5.1277,5.1394,5.1394,5.1843,5.2507,5.2507,5.2967,5.3498,0.0,0.0,0.0,0.0,0.0,0.0,0.0,0.0,0.0,0.0,0.0,0.0,0.0,0.0,0.0,0.0,0.0,0.0,0.0,0.0,0.0,-0.0749,-0.0469,0.0352,0.1798,0.1775,0.2734,0.4763,0.5679,0.6666,0.7713,0.8673,0.8558,0.7571,0.688,0.6363,0.6009,0.6183,0.6278,0.6306,0.6497,0.0,0.0,0.0,0.0,0.0,0.0,0.0,0.0,1.0623,1.1711,1.2811,1.1986,0.0,0.0,0.0,0.0,0.0,1.5547,1.7294,1.8334,1.6608,1.7837,1.9323,1.8709,0.0,0.0,0.0,0.0,0.0,0.0,2.3144,2.4921,0.0,0.0,3.5427,0.0,0.0,4.3056,4.4787,0.0,4.6342,4.6485,4.6378,4.6358,4.6488,4.6381,4.6306,4.63,4.6297,4.6295,4.6293,4.6306,4.6303,4.63,4.63,4.63,4.63,4.63,4.63,4.63,4.6436,4.6905,4.7608,0.0,4.8798,5.0106,5.0243,5.0731,5.1394,5.1394,5.1472,5.1609,5.1609,5.1674,5.1784,0.0,0.0,0.0,0.0,0.0,0.0,0.0,0.0,0.0,0.0,0.0,0.0,0.0,0.0,0.0,0.0,0.0,0.0,0.0,0.0,-0.11,-0.029,-0.0183,0.0396,0.1499,0.1924,0.3099,0.5076,0.5859,0.6954,0.8281,0.8248,0.7921,0.7338,0.6425,0.5914,0.5752,0.5911,0.6045,0.6165,0.0,0.0,0.0,0.0,0.0,0.0,0.0,0.0,0.0,0.0,1.1203,1.2422,1.1906,0.0,0.0,0.0,0.0,0.0,1.4371,1.6348,1.8046,1.7022,1.9328,2.1785,2.1628,0.0,0.0,0.0,0.0,0.0,0.0,0.0,2.8154,3.2169,0.0,3.7038,3.9973,4.1969,4.3392,0.0,0.0,4.6296,4.6306,4.6293,4.6295,4.6306,4.63,4.6301,4.6293,4.6295,4.6295,4.6306,4.6306,4.6306,4.63,4.5831,4.5831,4.63,4.63,4.63,4.63,4.63,4.6515,4.6924,0.0,4.8037,4.8779,4.9228,4.9911,5.0692,5.0692,5.0984,5.1394,5.1394,5.1401,5.1394,0.0,0.0,0.0,0.0,0.0,0.0,0.0,0.0,0.0,0.0,0.0,0.0,0.0,0.0,0.0,0.0,0.0,0.0,0.0,0.0,-0.1074,0.0106,0.0209,0.0743,0.1842,0.2417,0.3664,0.5591,0.6292,0.7412,0.8828,0.799,0.7388,0.7024,0.6055,0.5586,0.5547,0.5633,0.5705,0.5808,0.0,0.0,0.0,0.0,0.0,0.0,0.0,0.0,0.0,0.0,0.0,0.0,0.0,0.0,0.0,1.3042,1.3377,1.3845,1.3899,1.5755,1.7803,1.8244,0.0,2.3303,2.4358,0.0,0.0,0.0,0.0,0.0,0.0,2.7614,0.0,3.5426,3.6876,3.8092,3.9838,4.1992,4.3397,4.3396,4.4742,4.5683,4.5695,4.588,4.5997,4.6007,4.6175,4.6295,4.63,4.6293,4.6293,4.63,4.6092,4.5994,4.6007,4.5129,4.5246,4.63,4.6085,4.6105,4.63,4.63,4.63,4.6339,4.7002,4.7412,4.7666,4.8466,4.9306,5.0126,5.0321,5.0805,5.139,5.139,5.1401,5.1405,0.0,0.0,0.0,0.0,0.0,0.0,0.0,0.0,0.0,0.0,0.0,0.0,0.0,0.0,0.0,0.0,0.0,0.0,0.0,0.0,-0.1121,-0.0039,0.0431,0.1635,0.3738,0.3483,0.4262,0.6149,0.72,0.8264,0.9345,0.8691,0.7999,0.7245,0.6353,0.5756,0.5404,0.529,0.5113,0.4928,0.5451,0.0,0.0,0.0,0.0,0.0,0.0,0.0,0.0,0.0,0.0,0.0,0.0,0.0,1.3913,1.4677,1.4579,1.4666,1.6501,1.7276,1.8053,1.9857,2.0389,0.0,2.4429,2.4667,0.0,2.7437,0.0,0.0,0.0,2.9734,3.2803,3.6424,3.7736,3.8916,4.0676,0.0,4.249,4.2498,4.3318,4.3888,4.3899,4.4628,4.5099,4.509,4.5841,4.629,4.63,4.6303,4.6303,4.63,4.5519,4.509,4.509,4.4231,4.4641,4.628,4.548,4.5519,4.63,4.63,4.63,4.63,4.6378,4.6846,4.7666,4.8466,4.9306,5.0184,5.0984,5.1351,5.1401,5.1401,5.1396,5.1396,0.0,0.0,0.0,0.0,0.0,0.0,0.0,0.0,0.0,0.0,0.0,0.0,0.0,0.0,0.0,0.0,0.0,0.0,0.0,-0.0897,-0.0184,0.0655,0.1328,0.2832,0.526,0.4909,0.5643,0.7586,0.8358,0.8716,0.8701,0.7748,0.7072,0.6565,0.5696,0.5283,0.5204,0.5166,0.5153,0.5198,0.5484,0.569,0.0,0.0,0.0,0.0,0.0,0.0,0.0,0.0,1.054,1.1875,1.2047,1.3252,1.4607,1.4549,1.4536,1.4744,1.5626,1.7184,1.8711,1.9494,0.0,0.0,0.0,0.0,0.0,0.0,3.1393,0.0,0.0,0.0,3.4381,3.7366,3.8158,3.9011,4.0738,4.1812,4.2407,4.2407,4.3177,4.3693,4.3704,4.4488,4.4995,4.4992,4.5308,4.5737,4.6261,4.5792,4.55,4.55,4.5168,4.4738,4.4192,4.3333,4.3762,4.55,4.5168,4.546,4.63,4.63,4.63,4.63,4.63,4.6495,4.6827,4.712,4.8057,4.9423,5.0848,5.1406,5.1401,5.1406,5.1406,5.1401,0.0,0.0,0.0,0.0,0.0,0.0,0.0,0.0,0.0,0.0,0.0,0.0,0.0,0.0,0.0,0.0,0.0,0.0,-0.0956,-0.0316,0.0538,0.1619,0.2247,0.3573,0.5809,0.5944,0.6644,0.8047,0.8383,0.8296,0.7752,0.6825,0.6286,0.604,0.5275,0.5047,0.5211,0.5037,0.5011,0.512,0.542,0.561,0.0,0.0,0.0,0.0,0.0,0.0,0.0,0.0,1.0415,1.1545,1.2375,1.3771,1.5084,1.4907,1.5252,1.5727,1.5829,1.7606,1.9521,0.0,0.0,0.0,0.0,0.0,0.0,0.0,3.3412,0.0,0.0,0.0,0.0,0.0,3.8596,3.9326,4.0789,4.1578,4.1997,4.1993,4.2509,4.2873,4.2884,4.3918,4.4484,4.4192,4.4699,4.5148,4.546,4.4914,4.4582,4.4582,4.4328,4.3899,4.3294,4.2435,4.2728,4.4172,4.4465,4.5187,4.63,4.63,4.63,4.63,4.63,4.63,4.6319,4.6593,4.7705,4.9364,5.0828,5.1406,5.1401,5.139,5.1406,5.1401,0.0,0.0,0.0,0.0,0.0,0.0,0.0,0.0,-0.0019,-0.0614,-0.0572,0.0,0.0,0.0,0.0,0.0,0.0,0.0,-0.0216,-0.0058,0.0882,0.281,0.3028,0.3794,0.5257,0.6414,0.7078,0.7304,0.7085,0.6844,0.6579,0.619,0.5913,0.5776,0.5231,0.5173,0.5454,0.4933,0.4583,0.4457,0.5129,0.5315,0.5295,0.0,0.0,0.0,0.0,0.0,0.0,0.0,1.0398,1.099,1.3797,1.4869,1.5272,1.605,1.7048,1.7889,1.7734,1.8893,2.0463,0.0,0.0,0.0,0.0,0.0,0.0,0.0,0.0,3.4576,3.6363,0.0,0.0,3.787,3.909,4.0007,4.087,4.1058,4.11,4.1091,4.1085,4.1097,4.1108,4.2669,4.3333,4.2474,4.4016,4.4602,4.3762,4.3704,4.3684,4.3684,4.2845,4.2396,4.2396,4.1537,4.1537,4.2415,4.3274,4.4602,4.628,4.63,4.63,4.63,4.63,4.63,4.6378,4.7256,4.8584,5.0184,5.1063,5.141,5.1401,5.139,5.1406,5.1401,0.0,0.0,0.0,0.0,0.0,0.0,0.0,0.0,0.0294,-0.0208,-0.0115,0.0,0.0,0.0,0.0,0.0,0.0,0.0,0.0396,0.0826,0.1714,0.3189,0.3199,0.3652,0.4726,0.5254,0.6145,0.736,0.6967,0.6522,0.6039,0.5634,0.5331,0.5146,0.5014,0.4932,0.4912,0.4677,0.4681,0.4953,0.5674,0.5806,0.5678,0.0,0.0,0.0,0.0,0.0,0.0,0.0,0.0,0.0,1.2749,1.4783,1.6598,1.5271,1.6519,1.82,1.7701,1.9669,0.0,0.0,0.0,0.0,0.0,0.0,0.0,0.0,0.0,3.6684,3.6704,0.0,0.0,3.8868,3.9452,3.973,4.0042,4.0668,4.0877,4.0257,4.0734,4.1097,4.1108,4.2682,4.3599,4.3333,4.3782,4.4231,4.4602,4.345,4.2786,4.2786,4.2533,4.2103,4.1498,4.1225,4.1537,4.2396,4.2669,4.3704,4.5402,4.6027,4.63,4.63,4.63,4.63,4.6417,4.7842,4.9107,5.0191,5.1058,5.1394,5.139,5.1394,5.1394,5.139,0.0,0.0,0.0,0.0,0.0,0.0,0.0,0.0,0.04,0.0056,0.0188,0.0116,0.0,0.0,0.0,0.0,0.0,0.0,0.0,0.1102,0.1861,0.2841,0.303,0.3552,0.4454,0.4436,0.4977,0.6091,0.5912,0.5602,0.5155,0.5163,0.5124,0.5038,0.5233,0.5245,0.509,0.4935,0.5041,0.5398,0.5961,0.6126,0.6109,0.0,0.0,0.0,0.0,0.0,0.0,0.0,0.0,0.0,1.2386,1.4341,1.6215,1.5442,1.6984,1.9023,1.9452,2.1745,0.0,2.5809,2.8743,3.1948,3.4559,0.0,0.0,0.0,0.0,3.7198,3.6781,3.7038,0.0,3.8896,3.9364,3.9624,3.9684,4.0201,4.0389,3.9862,4.0578,4.1097,4.1101,4.2366,4.3185,4.3177,4.3177,4.3411,4.3938,4.265,4.1888,4.1888,4.1888,4.1635,4.1108,4.1108,4.1361,4.1888,4.2591,4.3469,4.4504,4.5382,4.5968,4.63,4.63,4.63,4.6436,4.8115,4.8912,4.9239,5.0414,5.0887,5.0848,5.0496,5.0809,5.1355,0.0,0.0,0.1151,0.0698,0.0,0.0,0.0,0.0,0.0407,0.0293,0.0428,0.0454,0.0,0.0,0.0,0.0,0.0,0.0,0.0,0.0911,0.1453,0.1995,0.2592,0.3366,0.4263,0.3859,0.3754,0.4048,0.4296,0.4341,0.4228,0.4819,0.5142,0.5227,0.5716,0.5854,0.5647,0.5424,0.5461,0.5677,0.6054,0.6286,0.6463,0.6854,0.0,0.0,0.0,0.0,0.0,0.0,0.0,0.0,1.2422,1.3723,1.4834,1.5981,1.788,2.0047,2.1966,0.0,0.0,2.8941,3.15,0.0,3.7558,0.0,3.7484,3.7603,0.0,3.6669,3.6897,3.7519,3.8073,3.8363,3.9083,3.9557,3.949,3.9714,3.9858,3.9697,4.0515,4.109,4.1094,4.1894,4.2424,4.251,4.2435,4.2435,4.2513,4.1615,4.1108,4.1108,4.1108,4.1108,4.1108,4.1108,4.1108,4.1127,4.2708,4.3548,4.3723,4.468,4.5558,4.63,4.63,4.6339,4.6534,4.8057,4.8349,4.7975,4.9423,5.0028,5.0008,4.9208,4.9911,5.118,0.0,0.0,0.1148,0.0882,0.0,0.0,0.0,0.0,0.0,0.0,0.0,0.0,0.0,0.0,0.0,0.0,0.0,0.0,0.0,0.0471,0.0808,0.1303,0.2046,0.274,0.336,0.3138,0.3224,0.3708,0.3773,0.3972,0.4283,0.4844,0.5176,0.5278,0.5444,0.5498,0.5429,0.5029,0.5001,0.5283,0.5941,0.6043,0.5884,0.6755,0.6832,0.0,0.0,0.0,0.0,0.0,0.0,0.0,1.1609,1.3503,1.5341,1.4435,1.6867,2.0002,2.0698,2.3492,0.0,0.0,3.4,3.7013,3.7378,3.7953,3.8439,3.8556,3.7536,3.7034,3.8473,3.786,3.7634,3.9019,3.9442,3.9149,3.7836,3.9435,4.0246,3.8931,4.0145,4.1111,4.1096,4.1881,4.2685,4.3381,4.2783,4.2708,4.3372,4.1947,4.1108,4.1108,4.1108,4.1108,4.1108,4.1108,4.1108,4.1108,4.1479,4.2376,4.3743,4.5304,4.6124,4.63,4.63,4.6667,4.7264,4.7682,4.8537,4.9528,4.9204,4.9501,5.0087,4.9891,5.0067,5.036,0.0,0.0,0.0,0.0,0.0,0.0,0.0,0.0,0.0,0.0,0.0,0.0,0.0,0.0648,0.0,0.0,-0.0219,-0.0373,-0.0105,0.0152,0.0535,0.1027,0.1736,0.2311,0.2745,0.2631,0.2882,0.3556,0.333,0.3596,0.4321,0.5277,0.5748,0.5832,0.5987,0.5994,0.5837,0.5307,0.52,0.5429,0.5982,0.6128,0.6107,0.6713,0.6737,0.643,0.6706,0.0,0.0,0.0,0.0,0.0,0.0,0.0,1.4624,1.4244,1.6395,1.9363,0.0,0.0,0.0,3.2344,0.0,0.0,3.8357,3.83,3.827,3.8822,3.8027,3.7279,3.7454,3.7494,3.7648,3.8164,3.8665,3.8693,3.7841,3.9273,4.0097,3.9232,4.029,4.11,4.1106,4.1501,4.2134,4.3006,4.2275,4.2162,4.3021,4.181,4.1283,4.1713,4.1322,4.1303,4.1729,4.1303,4.1108,4.1101,4.1518,4.2646,4.436,4.5695,4.63,4.63,4.63,4.653,4.6956,4.7409,4.7877,4.8322,4.8658,4.8837,4.8896,4.8896,4.915,4.9481,0.0,0.0,0.0,0.0,0.0,0.0,0.0,0.0,0.0,0.0,0.0,0.0,0.0,0.1028,0.0978,0.0,0.0,0.0,-0.0418,-0.0022,0.0439,0.0936,0.1579,0.2092,0.2442,0.2412,0.2752,0.3506,0.3105,0.3467,0.4512,0.5719,0.6419,0.6603,0.6768,0.6641,0.6323,0.5749,0.5536,0.5623,0.595,0.6191,0.6397,0.6581,0.0,0.0,0.0,0.0,0.7455,0.8655,0.0,0.0,0.0,0.0,1.3579,1.4363,1.6092,1.8534,0.0,0.0,2.8421,3.3979,3.6273,0.0,3.9129,3.8457,3.7719,3.8435,3.798,3.7156,3.6108,3.6986,3.772,3.7181,3.7781,3.8316,3.838,3.9201,3.9779,3.9779,4.0557,4.1089,4.1089,4.1106,4.1452,4.2323,4.1592,4.1479,4.2357,4.1576,4.142,4.2142,4.1479,4.1456,4.2171,4.1456,4.1104,4.1117,4.2139,4.3388,4.4805,4.5828,4.63,4.63,4.63,4.63,4.6358,4.7081,4.7042,4.6651,4.7881,4.8057,4.7608,4.7608,4.8017,4.8603,0.0,0.0,0.0,0.0,0.0,0.0,0.0,0.0,0.0,0.0,0.1498,0.1455,0.1345,0.1034,0.075,0.0557,-0.0134,-0.0501,-0.0403,0.0,0.0,0.08,0.162,0.2259,0.2654,0.2716,0.2982,0.3506,0.3426,0.4046,0.0,0.0,0.0,0.7428,0.0,0.6597,0.6129,0.5736,0.543,0.5215,0.5479,0.5721,0.5911,0.0,0.0,0.0,0.0,0.0,0.0,0.8377,0.9614,0.0,0.0,0.0,1.3227,1.3645,1.5604,1.7804,0.0,0.0,2.9762,0.0,3.5383,3.7224,0.0,0.0,3.747,0.0,3.6305,3.6138,3.7416,3.7294,3.7193,3.7822,3.8136,3.8326,3.8393,3.9163,3.9707,3.9701,4.0539,4.1091,4.1091,4.11,4.1466,4.2329,4.1585,4.1479,4.2357,4.1576,4.1147,4.1264,4.1166,4.1166,4.1264,4.1166,4.1108,4.1127,4.2747,4.3645,4.3938,4.5558,4.6296,4.6308,4.6296,4.63,4.63,4.6436,4.6846,4.7373,4.6846,4.7022,4.7608,4.7608,4.7666,4.7861,0.0,0.0,0.0,0.0,0.0,0.0,0.0,0.0,0.0,0.0,0.0,0.1765,0.1743,0.1341,0.0936,0.0579,0.0223,-0.0065,-0.0217,0.0039,0.0379,0.0827,0.1583,0.2176,0.2577,0.2514,0.2764,0.3387,0.3205,0.4134,0.0,0.6592,0.737,0.0,0.0,0.0,0.7368,0.6198,0.5685,0.5654,0.5586,0.6205,0.0,0.0,0.0,0.0,0.0,0.0,0.0,0.0,0.0,1.0339,1.0473,0.0,0.0,0.0,1.4214,0.0,2.0063,2.4393,2.8912,0.0,3.463,3.6132,3.7241,0.0,3.6913,3.6645,3.5959,3.5657,3.6458,3.6716,3.6948,3.7365,3.7881,3.8276,3.8336,3.9118,3.9704,3.97,4.05,4.1039,4.1039,4.1089,4.1262,4.1632,4.1324,4.1277,4.1647,4.13,4.1322,4.181,4.1342,4.1322,4.1823,4.1342,4.1108,4.1127,4.2864,4.37,4.3755,4.5512,4.6292,4.6292,4.63,4.63,4.63,4.63,4.6534,4.6885,4.6983,4.6963,4.6924,4.7412,4.7295,4.6983,0.0,0.0,0.0,0.0,0.0,0.0,0.0,0.0,0.0,0.0,0.0,0.2048,0.2026,0.0,0.0,0.0,0.0733,0.0429,0.0059,0.0274,0.0585,0.0935,0.1699,0.2267,0.2621,0.2619,0.2869,0.3416,0.342,0.4552,0.6764,0.7463,0.8503,0.0,0.883,0.0,0.0,0.0,0.0,0.0,0.0,0.7091,0.0,0.0,0.0,0.0,0.0,0.0,0.0,0.0,0.0,0.0,0.0,0.0,0.0,0.0,0.0,0.0,0.0,0.0,2.643,3.0753,3.2732,3.4206,0.0,0.0,3.6007,0.0,3.5959,3.5441,3.5502,3.6388,3.7134,3.7211,3.7955,3.8612,3.8899,3.9353,3.9757,3.9996,4.0595,4.0999,4.1006,4.1052,4.107,4.1095,4.1096,4.0992,4.0777,4.0769,4.0968,4.1397,4.0991,4.1085,4.1722,4.13,4.1108,4.1127,4.263,4.3486,4.3751,4.5273,4.6097,4.63,4.6296,4.63,4.63,4.63,4.63,4.6358,4.7022,4.6866,4.6378,4.7022,4.6866,4.6417,0.0,0.0,0.0,0.0,0.0,0.0,0.0,0.0,0.0,0.0,0.0,0.2172,0.2106,0.2015,0.1945,0.1924,0.1394,0.0876,0.0411,0.097,0.1262,0.1093,0.2097,0.0,0.2977,0.3466,0.3737,0.3772,0.4657,0.5697,0.6918,0.7911,0.953,1.1608,1.0881,0.9604,0.8007,0.0,0.0,0.0,0.7787,0.8145,0.0,0.0,0.0,0.0,0.0,0.0,0.0,0.0,0.0,0.0,0.0,0.0,1.146,0.0,0.0,0.0,0.0,2.0292,0.0,2.6435,0.0,0.0,0.0,0.0,0.0,3.6339,3.6008,3.5441,3.5579,3.6889,3.7973,3.8119,3.8807,3.9656,4.0544,4.0063,3.9945,4.0827,4.0968,4.1003,4.1006,4.1,4.1039,4.1095,4.1106,4.0745,3.9906,3.9876,3.9513,3.8733,3.9465,3.9897,3.9937,4.0717,4.1108,4.1108,4.2025,4.2903,4.3723,4.466,4.5519,4.63,4.6292,4.6292,4.63,4.63,4.63,4.63,4.6358,4.6339,4.63,4.6358,4.6339,4.6417,0.0,0.0,0.0,0.0,0.0,0.0,0.0,0.0,0.0,0.0,0.0,0.0,0.0,0.2562,0.2433,0.2385,0.1831,0.1388,0.1184,0.1672,0.191,0.1745,0.2445,0.2971,0.326,0.357,0.3874,0.4187,0.4648,0.5756,0.7437,0.8312,0.962,1.1198,1.0319,0.9894,0.9788,0.8429,0.0,0.0,0.8744,0.995,0.0,0.0,0.0,0.0,0.0,0.0,0.0,0.0,0.0,0.0,0.0,1.1374,1.196,1.2622,0.0,0.0,0.0,0.0,0.0,2.4757,2.7374,2.9618,3.1511,3.2997,3.4198,3.488,3.524,3.5441,3.5515,3.6466,3.7442,3.8085,3.7962,3.8102,3.8999,3.8481,3.8112,3.8451,3.8991,3.956,4.0112,3.9668,3.9565,4.0169,3.9719,3.9282,3.898,3.897,3.8818,3.8506,3.9357,4.0067,4.0629,4.0937,4.1386,4.194,4.2252,4.3154,4.4543,4.4801,4.543,4.63,4.6255,4.626,4.63,4.63,4.63,4.63,4.63,4.63,4.63,4.63,4.63,4.6339,0.0,0.0,0.0,0.0,0.0,0.3402,0.3372,0.3117,0.2945,0.0,0.0,0.0,0.0,0.0,0.3146,0.2945,0.2602,0.229,0.1998,0.2323,0.249,0.2377,0.2896,0.3368,0.373,0.4031,0.4391,0.4827,0.5292,0.6272,0.0,0.8585,0.973,1.1052,0.9848,0.996,0.0,0.0,0.0,0.962,0.0,1.17,1.3283,0.0,0.0,0.0,0.0,0.0,0.0,0.0,0.0,0.0,0.0,1.1703,1.2014,1.2723,0.0,0.0,0.0,0.0,0.0,0.0,0.0,2.6944,2.9874,0.0,3.2584,3.3517,3.4361,3.4971,3.5053,3.5778,3.6671,3.7602,3.775,3.7846,3.8194,3.7811,3.7492,3.7492,3.8004,3.8594,3.9213,3.8743,3.8649,3.9254,3.8799,0.0,3.8088,3.8059,3.8068,3.8053,3.8627,3.949,4.066,4.0671,4.11,4.1968,4.1952,4.2873,4.4555,4.4216,4.4879,4.6277,4.5943,4.5987,4.63,4.6296,4.6296,4.63,4.63,4.63,4.63,4.63,4.6495,4.669,0.0,0.0,0.4455,0.4268,0.3883,0.3661,0.3738,0.3442,0.3251,0.3336,0.0,0.0,0.0,0.0,0.0,0.3711,0.3788,0.3529,0.2794,0.2922,0.3013,0.2944,0.3507,0.4012,0.4409,0.4894,0.5325,0.5716,0.6637,0.7328,0.7826,0.0,0.9932,1.1379,0.9768,0.9879,1.1295,0.0,1.1499,1.1443,0.0,1.3345,1.4088,0.0,0.0,0.0,1.7058,1.7037,0.0,1.5438,0.0,0.0,0.0,1.1931,1.1633,0.0,0.0,0.0,0.0,0.0,0.0,0.0,0.0,0.0,2.9618,0.0,2.9628,3.225,3.3426,3.4021,3.4166,3.4911,3.5803,3.6709,3.8228,3.9052,3.8369,3.8244,3.8227,3.8268,3.8258,3.8296,3.8388,3.8377,3.8393,3.8455,3.8436,3.8053,3.7214,3.7166,3.7162,3.7195,3.7195,3.8014,3.975,3.9789,4.0238,4.1091,4.1105,4.2011,4.3669,4.2818,4.3833,4.6225,4.5395,4.5519,4.63,4.6308,4.6292,4.63,4.63,4.63,4.63,4.63,4.6846,4.7432,0.0,0.501,0.4903,0.4805,0.4489,0.4362,0.4669,0.4229,0.4053,0.0,0.0,0.0,0.0,0.0,0.0,0.5442,0.5229,0.4766,0.3973,0.385,0.3809,0.3831,0.4314,0.4738,0.5049,0.5515,0.5902,0.62,0.6756,0.7335,0.0,0.0,0.0,0.0,1.0231,1.0353,1.0731,0.9791,0.0,0.0,1.2783,1.4553,0.0,0.0,0.0,0.0,0.0,1.9271,1.9485,0.0,1.7758,1.6519,0.0,0.0,0.0,0.0,0.0,0.0,1.5199,0.0,0.0,0.0,0.0,0.0,2.4295,2.5596,2.6967,2.9551,3.0752,3.193,3.3774,3.4831,3.5545,3.5836,3.6318,3.6798,3.7228,3.679,3.6647,3.7278,3.7395,3.7676,3.8267,3.78,3.7475,0.0,3.6949,3.6521,3.6261,3.6259,3.6548,3.7186,3.7196,3.7737,3.8844,3.9472,4.0232,4.11,4.1096,4.2002,4.3689,4.345,4.4075,4.5386,4.5713,4.603,4.6308,4.6296,4.63,4.63,4.63,4.63,4.63,4.63,4.6452,4.662,0.577,0.55,0.5321,0.5522,0.525,0.5251,0.5989,0.5493,0.5269,0.0,0.0,0.0,0.0,0.0,0.0,0.0,0.6602,0.6027,0.5091,0.4898,0.4738,0.4582,0.4963,0.5327,0.5627,0.6004,0.6411,0.6809,0.7109,0.0,0.0,0.0,0.0,0.0,0.9627,1.0082,0.0,0.0,0.0,0.0,1.4557,0.0,0.0,1.9733,2.0726,0.0,0.0,0.0,2.1843,2.1302,1.9957,0.0,0.0,0.0,0.0,0.0,0.0,0.0,0.0,0.0,0.0,0.0,0.0,0.0,2.3407,2.4271,2.5316,0.0,2.9411,3.0733,3.2237,3.353,3.4466,3.4866,3.4969,3.5326,3.6238,3.6265,3.6394,3.6938,3.7027,3.725,3.7753,3.7053,3.6565,3.6596,3.6163,3.5911,3.5905,3.5897,3.6137,3.6635,3.6668,3.7077,3.7951,3.8466,3.9343,4.0549,4.0564,4.1471,4.3153,4.3153,4.3812,4.4977,4.5448,4.5897,4.625,4.6264,4.6273,4.63,4.63,4.63,4.63,4.63,4.6507,4.6752,0.0,0.6231,0.5909,0.6412,0.6191,0.6335,0.7544,0.7031,0.6791,0.0,0.0,0.0,0.0,0.0,0.0,0.0,0.8126,0.7444,0.6339,0.6061,0.5724,0.5261,0.5617,0.5986,0.6302,0.6647,0.7076,0.0,0.0,0.0,0.0,0.0,0.0,0.0,0.8535,0.9412,0.0,0.0,0.0,1.3559,1.6864,1.8631,0.0,0.0,2.32,2.2822,2.3941,2.4143,2.388,2.3389,2.1748,0.0,0.0,0.0,0.0,0.0,1.7213,0.0,0.0,0.0,0.0,0.0,0.0,0.0,2.4524,2.4341,2.4094,2.6607,2.8307,2.9442,2.9787,3.1207,3.2595,3.3396,3.3833,3.4429,3.5454,3.6358,3.6925,3.6978,3.7085,3.7133,3.7092,3.6401,3.5931,3.5898,3.5905,3.5892,3.5905,3.5911,3.5911,3.5905,3.5911,3.6267,3.7058,3.7155,3.8024,3.9652,3.9741,4.0667,4.2266,4.2451,4.3358,4.476,4.4869,4.5396,4.6183,4.6103,4.6143,4.6296,4.6296,4.6296,4.63,4.6296,4.6741,4.726,0.7504,0.7368,0.7355,0.7635,0.7526,0.7761,0.8867,0.8384,0.8312,0.9406,0.0,0.0,0.0,0.0,0.0,0.0,0.0,0.9366,0.8596,0.7483,0.6607,0.6093,0.6852,0.7405,0.7618,0.8475,0.8809,0.0,0.0,0.0,0.0,0.0,0.0,0.0,0.8665,0.9288,0.0,0.0,0.0,1.6305,1.6723,0.0,2.2385,2.3592,2.4477,2.5119,2.5072,2.5358,2.5652,2.5333,2.4324,2.2899,0.0,0.0,0.0,0.0,0.0,0.0,0.0,0.0,0.0,0.0,0.0,0.0,2.0975,2.1134,2.1838,2.3233,2.3769,2.4643,2.6765,2.8007,2.9002,2.9871,3.177,3.373,3.5372,3.6342,3.693,3.6985,3.7617,3.7773,3.7084,3.6908,3.6565,3.5869,3.5866,3.5905,3.5905,3.5897,3.5897,3.5905,3.5897,3.5986,3.6142,3.6844,3.7731,3.8761,3.9463,4.0345,4.1408,4.2744,4.3538,4.3883,4.4592,4.5397,4.6144,4.5448,4.5577,4.6216,4.6216,4.624,4.6288,4.624,4.6309,4.6426,0.826,0.8103,0.8108,0.8625,0.8595,0.8948,1.0276,1.0003,1.0084,1.1387,0.0,0.0,0.0,0.0,0.0,0.0,0.0,0.0,0.0,0.0,0.8482,0.7624,0.8169,0.8614,0.8834,0.9333,0.9433,0.0,0.0,0.0,0.0,0.0,0.0,0.0,0.0,0.0,0.0,0.0,1.5443,1.8163,1.9487,0.0,2.4812,2.6509,2.7255,2.7261,2.7001,2.6892,2.6738,2.6091,2.5462,0.0,0.0,2.2362,2.2173,0.0,2.1127,2.2274,0.0,0.0,0.0,2.284,0.0,0.0,0.0,2.1016,2.1344,2.3243,2.3354,2.3752,2.5952,2.709,2.8001,2.8868,3.0836,3.2577,3.3481,3.5128,3.6292,3.6337,3.6745,3.7017,3.7055,3.6692,3.627,3.5872,3.5885,3.5891,3.5898,3.5911,3.5891,3.5898,3.5891,3.5903,3.5908,3.6757,3.7644,3.8512,3.937,4.0486,4.1798,4.3031,4.3838,4.4299,4.517,4.5793,4.617,4.5722,4.5806,4.6209,4.6201,4.6484,4.6899,4.6855,4.6839,4.6904,0.9138,0.892,0.888,0.9583,0.9754,1.0234,1.1632,1.1611,0.0,0.0,0.0,0.0,0.0,0.0,0.0,0.0,0.0,0.0,0.0,0.0,1.0694,0.9675,0.9745,0.9967,1.0372,1.0293,1.0093,0.9811,0.0,0.0,0.0,0.0,0.0,0.0,0.0,0.0,0.0,0.0,0.0,2.0427,0.0,2.4816,2.6121,2.8938,2.9521,2.8815,2.8676,2.8334,2.7753,2.6686,2.6338,2.6091,2.4095,2.3631,0.0,0.0,0.0,0.0,0.0,0.0,0.0,0.0,0.0,2.2215,0.0,0.0,0.0,2.3364,2.3291,0.0,0.0,0.0,0.0,0.0,0.0,0.0,0.0,3.242,0.0,3.4643,3.5137,3.5708,3.6295,3.5562,3.5223,3.5612,3.5332,3.5307,3.5632,3.5801,3.5898,3.5905,3.5905,3.5897,3.5908,3.6606,3.7474,3.8521,3.9219,4.0467,4.2183,4.3161,4.3988,4.4695,4.5397,4.5884,4.6176,4.5845,4.5903,4.6203,4.6209,4.663,4.7273,4.7449,4.7509,4.7625,1.0363,1.0321,1.0437,1.0772,1.1408,1.2038,1.2581,1.3065,0.0,0.0,0.0,0.0,0.0,0.0,0.0,0.0,0.0,0.0,1.5566,0.0,0.0,1.2281,1.1843,1.1979,1.2774,1.2399,1.202,1.1694,0.0,0.0,0.0,0.0,0.0,0.0,1.2151,0.0,0.0,0.0,1.9601,0.0,2.5725,2.5605,0.0,2.8167,2.914,2.8893,2.9059,2.9302,2.9359,0.0,2.7989,2.7985,0.0,2.5647,2.5859,2.3994,0.0,0.0,0.0,0.0,0.0,0.0,2.4335,0.0,0.0,0.0,2.1132,2.0218,0.0,0.0,0.0,0.0,0.0,0.0,0.0,0.0,2.5067,2.7121,2.9361,3.0917,3.319,3.438,3.3716,3.2919,3.307,3.4639,3.3329,3.3114,3.4678,3.5476,3.5905,3.5905,3.5897,3.5908,3.5908,3.6011,3.6874,3.8507,3.8608,3.9563,4.1295,4.287,4.3643,4.3753,4.3844,4.4759,4.6079,4.4526,4.4818,4.6196,4.6203,4.6255,4.6437,4.7223,4.7501,4.7611,1.0949,1.0912,1.1029,1.1287,1.1632,1.2005,1.2446,0.0,0.0,0.0,0.0,0.0,0.0,0.0,0.0,0.0,0.0,1.9066,0.0,0.0,0.0,1.5005,1.4523,1.4272,1.4249,1.3751,1.303,1.2118,1.1906,0.0,0.0,0.0,0.0,0.0,1.4336,0.0,1.9269,0.0,2.1081,0.0,0.0,0.0,0.0,3.0051,3.1236,3.0622,3.0984,3.0855,3.0245,0.0,2.8369,0.0,0.0,0.0,0.0,0.0,0.0,0.0,0.0,0.0,0.0,0.0,0.0,0.0,2.0789,0.0,2.0084,0.0,0.0,0.0,0.0,0.0,0.0,0.0,2.4195,0.0,0.0,0.0,2.7016,0.0,0.0,0.0,3.2402,3.1741,3.198,3.3774,3.2288,3.2263,3.4483,3.4943,3.5371,3.5885,3.5903,3.5908,3.5908,3.6406,3.7274,3.8507,3.9004,4.0173,4.1894,4.3065,4.3598,4.3669,4.4674,4.5212,4.5367,4.5137,4.5476,4.6146,4.6146,4.6758,4.7689,4.8054,4.8485,4.8943,1.1571,0.0,0.0,0.0,1.2028,1.2485,1.3297,0.0,0.0,0.0,0.0,0.0,2.1288,2.2522,0.0,0.0,2.3196,2.2118,0.0,0.0,1.8956,0.0,1.7254,0.0,1.6295,1.5184,1.4071,1.2993,1.2684,0.0,0.0,0.0,0.0,0.0,0.0,1.8596,2.2066,0.0,2.3439,2.5843,2.697,2.7763,2.8615,3.182,3.2739,3.2354,3.2335,3.198,3.1245,2.9412,2.887,0.0,2.74,0.0,0.0,0.0,0.0,0.0,2.6169,0.0,0.0,0.0,0.0,0.0,0.0,0.0,0.0,0.0,0.0,0.0,0.0,0.0,0.0,0.0,0.0,2.3865,0.0,2.3351,0.0,0.0,0.0,0.0,0.0,3.0075,3.015,3.2182,0.0,3.0706,3.3749,3.413,3.487,3.6203,3.602,3.6123,3.661,3.6991,3.7761,3.8858,3.9496,4.0583,4.2089,4.3117,4.3474,4.3342,4.5068,4.5449,4.4876,4.549,4.5899,4.6122,4.6113,4.7144,4.8671,4.8681,4.9207,4.9945,1.242,1.2412,0.0,0.0,0.0,0.0,0.0,0.0,0.0,0.0,0.0,0.0,0.0,0.0,0.0,0.0,0.0,2.4281,2.4427,0.0,2.1565,0.0,0.0,1.8767,0.0,1.6999,1.5434,1.5004,1.3583,1.2944,0.0,0.0,0.0,0.0,0.0,1.9857,2.2397,2.4082,2.7538,3.1864,3.1274,3.2428,3.4319,0.0,3.2637,3.357,3.2374,0.0,0.0,3.0796,2.9904,0.0,0.0,0.0,0.0,0.0,0.0,0.0,0.0,0.0,0.0,2.3567,0.0,0.0,0.0,0.0,2.0539,0.0,0.0,0.0,0.0,0.0,0.0,0.0,0.0,0.0,0.0,0.0,0.0,0.0,0.0,0.0,0.0,2.7226,2.6848,0.0,2.7234,0.0,3.1953,3.2917,3.4514,3.7077,3.6337,3.6707,3.8402,3.7603,3.8063,3.975,3.9792,4.0259,4.1192,4.285,4.3148,4.2447,4.412,4.4859,4.49,4.485,4.5384,4.6185,4.6143,4.7126,4.8603,4.8691,4.9207,5.0022,1.4205,0.0,0.0,0.0,0.0,0.0,0.0,1.9596,0.0,0.0,0.0,0.0,0.0,2.7024,2.9218,0.0,0.0,2.8628,2.8025,2.6118,0.0,0.0,0.0,2.2022,0.0,1.9556,1.7892,1.6827,1.5801,1.5406,0.0,0.0,0.0,0.0,0.0,2.1183,0.0,0.0,0.0,0.0,0.0,3.3118,3.5628,0.0,3.3945,3.4189,3.363,3.3458,0.0,3.1631,3.1444,3.1579,2.9745,2.8972,2.888,2.957,2.9687,0.0,0.0,0.0,2.88,2.56,0.0,0.0,0.0,0.0,0.0,0.0,0.0,0.0,0.0,0.0,0.0,0.0,0.0,0.0,0.0,0.0,0.0,0.0,0.0,0.0,0.0,0.0,0.0,0.0,2.6953,0.0,3.1076,3.2591,3.4286,3.6279,3.661,3.7311,3.85,3.8207,3.8656,3.9792,3.9805,4.0253,4.1156,4.2843,4.3121,4.2424,4.4675,4.5357,4.487,4.5376,4.5775,4.6076,4.6035,4.7093,4.8596,4.8569,4.9462,5.0635,1.5221,0.0,0.0,0.0,0.0,0.0,0.0,0.0,0.0,0.0,2.605,0.0,2.6708,0.0,3.0984,0.0,3.1431,3.0822,3.017,2.8544,0.0,2.7659,2.6249,0.0,0.0,0.0,2.063,1.8624,1.786,1.7308,0.0,0.0,0.0,0.0,0.0,2.2182,2.5165,0.0,2.9423,0.0,0.0,3.4694,0.0,0.0,3.5471,3.4564,0.0,3.4173,3.3784,3.2803,3.2873,3.3069,3.1462,3.0725,3.0543,3.0942,3.0906,3.0537,2.9882,3.0016,0.0,2.7036,2.5928,0.0,2.1816,0.0,0.0,0.0,0.0,0.0,0.0,0.0,0.0,0.0,0.0,0.0,0.0,1.8424,0.0,0.0,0.0,0.0,0.0,0.0,0.0,0.0,0.0,0.0,0.0,3.17,3.3531,3.583,3.6746,3.7779,3.8948,3.8656,3.9084,4.0259,3.9941,4.0234,4.113,4.2797,4.293,4.1999,4.4832,4.5415,4.4414,4.555,4.5986,4.5997,4.5972,4.7028,4.8567,4.8528,4.9595,5.0978,1.5679,1.521,0.0,0.0,1.7754,0.0,0.0,0.0,2.9382,0.0,3.0331,3.205,3.2265,3.2406,3.3231,3.5052,3.2721,3.1115,3.1114,2.9878,0.0,0.0,2.857,2.7923,2.7112,0.0,0.0,0.0,0.0,0.0,0.0,0.0,0.0,0.0,2.025,0.0,2.5431,2.8852,3.1828,3.4371,3.6021,3.7187,3.8024,3.8431,3.709,3.4981,3.4781,3.4487,3.4221,3.4197,3.4023,3.3734,3.3189,3.3075,3.3055,3.2654,3.2539,3.2297,3.1185,3.0855,3.0266,2.7872,2.7238,0.0,0.0,0.0,2.4837,0.0,0.0,0.0,0.0,0.0,0.0,0.0,0.0,0.0,0.0,0.0,0.0,0.0,0.0,0.0,0.0,0.0,0.0,0.0,0.0,0.0,0.0,3.0234,3.2304,3.5733,3.6727,3.8052,3.9844,3.9045,3.946,4.1095,4.0259,4.0266,4.1065,4.2735,4.2613,4.1235,4.455,4.5074,4.3695,4.5315,4.5994,4.5986,4.5968,4.703,4.8548,4.8606,4.96,5.0947,1.8324,1.7773,1.7411,0.0,1.8397,2.1008,0.0,0.0,0.0,0.0,3.2787,3.5009,3.6238,3.5667,3.4843,3.397,3.4095,0.0,0.0,0.0,0.0,3.2908,3.1703,3.0738,2.9954,2.7351,0.0,2.4096,0.0,0.0,1.987,0.0,0.0,0.0,0.0,0.0,2.5495,2.8931,3.2594,3.6196,3.7275,3.8209,3.8877,0.0,3.8082,3.7831,3.6498,3.5386,3.452,3.4293,3.4148,3.4049,3.3716,3.3455,3.3304,3.3196,3.2979,3.2702,3.2207,3.1847,3.1375,3.035,2.902,2.7648,0.0,0.0,0.0,0.0,0.0,0.0,0.0,0.0,0.0,0.0,0.0,0.0,0.0,0.0,0.0,1.9363,0.0,0.0,0.0,0.0,0.0,0.0,0.0,0.0,0.0,0.0,3.1403,3.4837,3.6415,3.8344,4.074,4.0545,4.0637,4.102,4.0805,4.0792,4.1069,4.273,4.2907,4.2044,4.4791,4.539,4.4467,4.5503,4.5929,4.5987,4.6629,4.7907,4.9466,5.0114,5.0216,5.0031,2.0431,1.9874,0.0,2.072,0.0,0.0,2.7393,2.924,0.0,3.1697,3.3918,0.0,3.7286,3.6985,3.6406,3.5816,3.5374,0.0,3.5418,0.0,0.0,3.4613,3.4175,3.3423,3.2283,3.0222,0.0,2.6057,0.0,0.0,2.0964,0.0,0.0,0.0,0.0,2.2574,2.564,3.0188,3.4156,3.7481,3.8325,3.9166,0.0,3.9307,3.9115,3.9054,3.8004,3.6653,3.5318,3.5042,3.4596,3.4173,3.4023,3.3868,3.3817,3.4142,3.3707,3.3176,3.3212,3.2753,3.2127,3.1776,3.0751,2.9609,2.8506,2.8492,2.8476,0.0,2.7519,2.75,0.0,0.0,0.0,0.0,0.0,0.0,0.0,0.0,0.0,0.0,1.9495,0.0,0.0,0.0,0.0,0.0,0.0,0.0,0.0,0.0,3.07,3.3379,3.5891,3.8092,3.9896,4.0305,4.085,4.1556,4.0797,4.0828,4.1563,4.249,4.2665,4.2325,4.4497,4.5142,4.4761,4.5563,4.5912,4.6016,4.7235,4.829,4.9281,5.0511,5.065,5.0171,2.24,0.0,0.0,0.0,0.0,0.0,0.0,2.9881,0.0,3.2771,0.0,3.6009,3.6934,3.72,3.7673,3.8615,0.0,3.5381,3.6216,3.5549,3.522,3.5376,3.5993,3.5644,3.4149,3.3227,3.0882,0.0,0.0,0.0,0.0,0.0,0.0,0.0,0.0,0.0,0.0,3.2092,3.5929,3.8295,3.92,4.003,4.07,4.0583,4.0081,3.945,3.9339,3.8039,3.6368,3.617,3.5405,3.4479,3.4282,3.437,3.4668,3.5285,3.4775,3.4073,3.4438,3.3702,3.2781,3.2666,3.2284,3.1601,3.0231,2.9817,2.9712,2.973,2.851,2.7792,0.0,0.0,0.0,0.0,0.0,0.0,0.0,0.0,0.0,0.0,0.0,0.0,0.0,0.0,0.0,0.0,0.0,0.0,0.0,0.0,2.9732,3.1929,3.5256,3.7532,3.8564,3.9431,4.0676,4.2272,4.0638,4.068,4.2198,4.2189,4.2189,4.2274,4.3947,4.4691,4.4749,4.5557,4.6028,4.6358,4.771,4.843,4.8894,5.0248,5.0809,5.079,2.5291,0.0,0.0,0.0,0.0,3.4888,3.7487,3.5536,3.4091,3.4969,3.6445,3.7551,3.7764,3.7801,3.7875,3.8114,3.7068,0.0,0.0,0.0,0.0,3.7349,3.6885,3.6189,3.5243,3.377,3.1402,0.0,0.0,0.0,0.0,0.0,0.0,0.0,0.0,0.0,2.9864,3.3787,0.0,3.8407,3.9939,4.0604,4.07,4.0668,4.0535,4.0361,4.0277,3.9037,3.7393,3.7262,3.6723,3.5894,3.4795,3.5286,3.6296,3.6403,3.6454,3.6465,3.6425,3.524,3.3988,3.3895,3.3016,3.2074,3.1812,3.1495,3.1259,3.1441,3.0465,2.9431,2.8715,0.0,0.0,0.0,0.0,0.0,0.0,0.0,0.0,0.0,0.0,2.0285,0.0,0.0,0.0,0.0,0.0,0.0,0.0,0.0,2.7284,0.0,3.4618,0.0,0.0,0.0,4.1205,4.2207,4.1178,4.1218,4.2198,4.2139,4.2125,4.2206,4.3892,4.4621,4.4672,4.5485,4.6665,4.7923,4.7482,4.8604,5.0422,5.0055,5.0326,5.079,0.0,0.0,0.0,0.0,0.0,0.0,0.0,3.9184,3.7979,3.6795,3.7279,3.7766,3.7788,3.8474,3.8959,3.8983,3.8,3.7815,3.8869,3.7909,3.7766,3.8758,3.8421,3.7798,3.6969,3.5329,3.2924,2.9701,0.0,0.0,0.0,0.0,0.0,0.0,0.0,2.7621,0.0,0.0,0.0,3.8438,4.0122,4.0781,4.0742,4.0713,4.0694,4.0635,4.0579,3.995,3.9057,3.8441,3.7928,3.7355,3.6293,3.6629,3.7299,3.6863,3.6496,3.627,3.6486,3.5235,3.3948,3.424,3.3354,3.242,3.2387,3.2144,3.1912,3.1984,3.1198,2.9917,2.8012,2.5723,0.0,0.0,0.0,0.0,0.0,0.0,0.0,0.0,0.0,0.0,0.0,0.0,0.0,0.0,0.0,2.1,2.2759,0.0,2.6417,0.0,0.0,0.0,3.8944,0.0,4.1121,4.2869,4.151,4.1548,4.2809,4.2319,4.2323,4.2795,4.4047,4.4846,4.5297,4.6129,4.696,4.7773,4.8256,4.9204,5.0287,5.0306,5.0581,5.0778,0.0,2.965,0.0,0.0,3.8918,4.05,4.1065,4.1607,4.1055,3.848,3.8309,3.8347,3.8156,3.9241,3.9962,3.9962,3.8809,3.859,3.9772,3.8745,3.8587,3.9656,3.95,3.9081,3.8395,3.6908,3.4502,0.0,0.0,0.0,0.0,0.0,0.0,0.0,0.0,0.0,0.0,0.0,3.6774,3.8634,4.0186,4.0807,4.0826,4.0955,4.0977,4.0984,4.0932,4.0848,4.0642,3.9578,3.9069,3.8709,3.7883,3.7964,3.8233,3.7368,3.6689,3.6318,3.6694,3.5522,3.4233,3.4667,3.3782,3.2734,3.2639,3.2422,3.2162,3.1969,3.1081,2.9626,2.743,2.5936,0.0,0.0,0.0,0.0,0.0,0.0,0.0,0.0,0.0,0.0,1.879,0.0,0.0,0.0,0.0,2.0469,2.1813,2.3149,2.5875,0.0,0.0,3.4642,3.7715,0.0,4.0809,4.3179,4.1585,4.1621,4.3109,4.24,4.2531,4.3344,4.4227,4.5162,4.6129,4.6825,4.7308,4.7773,4.8952,4.9649,5.0016,5.0465,5.0739,5.0803,0.0,0.0,0.0,0.0,0.0,4.1035,4.3244,4.278,4.1637,4.0138,4.0635,4.0826,4.0043,4.0101,4.0158,4.0158,3.907,3.882,3.9901,3.9013,3.8899,3.992,3.9197,3.874,3.8658,3.773,3.5401,0.0,0.0,2.6445,0.0,0.0,0.0,0.0,0.0,0.0,0.0,3.4323,3.7007,3.9209,4.0352,4.0837,4.0974,4.169,4.1935,4.1874,4.1874,4.1832,4.1613,4.0681,4.0224,3.9872,3.8956,3.9119,3.9437,3.8437,3.8584,3.9006,3.8868,3.7553,3.6168,3.6007,3.4504,3.305,3.2975,3.2621,3.2125,3.1505,2.9977,2.838,2.7289,2.6903,2.6073,0.0,0.0,0.0,0.0,0.0,2.3277,2.1084,0.0,0.0,0.0,1.8183,0.0,0.0,1.8764,2.0067,2.2647,2.289,2.4941,2.9291,3.1757,3.3961,3.5921,3.831,4.0432,4.2214,4.1269,4.1296,4.2226,4.2073,4.2473,4.3343,4.4214,4.551,4.698,4.7076,4.8024,4.9397,4.8778,4.9455,5.0697,4.9988,5.0223,5.088,0.0,0.0,0.0,0.0,0.0,0.0,0.0,4.3679,4.2698,4.2547,4.2071,4.1615,4.1251,4.0751,4.0444,4.0425,3.9972,3.9844,4.0285,3.9919,3.9862,4.0213,3.9871,3.9643,3.9604,3.8746,3.7071,0.0,0.0,0.0,0.0,0.0,0.0,0.0,0.0,2.9824,3.3896,3.7316,3.9324,4.0306,4.1265,4.1944,4.2371,4.2172,4.2078,4.1996,4.148,4.1235,4.1109,4.0694,4.0473,4.0285,3.9795,3.9793,3.9762,3.8776,3.8597,3.8721,3.8595,3.7266,3.597,3.6288,3.4859,3.3339,3.316,3.2912,3.2616,3.2166,3.0633,2.8923,2.758,2.6916,2.6437,2.6014,0.0,0.0,0.0,0.0,0.0,2.3129,0.0,2.158,0.0,0.0,0.0,0.0,0.0,1.8979,2.1158,2.2252,2.43,2.7575,0.0,3.333,3.5618,3.7641,4.0062,4.2819,4.1944,4.2254,4.3608,4.3569,4.4007,4.4824,4.5167,4.5998,4.7144,4.7661,4.857,4.9656,4.983,5.0298,5.0805,5.0441,5.052,5.0775,3.7038,0.0,3.886,0.0,4.3939,4.5603,4.5637,4.4633,4.4045,4.4544,4.3685,4.2772,4.2086,4.1504,4.1118,4.1133,4.0746,4.0523,4.0554,4.1046,4.1074,4.046,4.0624,0.0,4.0271,3.9393,3.8532,3.763,3.4901,0.0,0.0,0.0,0.0,0.0,2.8528,3.081,3.7394,3.979,4.1052,4.1422,4.1694,4.247,4.3372,4.2896,4.262,4.24,4.1783,4.1513,4.1357,4.0795,4.0742,4.0825,4.0384,4.0196,3.9983,3.921,3.889,3.8752,3.8657,3.748,3.6416,3.6864,3.5505,3.4036,3.38,3.34,3.2939,3.2435,3.0917,2.932,2.8141,2.7248,2.673,2.6935,0.0,0.0,0.0,2.5834,0.0,0.0,2.299,2.2082,2.2374,2.0852,0.0,0.0,0.0,1.9982,2.156,2.2585,2.4524,0.0,0.0,0.0,3.555,3.7482,3.994,4.2879,4.2246,4.2762,4.4194,4.4452,4.5003,4.5765,4.5786,4.6424,4.75,4.811,4.9019,5.003,5.0632,5.0846,5.0793,5.0775,5.0738,5.0701,4.4513,4.5343,4.547,4.5528,4.5566,4.562,4.5684,4.5737,4.5761,4.578,4.5761,4.4882,4.256,4.2338,4.2367,4.2367,4.1239,4.0554,4.0693,4.2311,4.2444,0.0,0.0,4.136,4.0435,3.9553,3.9478,4.0248,0.0,0.0,3.5418,0.0,3.5588,3.5491,3.2068,3.4361,4.0849,4.0888,4.1548,4.2481,4.1354,4.1956,4.3558,4.4005,4.3846,4.3385,4.3369,4.3279,4.2902,4.1181,4.1157,4.1694,4.0628,4.0252,4.0158,3.9956,3.987,3.9848,3.9647,3.893,3.8239,3.8116,3.6675,3.5227,3.5009,3.4058,3.2913,3.1929,3.032,2.9083,2.9011,2.8228,2.711,2.5662,0.0,0.0,0.0,2.4954,0.0,2.4591,2.2549,2.1976,2.3895,2.2018,0.0,0.0,0.0,0.0,0.0,0.0,0.0,3.012,3.1981,0.0,3.5477,3.8026,4.0159,4.1904,4.1904,4.2348,4.325,4.4109,4.4939,4.5696,4.5771,4.6752,4.8292,4.8292,4.9315,5.088,5.081,5.0793,5.0793,5.0739,5.0701,5.0701,4.5284,4.555,4.5637,4.5712,4.5727,4.5742,4.5771,4.5786,4.58,4.58,4.58,4.5529,4.4771,4.365,4.3129,0.0,4.2878,4.2902,0.0,4.362,4.3543,4.41,4.2671,4.172,4.142,4.0527,4.0204,4.05,0.0,0.0,0.0,3.5963,3.6899,3.9127,3.8044,3.8789,4.0985,4.217,4.2889,4.3238,4.3412,4.4178,4.5157,4.4703,4.4744,4.4892,4.3802,4.335,4.3085,4.1936,4.1702,4.1735,4.0761,4.0358,4.0233,4.0139,4.0039,3.9954,3.9826,3.9131,3.8399,3.8214,3.6777,3.5403,3.5227,3.4209,3.3015,3.2151,3.1387,3.054,2.9461,2.904,2.8674,2.8279,2.8126,0.0,2.7103,0.0,2.549,2.4712,2.4212,2.4192,2.4846,2.4432,0.0,0.0,0.0,0.0,0.0,0.0,0.0,0.0,3.2436,0.0,3.5422,3.8535,4.0985,4.2722,4.332,4.4048,4.4909,4.5244,4.5499,4.5706,4.5765,4.6731,4.8229,4.8282,4.9269,5.0757,5.0738,5.072,5.074,5.0721,5.0683,5.0683,4.5668,4.5668,4.57,4.5786,4.58,4.58,4.58,4.5835,4.588,4.588,4.588,4.5867,4.5841,4.4866,0.0,4.4775,4.4465,4.4504,4.5162,4.4601,4.4523,4.5162,4.4018,4.3062,4.2401,4.1489,0.0,4.1089,3.9644,3.8791,3.8492,3.7861,3.8716,4.0803,4.082,4.1216,4.1995,4.3704,4.419,4.3782,4.3412,4.4372,4.5933,4.5374,4.5241,4.5241,4.4234,4.3821,4.3639,4.2742,4.2642,4.2671,4.142,4.0941,4.0745,4.0329,4.0348,4.0437,4.007,3.951,3.8984,3.8827,3.7416,3.5857,3.4992,3.4156,3.3367,3.2791,3.2322,3.1654,3.0596,3.0166,2.9879,2.9574,2.908,2.8533,2.7968,0.0,2.5721,0.0,0.0,0.0,0.0,2.6763,2.7214,0.0,0.0,0.0,0.0,0.0,0.0,2.9999,3.4041,3.6553,3.7264,3.9717,4.1841,4.3564,4.4427,4.5153,4.5651,4.5735,4.5738,4.5657,4.577,4.6526,4.7752,4.8116,4.9061,5.0277,5.0586,5.0702,5.0702,5.0702,5.0702,5.0683,4.58,4.5794,4.5794,4.5794,4.5794,4.5794,4.5794,4.5929,4.5997,4.5997,4.5997,4.5964,4.5912,4.5906,4.5874,4.5814,0.0,0.0,4.4369,4.5239,4.5355,4.4349,4.52,4.4959,4.3323,4.2435,4.1991,4.1991,4.1247,4.09,4.09,4.0919,4.0977,4.1047,4.1082,4.2053,4.3782,4.5336,4.5394,4.4229,4.2112,4.3161,4.5997,4.5941,4.544,4.4788,4.4705,4.4697,4.4529,4.3612,4.3834,4.4214,4.251,4.1947,4.1656,4.0539,4.0731,4.1149,4.0327,4.0015,3.9889,3.9826,3.8437,3.6582,3.4562,3.4065,3.3942,3.3753,3.3067,3.2429,3.2151,3.1508,3.0721,2.9845,2.9665,2.9062,2.7551,2.6541,2.6087,0.0,0.0,0.0,2.7975,2.9005,2.9909,0.0,0.0,0.0,0.0,0.0,3.0681,3.3881,3.6511,3.8684,4.0396,4.137,4.271,4.4381,4.5203,4.5586,4.5603,4.5668,4.5651,4.5622,4.5754,4.6256,4.7041,4.7869,4.8738,4.9662,5.0394,5.0683,5.0683,5.0702,5.0702,5.0682,4.5953,4.5964,4.5964,4.5964,4.5964,4.5964,4.5964,4.5986,4.5997,4.5997,4.5898,4.5893,4.5964,4.5929,4.5893,4.5874,4.5827,4.5684,4.5432,4.5664,4.5684,4.5432,4.5084,4.4684,4.4283,4.3407,4.2963,4.2963,4.2834,4.2763,4.2744,4.2366,4.2629,4.3455,4.3063,4.3821,4.5433,4.5822,4.5841,4.555,4.5006,4.5278,4.5997,4.5986,4.5825,4.5609,4.5589,4.5564,4.5374,4.4501,4.4322,4.4292,4.3166,4.322,4.3249,4.1011,4.046,4.0501,4.0253,4.0117,4.0015,3.9911,3.8916,3.7497,3.5578,3.508,3.4818,3.4015,3.3606,3.3195,3.252,3.2183,3.1719,3.0947,3.0267,2.9515,2.8542,2.7707,2.7222,0.0,2.773,2.848,2.9646,3.1255,3.2061,0.0,0.0,0.0,3.3261,3.3448,3.3935,3.4786,3.7927,3.987,4.0377,4.2487,4.4096,4.5207,4.5472,4.5586,4.5603,4.5673,4.5673,4.5603,4.569,4.6521,4.7835,4.8047,4.9028,5.0433,5.0567,5.0623,5.0623,5.0582,5.0542,5.0542,4.5997,4.5997,4.6502,4.8094,4.7065,4.5997,4.5997,4.5997,4.5997,4.5997,4.5941,4.5929,4.5997,4.5975,4.5953,4.5949,4.588,4.5854,4.5854,4.5854,4.5854,4.5887,4.548,4.5235,4.5196,4.4363,4.3744,4.335,4.3395,4.3407,4.34,4.3377,4.3721,4.4314,4.4529,4.5142,4.5997,4.5997,4.5997,4.6133,4.7745,4.7423,4.6042,4.6535,4.6402,4.5906,4.5867,4.5827,4.5733,4.5254,4.5075,4.4877,4.3975,4.3968,4.3938,4.2082,4.1492,4.1265,4.0463,4.0176,3.9962,3.9394,3.8784,3.792,3.6515,3.5833,3.5324,3.4759,3.4197,3.3687,3.3193,3.3013,3.2566,3.1399,3.0782,2.9963,2.8458,2.8213,2.8205,2.8251,2.9058,3.0107,3.1422,3.2869,3.3754,3.3829,3.4333,0.0,3.5305,3.6236,3.6596,3.6234,3.9166,4.0979,4.1492,4.3618,4.4978,4.5495,4.555,4.5568,4.5586,4.5657,4.5657,4.5622,4.6061,4.6737,4.7605,4.8375,4.924,5.0144,5.047,5.0603,5.0603,5.0521,5.05,5.05,4.6017,4.6007,4.6929,4.9901,4.7978,4.5997,4.5997,4.5997,4.6191,4.6715,4.6773,4.6579,4.6055,4.5997,4.5997,4.5997,4.5953,4.5917,4.5893,4.606,4.6111,4.5999,4.6135,4.6104,4.5886,4.5227,4.4517,4.3775,4.3782,4.3775,4.3792,4.43,4.4536,4.4577,4.5559,4.5986,4.5986,4.5997,4.6094,4.651,4.9579,4.907,4.6596,4.7424,4.7126,4.6261,4.6201,4.6192,4.6148,4.5997,4.6008,4.5905,4.4867,4.4603,4.4455,4.3386,4.3043,4.2623,4.0922,4.0272,3.9865,3.8931,3.8606,3.8286,3.7365,3.6534,3.5895,3.5578,3.4895,3.4305,3.4089,3.3963,3.3396,3.1715,3.1342,3.0465,2.8145,0.0,2.9237,2.9563,3.0346,3.1589,3.3403,3.4363,3.5285,3.6224,3.6979,3.7501,3.775,3.8441,3.8556,3.8004,4.0329,4.2125,4.3178,4.4672,4.5438,4.5495,4.5513,4.5608,4.5778,4.5714,4.5791,4.6009,4.6621,4.7045,4.7394,4.8798,4.9452,4.9644,5.0315,5.0582,5.0562,5.05,5.0478,5.0478,4.6146,4.6084,4.6171,4.6715,4.6366,4.5997,4.5997,4.5997,4.7065,5.0017,5.0386,4.9279,4.6307,4.5997,4.5997,4.5997,4.5997,4.5941,4.5808,4.6823,4.7,4.6044,4.6659,4.6661,4.5925,4.5769,4.5653,4.5517,4.5499,4.5519,4.5519,4.5596,4.566,4.5646,4.5852,4.5929,4.5929,4.5975,4.6557,4.7513,4.8528,4.8871,4.8767,4.847,4.8225,4.8023,4.8,4.7955,4.7774,4.7014,4.7178,4.7451,4.5839,4.5783,4.5994,4.4384,4.3905,4.3522,4.1723,4.0651,3.9916,3.9607,3.95,3.9204,3.8159,3.7804,3.7293,3.5801,3.5873,3.5988,3.5277,3.5061,3.4447,3.2797,3.1918,3.0888,2.9189,0.0,3.0692,3.213,3.3062,3.4309,3.6117,3.647,3.7024,3.8033,3.7669,3.8035,3.9456,3.9107,3.9128,3.9698,4.1589,4.3368,4.4977,4.5323,4.5495,4.5495,4.5568,4.599,4.6682,4.595,4.6392,4.7682,4.7144,4.7702,4.9029,4.9221,4.9739,5.0411,5.044,5.0435,5.0435,5.0348,5.0325,5.0325,4.6189,4.6146,4.6084,4.6007,4.6066,4.6102,4.6102,4.6056,4.6579,4.8191,4.8405,4.7805,4.6268,4.6037,4.5997,4.5997,4.5997,4.5975,4.5898,4.7641,4.8421,4.79,4.7936,4.7757,4.7361,4.7361,4.7105,4.6603,4.7075,4.6829,4.5912,4.6377,4.6345,4.5925,4.639,4.6603,4.6603,4.6826,4.7377,4.8225,4.9427,4.9459,4.8836,4.9063,4.8803,4.8353,4.8342,4.8295,4.8172,4.7752,4.7815,4.7875,4.6608,4.6455,4.6493,4.5169,4.4114,4.3175,4.2273,4.1694,4.1301,4.1099,4.0731,4.025,3.9677,3.884,3.7904,3.7082,3.6775,3.6523,3.6125,3.5594,3.5006,3.4275,3.305,3.1961,3.1298,3.1524,3.2256,3.3576,3.4492,3.5533,3.6873,3.7451,3.7981,3.8515,3.8674,3.9096,3.9916,3.9697,3.9928,4.0766,4.2086,4.3617,4.5319,4.54,4.5688,4.6148,4.5687,4.5993,4.6874,4.599,4.6278,4.7471,4.7528,4.8241,4.9375,4.9816,5.0218,5.054,5.0435,5.0412,5.039,5.0325,5.0278,5.0255,4.6196,4.6839,4.7097,4.6211,4.68,4.7111,4.6313,4.6102,4.6329,4.7126,4.7222,4.6941,4.6224,4.6066,4.6327,4.7143,4.7201,4.6851,4.6055,4.8444,4.9901,4.9901,4.9066,4.8599,4.8599,4.8599,4.8138,4.7204,4.8063,4.7701,4.6189,4.7061,4.7113,4.65,4.7178,4.7488,4.7488,4.7753,4.8231,4.8916,5.0441,5.022,4.9088,4.9732,4.9533,4.889,4.8874,4.8844,4.8756,4.8545,4.8566,4.8471,4.7185,4.6916,4.6839,4.5744,4.438,4.3226,4.2974,4.2699,4.2435,4.2276,4.1755,4.1254,4.1104,3.9908,3.8765,3.8689,3.7932,3.727,3.7262,3.6515,3.5821,3.5451,0.0,3.3364,3.3027,3.3348,3.3976,3.4885,3.5773,3.6643,3.761,3.8319,3.8746,3.8858,3.9719,4.0163,4.0015,4.0418,4.1089,4.195,4.2698,4.3789,4.5298,4.5359,4.5744,4.6397,4.5726,4.5899,4.6838,4.6165,4.6434,4.7472,4.8087,4.8817,4.9642,5.0274,5.0521,5.0478,5.0412,5.0367,5.0348,5.0302,5.0255,5.0226,4.6196,4.8748,4.9917,4.6734,4.8806,4.9859,4.6683,4.6196,4.7318,5.0494,5.086,4.959,4.6357,4.6007,4.7298,5.0542,5.0814,4.9454,4.621,4.9182,5.1066,5.1066,4.9493,4.8599,4.8599,4.8596,4.8133,4.7204,4.8056,4.799,4.7018,4.7889,4.8275,4.8232,4.829,4.8309,4.8309,4.8348,4.8827,4.9688,5.0569,5.0879,5.0811,5.0805,5.0758,5.0706,5.0636,5.0582,5.0374,4.9586,4.9798,4.9988,4.7569,4.728,4.7505,4.5876,4.5201,4.4848,4.4021,4.3111,4.2389,4.2323,4.2243,4.2157,4.1957,4.1248,4.0558,4.0435,3.9674,3.9043,3.916,3.8417,3.7329,3.5912,0.0,0.0,3.3396,3.4517,3.5834,3.6705,3.751,3.8402,3.9406,3.9571,3.9618,3.9709,4.0634,4.0851,4.0034,4.154,4.2821,4.3683,4.3842,4.4381,4.5379,4.5398,4.5438,4.5496,4.5419,4.586,4.6704,4.6646,4.751,4.9025,4.9081,4.9599,5.0404,5.0396,5.0412,5.0412,5.0325,5.0278,5.0212,5.0278,5.0255,5.0326,4.8943,5.0404,5.0891,4.9586,5.0443,5.0151,4.6722,4.6196,4.6663,4.7969,4.9926,5.0697,4.9376,4.9221,4.9765,5.1086,5.1202,5.0173,4.7764,4.7842,4.8949,5.1105,5.0581,5.0212,5.0212,5.0219,4.9737,4.8813,4.9691,4.9359,4.7927,4.8798,4.8914,4.8411,4.8972,4.9204,4.9243,4.9775,5.0182,5.0457,5.082,5.0956,5.0941,5.0913,5.088,5.0829,5.0775,5.072,5.0664,5.0337,5.0414,5.0374,4.8797,4.8123,4.7698,4.6449,4.6058,4.5935,4.5544,4.4748,4.3971,4.3875,4.3472,4.3069,4.2893,4.2183,4.1522,4.1443,4.11,4.084,4.0867,3.9784,3.8842,3.8704,0.0,3.6409,3.6254,3.6395,3.6817,3.7689,3.8089,3.885,4.0363,4.05,4.0778,4.1363,4.1768,4.1829,4.1506,4.2718,4.3586,4.3956,4.4512,4.4993,4.5338,4.5835,4.6105,4.6146,4.6682,4.7143,4.7509,4.7509,4.8142,4.9196,4.9196,4.9674,5.0435,5.0412,5.0348,5.0278,5.0302,5.0255,5.0264,5.0841,5.1032,5.1122,4.9449,4.9703,5.0034,5.1106,5.13,5.0502,4.8164,4.7793,4.7793,4.7793,4.979,5.1202,5.1202,5.1202,5.1202,5.1202,5.1202,5.0542,4.8988,4.7764,4.8327,5.1086,5.1202,5.119,5.1171,5.1159,5.0707,4.9769,5.0641,5.0289,4.8836,4.9687,4.9765,4.9204,4.9838,5.0109,5.0113,5.0704,5.0956,5.0921,5.0956,5.0941,5.089,5.0897,5.0846,5.0756,5.072,5.0702,5.0702,5.0702,5.0702,5.049,4.9546,4.864,4.7832,4.7092,4.6873,4.679,4.6473,4.5912,4.5309,4.4896,4.438,4.3939,4.3804,4.3074,4.2495,4.2677,4.2239,4.1931,4.222,4.1127,4.0184,4.0195,3.9257,3.8515,3.8546,3.8584,3.8826,3.9414,3.9513,4.0013,4.1259,4.1397,4.169,4.2309,4.2635,4.2924,4.317,4.365,4.4024,4.4336,4.497,4.5411,4.566,4.5965,4.6273,4.6583,4.6927,4.7254,4.7545,4.7811,4.8233,4.8788,4.9283,4.9835,5.0344,5.0302,5.0407,5.0544,5.0345,5.0531,5.0977,5.132,5.1605,5.1923,4.6917,4.6235,4.7306,5.0716,5.13,5.13,5.13,5.13,5.13,5.13,5.124,5.1202,5.1202,5.1202,5.1202,5.1202,5.1202,5.0717,4.959,4.9512,5.0017,5.1144,5.1202,5.1171,5.1095,5.1102,5.0635,4.9708,5.0579,5.0564,4.9726,5.0538,5.0906,5.0906,5.0971,5.0956,5.0906,5.0906,5.0941,5.0986,5.0941,5.0906,5.089,5.0897,5.0829,5.0701,5.0701,5.0702,5.0702,5.0702,5.0663,5.0449,4.9565,4.8659,4.7862,4.7751,4.7709,4.7514,4.6578,4.632,4.6087,4.5048,4.4796,4.4764,4.4632,4.3984,4.3619,4.4346,4.3127,4.22,4.3144,4.2546,4.1413,3.9877,4.0966,4.1454,3.9821,4.1036,4.2102,4.2102,4.2153,4.2203,4.2203,4.2276,4.23,4.2319,4.3185,4.4061,4.4857,4.4262,4.4271,4.5065,4.5213,4.5679,4.65,4.5698,4.5717,4.65,4.5698,4.5736,4.6538,4.7417,4.7818,4.7892,4.9506,5.0188,5.0188,5.0133,5.0621,5.1326,5.045,5.1083,5.2398,5.1699,5.1882,5.2626,4.9976,4.9781,5.0092,5.1125,5.13,5.13,5.13,5.13,5.13,5.13,5.124,5.1202,5.1202,5.1202,5.1202,5.1202,5.1202,5.1066,5.0717,5.0114,5.0212,5.1163,5.1202,5.119,5.1171,5.1114,5.0953,5.0687,5.0932,5.0903,5.0622,5.0825,5.0906,5.0906,5.0921,5.0906,5.0906,5.0906,5.0906,5.0941,5.0906,5.0909,5.0897,5.0846,5.0775,5.0701,5.0702,5.0702,5.0683,5.0643,5.0623,5.0429,4.9444,4.8977,4.8739,4.8674,4.8674,4.8594,4.8224,4.8123,4.7604,4.5426,4.4821,4.4789,4.4685,4.4417,4.4242,4.4458,4.4046,4.3755,4.4074,4.3436,4.2723,4.2262,4.2145,4.1907,4.14,4.1826,4.2178,4.2178,4.2203,4.2454,4.3107,4.3188,4.3459,4.4075,4.4383,4.4673,4.4967,4.4832,4.4881,4.517,4.5235,4.5679,4.65,4.6271,4.6268,4.6492,4.6835,4.7079,4.73,4.8157,4.8881,4.9434,4.9904,5.0133,5.0133,5.0108,5.0596,5.1304,5.109,5.1616,5.255,5.2938,5.3251,5.3593,5.13,5.13,5.13,5.13,5.13,5.13,5.13,5.13,5.0813,4.9469,5.0432,5.0986,5.0284,5.0806,5.1202,5.1202,5.1202,5.1202,5.1202,5.0355,5.0258,5.112,5.1159,5.1159,5.1159,5.1114,5.1108,5.1095,5.1067,5.1053,5.1005,5.0921,5.0906,5.0906,5.0941,5.0921,5.0906,5.0906,5.089,5.0893,5.0877,5.0844,5.0829,5.0775,5.0739,5.0702,5.0663,5.0663,5.0643,5.0582,5.0542,5.0404,4.9781,4.9561,4.9576,4.9534,4.9553,4.9453,4.8985,4.8859,4.8359,4.6379,4.5603,4.5299,4.5247,4.485,4.4524,4.4524,4.4496,4.4468,4.4515,4.4129,4.3724,4.3404,4.3205,4.2987,4.2699,4.2976,4.3234,4.3234,4.3258,4.3491,4.407,4.4107,4.434,4.4857,4.4895,4.4919,4.4943,4.5057,4.5103,4.5125,4.5538,4.5979,4.6473,4.6457,4.6797,4.7499,4.7632,4.7834,4.8128,4.8661,4.9175,4.9651,4.993,5.0057,5.0057,5.0031,5.0518,5.1269,5.1315,5.2018,5.3025,5.3556,5.3984,5.4354,5.13,5.1292,5.1284,5.1284,5.1292,5.13,5.13,5.13,5.0073,4.6644,4.8904,5.0349,4.907,5.0303,5.1202,5.1202,5.1202,5.1202,5.1202,5.0389,5.028,5.1076,5.1102,5.1102,5.1095,5.1102,5.1095,5.1101,5.102,5.1005,5.1005,5.0921,5.0906,5.0906,5.0956,5.0956,5.089,5.089,5.0893,5.0899,5.0906,5.0891,5.0817,5.0817,5.0798,5.0798,5.0662,5.0603,5.0582,5.0521,5.0457,5.039,5.0325,5.0302,5.0278,5.0231,5.0212,5.0011,4.9144,4.8929,4.8713,4.7839,4.6992,4.6289,4.6059,4.5337,4.47,4.4624,4.4605,4.4578,4.4542,4.4551,4.4361,4.3634,4.4143,4.4395,4.3718,4.4317,4.4796,4.4796,4.4846,4.4895,4.4895,4.4895,4.4895,4.4895,4.4895,4.4895,4.4895,4.5109,4.5194,4.5124,4.602,4.6538,4.6625,4.6614,4.7381,4.8867,4.799,4.8043,4.8865,4.8865,4.8922,4.9036,4.9708,5.0005,4.9978,5.0001,5.0523,5.1319,5.1395,5.24,5.3821,5.3821,5.4276,5.4901,5.13,5.1259,5.1217,5.1217,5.1269,5.13,5.13,5.13,5.0073,4.6644,4.6839,4.8152,5.0409,5.0969,5.1202,5.1202,5.1202,5.1202,5.1202,5.0965,5.0901,5.1095,5.1108,5.1101,5.1095,5.1048,5.1015,5.1034,5.102,5.1005,5.1005,5.0921,5.0906,5.0906,5.0913,5.0897,5.0897,5.0844,5.0827,5.0887,5.1545,5.1779,5.1722,5.1722,5.1684,5.1548,5.0854,5.0603,5.0582,5.0457,5.039,5.0325,5.0302,5.0302,5.0302,5.0278,5.0278,5.0217,4.9954,4.9866,4.9752,4.9511,4.8768,4.7768,4.6384,4.587,4.5496,4.4817,4.4685,4.4685,4.4659,4.4659,4.4655,4.4518,4.4631,4.4714,4.4619,4.4757,4.487,4.487,4.4895,4.4895,4.4895,4.4895,4.4895,4.4895,4.4895,4.4895,4.4895,4.5613,4.6041,4.6017,4.6868,4.7677,4.8357,4.8357,4.8186,4.7832,4.7044,4.7395,4.8738,4.8738,4.9098,4.9686,4.983,4.9906,4.9963,5.0637,5.1414,5.221,5.2892,5.3764,5.4636,5.4636,5.475,5.4901,4.9196,4.8788,4.8716,4.8716,4.8807,4.941,5.1047,5.13,5.0657,4.8865,4.8631,4.8674,4.8798,5.0267,5.1219,5.1202,5.1202,5.1202,5.1202,5.1139,5.1114,5.1089,5.1067,5.1039,5.1005,5.0971,5.0986,5.1053,5.102,5.1005,5.1005,5.0925,5.0893,5.0893,5.0863,5.0846,5.0846,5.0775,5.0738,5.0795,5.1259,5.1395,5.1376,5.1376,5.1356,5.1298,5.1158,5.1344,5.1644,5.1576,5.1262,5.0932,5.0932,5.0627,5.0302,5.0302,5.0302,5.0278,5.0231,5.0163,5.0133,5.0038,4.9682,4.8958,4.7636,4.697,4.6482,4.6029,4.5632,4.55,4.5825,4.5266,4.4896,4.5363,4.5079,4.4821,4.4895,4.4895,4.4895,4.4895,4.4895,4.4895,4.4895,4.4895,4.5066,4.5483,4.552,4.5691,4.607,4.66,4.6871,4.6822,4.7713,4.8194,4.8182,4.8625,4.8587,4.8055,4.8112,4.8523,4.9254,4.9254,4.9481,4.9898,4.9898,4.9898,4.9955,5.0846,5.1452,5.1964,5.3215,5.3954,5.4371,5.4769,5.4871,5.486,4.6878,4.6093,4.5997,4.5997,4.6589,4.7832,5.0073,5.093,5.13,5.13,5.1284,5.0213,4.7384,4.959,5.1269,5.1214,5.1202,5.1202,5.1202,5.1146,5.1089,5.1101,5.102,5.0956,5.0906,5.0906,5.0956,5.1073,5.1005,5.099,5.099,5.0913,5.0863,5.0883,5.081,5.0793,5.0775,5.0701,5.0702,5.0702,5.0856,5.0991,5.1125,5.1125,5.1202,5.1375,5.179,5.2288,5.2805,5.2805,5.2365,5.1811,5.1811,5.1314,5.0722,5.0722,5.0722,5.0722,5.0651,5.0651,5.0626,5.0552,5.0406,5.0043,4.9326,4.8318,4.7507,4.7356,4.6788,4.6497,4.7124,4.6131,4.5483,4.6202,4.5597,4.5048,4.5122,4.499,4.4895,4.4895,4.4895,4.4895,4.4895,4.4895,4.5255,4.6127,4.6203,4.6544,4.7359,4.758,4.7675,4.7605,4.851,4.8605,4.7806,4.8586,4.8946,4.8913,4.9629,4.9933,4.9898,4.9898,4.9898,4.9898,4.9898,4.9974,5.0182,5.1054,5.149,5.1793,5.3309,5.3916,5.3962,5.4625,5.4829,5.4786,4.6878,4.6093,4.5997,4.5997,4.8554,4.9761,4.7267,4.9391,5.13,5.13,5.1249,5.1074,5.065,5.0977,5.1214,5.1202,5.1202,5.1202,5.1202,5.114,5.1101,5.1101,5.099,5.0906,5.0906,5.0906,5.0906,5.0941,5.0913,5.0916,5.0916,5.0827,5.081,5.081,5.0738,5.0701,5.0701,5.0702,5.0702,5.076,5.1452,5.2202,5.2856,5.2856,5.3276,5.381,5.3072,5.2828,5.2805,5.2805,5.2728,5.2633,5.2633,5.2556,5.2461,5.2461,5.2461,5.2461,5.2461,5.2412,5.2361,5.2336,5.1777,5.1147,5.0973,4.9686,4.8306,4.7548,4.7302,4.7264,4.7352,4.7181,4.7093,4.7226,4.6544,4.6013,4.6013,4.5388,4.4895,4.4895,4.4895,4.4895,4.4895,4.4895,4.5255,4.6127,4.6203,4.6544,4.7359,4.8124,4.8541,4.8515,4.9275,4.9607,4.9466,4.9607,4.9664,4.9636,4.9814,4.9925,4.9898,4.9898,4.9898,4.9898,4.9898,5.0334,5.1092,5.1907,5.2684,5.3461,5.4389,5.4689,5.4647,5.4698,5.4755,5.4767,4.6507,4.6154,4.6102,4.6102,4.74,4.8592,4.8982,4.8709,4.9138,5.1047,4.9612,4.9129,5.1045,5.1217,5.1202,5.1202,5.1202,5.1171,5.1159,5.1134,5.1075,5.1053,5.099,5.0941,5.0906,5.0893,5.0913,5.0913,5.0916,5.0883,5.0846,5.0775,5.0738,5.0738,5.0702,5.0702,5.0702,5.0702,5.0702,5.076,5.1587,5.2145,5.2529,5.301,5.3392,5.3673,5.3679,5.391,5.4256,5.4256,5.3932,5.3531,5.3531,5.3187,5.2805,5.2805,5.2805,5.2805,5.2805,5.278,5.2755,5.2705,5.2367,5.2068,5.1988,5.1356,5.0391,4.9064,4.8439,4.8249,4.8704,4.8022,4.7397,4.7397,4.6714,4.6203,4.6203,4.5445,4.4895,4.4895,4.4895,4.4895,4.4895,4.5331,4.5975,4.6809,4.7321,4.7946,4.8742,4.9159,4.9367,4.9367,4.9645,4.9807,4.9807,4.975,4.975,4.9807,4.9788,4.9816,4.9898,4.9898,4.9898,4.9898,4.9898,5.0344,5.1168,5.2001,5.2805,5.3626,5.4477,5.4799,5.4767,5.4622,5.4654,5.4723]}]]